<?xml version="1.0" encoding="UTF-8" standalone="no" ?>
<gpx xmlns="http://www.topografix.com/GPX/1/1" xmlns:xsi="http://www.w3.org/2001/XMLSchema-instance" xsi:schemaLocation="http://www.topografix.com/GPX/1/1 http://www.topografix.com/GPX/1/1/gpx.xsd" version="1.1" creator="VisuGPX - https://www.visugpx.com">
  <metadata>
    <name>USM st Denis: Villeneuve sur Yonne 29/11/15</name>
    <desc><![CDATA[Rando autour de Villeneuve sur Yonne]]></desc>
  </metadata>
  <wpt lat="48.08582" lon="3.29279">
    <ele>70</ele>
    <name><![CDATA[Départ parking de l'écluse]]></name>
  </wpt>
  <wpt lat="48.0793" lon="3.26082">
    <ele>161</ele>
    <name><![CDATA[Gîte des 3 roses.Arrivée]]></name>
    <desc><![CDATA[Bâtiment]]></desc>
    <cmt><![CDATA[Bâtiment]]></cmt>
  </wpt>
  <trk>
    <name><![CDATA[Villeneuve sur Yonne 40 km]]></name>
    <trkseg>
      <trkpt lat="48.08582" lon="3.29279">
        <ele>113.57</ele>
        <time>2015-11-29T08:04:33Z</time>
      </trkpt>
      <trkpt lat="48.08578" lon="3.29308">
        <ele>77.04</ele>
        <time>2015-11-29T08:05:39Z</time>
      </trkpt>
      <trkpt lat="48.08566" lon="3.29331">
        <ele>77.52</ele>
        <time>2015-11-29T08:05:47Z</time>
      </trkpt>
      <trkpt lat="48.08564" lon="3.29362">
        <ele>77.04</ele>
        <time>2015-11-29T08:05:54Z</time>
      </trkpt>
      <trkpt lat="48.08562" lon="3.2939">
        <ele>77.04</ele>
        <time>2015-11-29T08:06:00Z</time>
      </trkpt>
      <trkpt lat="48.0856" lon="3.29418">
        <ele>77.04</ele>
        <time>2015-11-29T08:06:07Z</time>
      </trkpt>
      <trkpt lat="48.08556" lon="3.29449">
        <ele>78</ele>
        <time>2015-11-29T08:06:14Z</time>
      </trkpt>
      <trkpt lat="48.08551" lon="3.29478">
        <ele>78.48</ele>
        <time>2015-11-29T08:06:21Z</time>
      </trkpt>
      <trkpt lat="48.0855" lon="3.29509">
        <ele>79.45</ele>
        <time>2015-11-29T08:06:28Z</time>
      </trkpt>
      <trkpt lat="48.08547" lon="3.29536">
        <ele>79.93</ele>
        <time>2015-11-29T08:06:34Z</time>
      </trkpt>
      <trkpt lat="48.08544" lon="3.29563">
        <ele>80.41</ele>
        <time>2015-11-29T08:06:40Z</time>
      </trkpt>
      <trkpt lat="48.08543" lon="3.29596">
        <ele>80.41</ele>
        <time>2015-11-29T08:06:47Z</time>
      </trkpt>
      <trkpt lat="48.0854" lon="3.29624">
        <ele>81.37</ele>
        <time>2015-11-29T08:06:53Z</time>
      </trkpt>
      <trkpt lat="48.08538" lon="3.29655">
        <ele>81.85</ele>
        <time>2015-11-29T08:06:59Z</time>
      </trkpt>
      <trkpt lat="48.08535" lon="3.29685">
        <ele>82.33</ele>
        <time>2015-11-29T08:07:05Z</time>
      </trkpt>
      <trkpt lat="48.08529" lon="3.29716">
        <ele>82.81</ele>
        <time>2015-11-29T08:07:11Z</time>
      </trkpt>
      <trkpt lat="48.08522" lon="3.29747">
        <ele>82.81</ele>
        <time>2015-11-29T08:07:17Z</time>
      </trkpt>
      <trkpt lat="48.08513" lon="3.29778">
        <ele>83.29</ele>
        <time>2015-11-29T08:07:23Z</time>
      </trkpt>
      <trkpt lat="48.08505" lon="3.29809">
        <ele>84.25</ele>
        <time>2015-11-29T08:07:29Z</time>
      </trkpt>
      <trkpt lat="48.08499" lon="3.29839">
        <ele>84.25</ele>
        <time>2015-11-29T08:07:35Z</time>
      </trkpt>
      <trkpt lat="48.08489" lon="3.29866">
        <ele>84.25</ele>
        <time>2015-11-29T08:07:41Z</time>
      </trkpt>
      <trkpt lat="48.08472" lon="3.29888">
        <ele>83.77</ele>
        <time>2015-11-29T08:07:48Z</time>
      </trkpt>
      <trkpt lat="48.08454" lon="3.29915">
        <ele>83.29</ele>
        <time>2015-11-29T08:07:56Z</time>
      </trkpt>
      <trkpt lat="48.08458" lon="3.29941">
        <ele>83.29</ele>
        <time>2015-11-29T08:08:02Z</time>
      </trkpt>
      <trkpt lat="48.08475" lon="3.29954">
        <ele>84.25</ele>
        <time>2015-11-29T08:08:07Z</time>
      </trkpt>
      <trkpt lat="48.08492" lon="3.29964">
        <ele>84.73</ele>
        <time>2015-11-29T08:08:12Z</time>
      </trkpt>
      <trkpt lat="48.08511" lon="3.29975">
        <ele>84.73</ele>
        <time>2015-11-29T08:08:17Z</time>
      </trkpt>
      <trkpt lat="48.0853" lon="3.29985">
        <ele>85.21</ele>
        <time>2015-11-29T08:08:22Z</time>
      </trkpt>
      <trkpt lat="48.08547" lon="3.29992">
        <ele>86.18</ele>
        <time>2015-11-29T08:08:27Z</time>
      </trkpt>
      <trkpt lat="48.08563" lon="3.29997">
        <ele>86.66</ele>
        <time>2015-11-29T08:08:32Z</time>
      </trkpt>
      <trkpt lat="48.08584" lon="3.29996">
        <ele>86.18</ele>
        <time>2015-11-29T08:08:37Z</time>
      </trkpt>
      <trkpt lat="48.08592" lon="3.29969">
        <ele>84.73</ele>
        <time>2015-11-29T08:08:41Z</time>
      </trkpt>
      <trkpt lat="48.08597" lon="3.2994">
        <ele>84.73</ele>
        <time>2015-11-29T08:08:45Z</time>
      </trkpt>
      <trkpt lat="48.08601" lon="3.2991">
        <ele>83.77</ele>
        <time>2015-11-29T08:08:49Z</time>
      </trkpt>
      <trkpt lat="48.08605" lon="3.2988">
        <ele>83.29</ele>
        <time>2015-11-29T08:08:53Z</time>
      </trkpt>
      <trkpt lat="48.0861" lon="3.29851">
        <ele>82.81</ele>
        <time>2015-11-29T08:08:57Z</time>
      </trkpt>
      <trkpt lat="48.08622" lon="3.29838">
        <ele>82.81</ele>
        <time>2015-11-29T08:09:02Z</time>
      </trkpt>
      <trkpt lat="48.0864" lon="3.2986">
        <ele>82.33</ele>
        <time>2015-11-29T08:09:07Z</time>
      </trkpt>
      <trkpt lat="48.08657" lon="3.29874">
        <ele>83.29</ele>
        <time>2015-11-29T08:09:11Z</time>
      </trkpt>
      <trkpt lat="48.08676" lon="3.29889">
        <ele>83.29</ele>
        <time>2015-11-29T08:09:15Z</time>
      </trkpt>
      <trkpt lat="48.08696" lon="3.29905">
        <ele>82.81</ele>
        <time>2015-11-29T08:09:19Z</time>
      </trkpt>
      <trkpt lat="48.08715" lon="3.29922">
        <ele>82.33</ele>
        <time>2015-11-29T08:09:23Z</time>
      </trkpt>
      <trkpt lat="48.08733" lon="3.29941">
        <ele>82.33</ele>
        <time>2015-11-29T08:09:27Z</time>
      </trkpt>
      <trkpt lat="48.0875" lon="3.29961">
        <ele>82.33</ele>
        <time>2015-11-29T08:09:31Z</time>
      </trkpt>
      <trkpt lat="48.08763" lon="3.29979">
        <ele>82.81</ele>
        <time>2015-11-29T08:09:35Z</time>
      </trkpt>
      <trkpt lat="48.08777" lon="3.29998">
        <ele>82.33</ele>
        <time>2015-11-29T08:09:43Z</time>
      </trkpt>
      <trkpt lat="48.08794" lon="3.30022">
        <ele>83.29</ele>
        <time>2015-11-29T08:09:49Z</time>
      </trkpt>
      <trkpt lat="48.0881" lon="3.30042">
        <ele>82.81</ele>
        <time>2015-11-29T08:09:53Z</time>
      </trkpt>
      <trkpt lat="48.08824" lon="3.30064">
        <ele>82.33</ele>
        <time>2015-11-29T08:09:57Z</time>
      </trkpt>
      <trkpt lat="48.0884" lon="3.30086">
        <ele>81.85</ele>
        <time>2015-11-29T08:10:01Z</time>
      </trkpt>
      <trkpt lat="48.08855" lon="3.30107">
        <ele>81.85</ele>
        <time>2015-11-29T08:10:05Z</time>
      </trkpt>
      <trkpt lat="48.0887" lon="3.3013">
        <ele>82.33</ele>
        <time>2015-11-29T08:10:09Z</time>
      </trkpt>
      <trkpt lat="48.08885" lon="3.30153">
        <ele>81.85</ele>
        <time>2015-11-29T08:10:13Z</time>
      </trkpt>
      <trkpt lat="48.08897" lon="3.30174">
        <ele>82.33</ele>
        <time>2015-11-29T08:10:17Z</time>
      </trkpt>
      <trkpt lat="48.08913" lon="3.30195">
        <ele>82.33</ele>
        <time>2015-11-29T08:10:22Z</time>
      </trkpt>
      <trkpt lat="48.08933" lon="3.30194">
        <ele>81.85</ele>
        <time>2015-11-29T08:10:26Z</time>
      </trkpt>
      <trkpt lat="48.08952" lon="3.30197">
        <ele>82.33</ele>
        <time>2015-11-29T08:10:30Z</time>
      </trkpt>
      <trkpt lat="48.08968" lon="3.3021">
        <ele>81.85</ele>
        <time>2015-11-29T08:10:34Z</time>
      </trkpt>
      <trkpt lat="48.08979" lon="3.30235">
        <ele>81.37</ele>
        <time>2015-11-29T08:10:38Z</time>
      </trkpt>
      <trkpt lat="48.08988" lon="3.30262">
        <ele>81.85</ele>
        <time>2015-11-29T08:10:42Z</time>
      </trkpt>
      <trkpt lat="48.08999" lon="3.30289">
        <ele>82.33</ele>
        <time>2015-11-29T08:10:46Z</time>
      </trkpt>
      <trkpt lat="48.09013" lon="3.30313">
        <ele>81.85</ele>
        <time>2015-11-29T08:10:50Z</time>
      </trkpt>
      <trkpt lat="48.09027" lon="3.30334">
        <ele>82.33</ele>
        <time>2015-11-29T08:10:54Z</time>
      </trkpt>
      <trkpt lat="48.09039" lon="3.30358">
        <ele>82.33</ele>
        <time>2015-11-29T08:10:58Z</time>
      </trkpt>
      <trkpt lat="48.09049" lon="3.30381">
        <ele>81.85</ele>
        <time>2015-11-29T08:11:02Z</time>
      </trkpt>
      <trkpt lat="48.09059" lon="3.30406">
        <ele>82.33</ele>
        <time>2015-11-29T08:11:06Z</time>
      </trkpt>
      <trkpt lat="48.09071" lon="3.30431">
        <ele>82.81</ele>
        <time>2015-11-29T08:11:10Z</time>
      </trkpt>
      <trkpt lat="48.09086" lon="3.30456">
        <ele>82.33</ele>
        <time>2015-11-29T08:11:14Z</time>
      </trkpt>
      <trkpt lat="48.09101" lon="3.30478">
        <ele>82.33</ele>
        <time>2015-11-29T08:11:18Z</time>
      </trkpt>
      <trkpt lat="48.09117" lon="3.30501">
        <ele>81.85</ele>
        <time>2015-11-29T08:11:22Z</time>
      </trkpt>
      <trkpt lat="48.09134" lon="3.30523">
        <ele>82.33</ele>
        <time>2015-11-29T08:11:26Z</time>
      </trkpt>
      <trkpt lat="48.09151" lon="3.30543">
        <ele>81.85</ele>
        <time>2015-11-29T08:11:30Z</time>
      </trkpt>
      <trkpt lat="48.09165" lon="3.30562">
        <ele>82.33</ele>
        <time>2015-11-29T08:11:34Z</time>
      </trkpt>
      <trkpt lat="48.09182" lon="3.30584">
        <ele>82.81</ele>
        <time>2015-11-29T08:11:39Z</time>
      </trkpt>
      <trkpt lat="48.09201" lon="3.30593">
        <ele>82.33</ele>
        <time>2015-11-29T08:11:44Z</time>
      </trkpt>
      <trkpt lat="48.0922" lon="3.30613">
        <ele>82.33</ele>
        <time>2015-11-29T08:11:49Z</time>
      </trkpt>
      <trkpt lat="48.09237" lon="3.30629">
        <ele>82.33</ele>
        <time>2015-11-29T08:11:53Z</time>
      </trkpt>
      <trkpt lat="48.09256" lon="3.30643">
        <ele>82.33</ele>
        <time>2015-11-29T08:11:57Z</time>
      </trkpt>
      <trkpt lat="48.09278" lon="3.30654">
        <ele>83.29</ele>
        <time>2015-11-29T08:12:01Z</time>
      </trkpt>
      <trkpt lat="48.09299" lon="3.30663">
        <ele>83.29</ele>
        <time>2015-11-29T08:12:05Z</time>
      </trkpt>
      <trkpt lat="48.09314" lon="3.30688">
        <ele>83.29</ele>
        <time>2015-11-29T08:12:10Z</time>
      </trkpt>
      <trkpt lat="48.0932" lon="3.30717">
        <ele>83.77</ele>
        <time>2015-11-29T08:12:16Z</time>
      </trkpt>
      <trkpt lat="48.09324" lon="3.30748">
        <ele>84.25</ele>
        <time>2015-11-29T08:12:26Z</time>
      </trkpt>
      <trkpt lat="48.09334" lon="3.30778">
        <ele>84.73</ele>
        <time>2015-11-29T08:12:34Z</time>
      </trkpt>
      <trkpt lat="48.09334" lon="3.30813">
        <ele>84.25</ele>
        <time>2015-11-29T08:12:40Z</time>
      </trkpt>
      <trkpt lat="48.09334" lon="3.30845">
        <ele>84.73</ele>
        <time>2015-11-29T08:12:45Z</time>
      </trkpt>
      <trkpt lat="48.09332" lon="3.30874">
        <ele>85.21</ele>
        <time>2015-11-29T08:12:49Z</time>
      </trkpt>
      <trkpt lat="48.09332" lon="3.30904">
        <ele>85.21</ele>
        <time>2015-11-29T08:12:53Z</time>
      </trkpt>
      <trkpt lat="48.09341" lon="3.3093">
        <ele>85.21</ele>
        <time>2015-11-29T08:12:57Z</time>
      </trkpt>
      <trkpt lat="48.09358" lon="3.30943">
        <ele>84.73</ele>
        <time>2015-11-29T08:13:01Z</time>
      </trkpt>
      <trkpt lat="48.09378" lon="3.3095">
        <ele>85.69</ele>
        <time>2015-11-29T08:13:05Z</time>
      </trkpt>
      <trkpt lat="48.09397" lon="3.30957">
        <ele>85.21</ele>
        <time>2015-11-29T08:13:09Z</time>
      </trkpt>
      <trkpt lat="48.09416" lon="3.30966">
        <ele>86.66</ele>
        <time>2015-11-29T08:13:13Z</time>
      </trkpt>
      <trkpt lat="48.09434" lon="3.30978">
        <ele>86.66</ele>
        <time>2015-11-29T08:13:17Z</time>
      </trkpt>
      <trkpt lat="48.09451" lon="3.30993">
        <ele>87.14</ele>
        <time>2015-11-29T08:13:21Z</time>
      </trkpt>
      <trkpt lat="48.09464" lon="3.31011">
        <ele>87.14</ele>
        <time>2015-11-29T08:13:25Z</time>
      </trkpt>
      <trkpt lat="48.09474" lon="3.31035">
        <ele>88.1</ele>
        <time>2015-11-29T08:13:29Z</time>
      </trkpt>
      <trkpt lat="48.09481" lon="3.3106">
        <ele>88.58</ele>
        <time>2015-11-29T08:13:33Z</time>
      </trkpt>
      <trkpt lat="48.09492" lon="3.31087">
        <ele>89.54</ele>
        <time>2015-11-29T08:13:38Z</time>
      </trkpt>
      <trkpt lat="48.09507" lon="3.3111">
        <ele>90.98</ele>
        <time>2015-11-29T08:13:43Z</time>
      </trkpt>
      <trkpt lat="48.09513" lon="3.31133">
        <ele>91.46</ele>
        <time>2015-11-29T08:13:48Z</time>
      </trkpt>
      <trkpt lat="48.09495" lon="3.3115">
        <ele>90.98</ele>
        <time>2015-11-29T08:13:53Z</time>
      </trkpt>
      <trkpt lat="48.09474" lon="3.31161">
        <ele>90.5</ele>
        <time>2015-11-29T08:13:57Z</time>
      </trkpt>
      <trkpt lat="48.09451" lon="3.31168">
        <ele>90.02</ele>
        <time>2015-11-29T08:14:01Z</time>
      </trkpt>
      <trkpt lat="48.09433" lon="3.31169">
        <ele>89.54</ele>
        <time>2015-11-29T08:14:04Z</time>
      </trkpt>
      <trkpt lat="48.09411" lon="3.31167">
        <ele>88.1</ele>
        <time>2015-11-29T08:14:08Z</time>
      </trkpt>
      <trkpt lat="48.09393" lon="3.31159">
        <ele>87.62</ele>
        <time>2015-11-29T08:14:12Z</time>
      </trkpt>
      <trkpt lat="48.09377" lon="3.31147">
        <ele>87.14</ele>
        <time>2015-11-29T08:14:17Z</time>
      </trkpt>
      <trkpt lat="48.09373" lon="3.31163">
        <ele>86.66</ele>
        <time>2015-11-29T08:14:25Z</time>
      </trkpt>
      <trkpt lat="48.09384" lon="3.3119">
        <ele>86.66</ele>
        <time>2015-11-29T08:14:30Z</time>
      </trkpt>
      <trkpt lat="48.09393" lon="3.31214">
        <ele>86.18</ele>
        <time>2015-11-29T08:14:34Z</time>
      </trkpt>
      <trkpt lat="48.09402" lon="3.31238">
        <ele>86.18</ele>
        <time>2015-11-29T08:14:38Z</time>
      </trkpt>
      <trkpt lat="48.09414" lon="3.31265">
        <ele>85.69</ele>
        <time>2015-11-29T08:14:43Z</time>
      </trkpt>
      <trkpt lat="48.09426" lon="3.31292">
        <ele>85.69</ele>
        <time>2015-11-29T08:14:48Z</time>
      </trkpt>
      <trkpt lat="48.09434" lon="3.31323">
        <ele>86.18</ele>
        <time>2015-11-29T08:14:53Z</time>
      </trkpt>
      <trkpt lat="48.09437" lon="3.31354">
        <ele>85.69</ele>
        <time>2015-11-29T08:14:58Z</time>
      </trkpt>
      <trkpt lat="48.09431" lon="3.31383">
        <ele>86.18</ele>
        <time>2015-11-29T08:15:04Z</time>
      </trkpt>
      <trkpt lat="48.09421" lon="3.31413">
        <ele>86.18</ele>
        <time>2015-11-29T08:15:09Z</time>
      </trkpt>
      <trkpt lat="48.09418" lon="3.31443">
        <ele>86.18</ele>
        <time>2015-11-29T08:15:14Z</time>
      </trkpt>
      <trkpt lat="48.09416" lon="3.31474">
        <ele>86.18</ele>
        <time>2015-11-29T08:15:20Z</time>
      </trkpt>
      <trkpt lat="48.09413" lon="3.31502">
        <ele>86.18</ele>
        <time>2015-11-29T08:15:25Z</time>
      </trkpt>
      <trkpt lat="48.0941" lon="3.31529">
        <ele>86.18</ele>
        <time>2015-11-29T08:15:30Z</time>
      </trkpt>
      <trkpt lat="48.09408" lon="3.31561">
        <ele>88.1</ele>
        <time>2015-11-29T08:15:36Z</time>
      </trkpt>
      <trkpt lat="48.09409" lon="3.31588">
        <ele>86.66</ele>
        <time>2015-11-29T08:15:41Z</time>
      </trkpt>
      <trkpt lat="48.09409" lon="3.31618">
        <ele>87.14</ele>
        <time>2015-11-29T08:15:46Z</time>
      </trkpt>
      <trkpt lat="48.0941" lon="3.3165">
        <ele>87.14</ele>
        <time>2015-11-29T08:15:51Z</time>
      </trkpt>
      <trkpt lat="48.0941" lon="3.31681">
        <ele>87.62</ele>
        <time>2015-11-29T08:15:56Z</time>
      </trkpt>
      <trkpt lat="48.09411" lon="3.3171">
        <ele>88.58</ele>
        <time>2015-11-29T08:16:01Z</time>
      </trkpt>
      <trkpt lat="48.09412" lon="3.3174">
        <ele>88.1</ele>
        <time>2015-11-29T08:16:06Z</time>
      </trkpt>
      <trkpt lat="48.09413" lon="3.31767">
        <ele>88.58</ele>
        <time>2015-11-29T08:16:11Z</time>
      </trkpt>
      <trkpt lat="48.09414" lon="3.31797">
        <ele>88.1</ele>
        <time>2015-11-29T08:16:16Z</time>
      </trkpt>
      <trkpt lat="48.09415" lon="3.31828">
        <ele>88.1</ele>
        <time>2015-11-29T08:16:21Z</time>
      </trkpt>
      <trkpt lat="48.09415" lon="3.31858">
        <ele>88.1</ele>
        <time>2015-11-29T08:16:26Z</time>
      </trkpt>
      <trkpt lat="48.09416" lon="3.31888">
        <ele>88.58</ele>
        <time>2015-11-29T08:16:31Z</time>
      </trkpt>
      <trkpt lat="48.09416" lon="3.31915">
        <ele>88.58</ele>
        <time>2015-11-29T08:16:36Z</time>
      </trkpt>
      <trkpt lat="48.09416" lon="3.31944">
        <ele>88.1</ele>
        <time>2015-11-29T08:16:41Z</time>
      </trkpt>
      <trkpt lat="48.09417" lon="3.31971">
        <ele>89.06</ele>
        <time>2015-11-29T08:16:46Z</time>
      </trkpt>
      <trkpt lat="48.09417" lon="3.31998">
        <ele>89.06</ele>
        <time>2015-11-29T08:16:51Z</time>
      </trkpt>
      <trkpt lat="48.09417" lon="3.32029">
        <ele>89.54</ele>
        <time>2015-11-29T08:16:56Z</time>
      </trkpt>
      <trkpt lat="48.09417" lon="3.3206">
        <ele>89.54</ele>
        <time>2015-11-29T08:17:01Z</time>
      </trkpt>
      <trkpt lat="48.09421" lon="3.32089">
        <ele>89.06</ele>
        <time>2015-11-29T08:17:06Z</time>
      </trkpt>
      <trkpt lat="48.09434" lon="3.32104">
        <ele>89.54</ele>
        <time>2015-11-29T08:17:12Z</time>
      </trkpt>
      <trkpt lat="48.09454" lon="3.32104">
        <ele>89.06</ele>
        <time>2015-11-29T08:17:17Z</time>
      </trkpt>
      <trkpt lat="48.09474" lon="3.32106">
        <ele>89.54</ele>
        <time>2015-11-29T08:17:22Z</time>
      </trkpt>
      <trkpt lat="48.09494" lon="3.32107">
        <ele>90.02</ele>
        <time>2015-11-29T08:17:27Z</time>
      </trkpt>
      <trkpt lat="48.09516" lon="3.32109">
        <ele>89.54</ele>
        <time>2015-11-29T08:17:32Z</time>
      </trkpt>
      <trkpt lat="48.09535" lon="3.32111">
        <ele>90.02</ele>
        <time>2015-11-29T08:17:39Z</time>
      </trkpt>
      <trkpt lat="48.09554" lon="3.32118">
        <ele>91.46</ele>
        <time>2015-11-29T08:17:53Z</time>
      </trkpt>
      <trkpt lat="48.0955" lon="3.32151">
        <ele>91.94</ele>
        <time>2015-11-29T08:19:51Z</time>
      </trkpt>
      <trkpt lat="48.09544" lon="3.3218">
        <ele>91.94</ele>
        <time>2015-11-29T08:19:57Z</time>
      </trkpt>
      <trkpt lat="48.09539" lon="3.32206">
        <ele>92.42</ele>
        <time>2015-11-29T08:20:02Z</time>
      </trkpt>
      <trkpt lat="48.09534" lon="3.32235">
        <ele>92.42</ele>
        <time>2015-11-29T08:20:07Z</time>
      </trkpt>
      <trkpt lat="48.09531" lon="3.32265">
        <ele>91.94</ele>
        <time>2015-11-29T08:20:12Z</time>
      </trkpt>
      <trkpt lat="48.09529" lon="3.32297">
        <ele>91.94</ele>
        <time>2015-11-29T08:20:17Z</time>
      </trkpt>
      <trkpt lat="48.0953" lon="3.32331">
        <ele>91.94</ele>
        <time>2015-11-29T08:20:22Z</time>
      </trkpt>
      <trkpt lat="48.09532" lon="3.32358">
        <ele>91.94</ele>
        <time>2015-11-29T08:20:26Z</time>
      </trkpt>
      <trkpt lat="48.09535" lon="3.32386">
        <ele>91.94</ele>
        <time>2015-11-29T08:20:30Z</time>
      </trkpt>
      <trkpt lat="48.09539" lon="3.32413">
        <ele>91.94</ele>
        <time>2015-11-29T08:20:34Z</time>
      </trkpt>
      <trkpt lat="48.09542" lon="3.3244">
        <ele>92.42</ele>
        <time>2015-11-29T08:20:38Z</time>
      </trkpt>
      <trkpt lat="48.09548" lon="3.32473">
        <ele>92.42</ele>
        <time>2015-11-29T08:20:43Z</time>
      </trkpt>
      <trkpt lat="48.09553" lon="3.32499">
        <ele>92.9</ele>
        <time>2015-11-29T08:20:47Z</time>
      </trkpt>
      <trkpt lat="48.09559" lon="3.32532">
        <ele>92.9</ele>
        <time>2015-11-29T08:20:52Z</time>
      </trkpt>
      <trkpt lat="48.09566" lon="3.32561">
        <ele>93.39</ele>
        <time>2015-11-29T08:20:57Z</time>
      </trkpt>
      <trkpt lat="48.09571" lon="3.32587">
        <ele>93.87</ele>
        <time>2015-11-29T08:21:01Z</time>
      </trkpt>
      <trkpt lat="48.09576" lon="3.32614">
        <ele>93.39</ele>
        <time>2015-11-29T08:21:05Z</time>
      </trkpt>
      <trkpt lat="48.09582" lon="3.32641">
        <ele>93.87</ele>
        <time>2015-11-29T08:21:09Z</time>
      </trkpt>
      <trkpt lat="48.09587" lon="3.32668">
        <ele>93.87</ele>
        <time>2015-11-29T08:21:13Z</time>
      </trkpt>
      <trkpt lat="48.09595" lon="3.32699">
        <ele>93.87</ele>
        <time>2015-11-29T08:21:18Z</time>
      </trkpt>
      <trkpt lat="48.09601" lon="3.32727">
        <ele>94.35</ele>
        <time>2015-11-29T08:21:22Z</time>
      </trkpt>
      <trkpt lat="48.09607" lon="3.32756">
        <ele>94.83</ele>
        <time>2015-11-29T08:21:26Z</time>
      </trkpt>
      <trkpt lat="48.09612" lon="3.32785">
        <ele>94.35</ele>
        <time>2015-11-29T08:21:30Z</time>
      </trkpt>
      <trkpt lat="48.09613" lon="3.32815">
        <ele>95.31</ele>
        <time>2015-11-29T08:21:34Z</time>
      </trkpt>
      <trkpt lat="48.09611" lon="3.32845">
        <ele>95.31</ele>
        <time>2015-11-29T08:21:38Z</time>
      </trkpt>
      <trkpt lat="48.09608" lon="3.32874">
        <ele>95.79</ele>
        <time>2015-11-29T08:21:42Z</time>
      </trkpt>
      <trkpt lat="48.09606" lon="3.32904">
        <ele>95.79</ele>
        <time>2015-11-29T08:21:46Z</time>
      </trkpt>
      <trkpt lat="48.09603" lon="3.32934">
        <ele>95.79</ele>
        <time>2015-11-29T08:21:50Z</time>
      </trkpt>
      <trkpt lat="48.096" lon="3.32963">
        <ele>95.31</ele>
        <time>2015-11-29T08:21:54Z</time>
      </trkpt>
      <trkpt lat="48.09598" lon="3.32994">
        <ele>96.27</ele>
        <time>2015-11-29T08:21:58Z</time>
      </trkpt>
      <trkpt lat="48.09596" lon="3.33026">
        <ele>95.31</ele>
        <time>2015-11-29T08:22:02Z</time>
      </trkpt>
      <trkpt lat="48.09596" lon="3.33057">
        <ele>95.79</ele>
        <time>2015-11-29T08:22:06Z</time>
      </trkpt>
      <trkpt lat="48.09597" lon="3.33086">
        <ele>96.27</ele>
        <time>2015-11-29T08:22:10Z</time>
      </trkpt>
      <trkpt lat="48.09599" lon="3.33114">
        <ele>95.79</ele>
        <time>2015-11-29T08:22:14Z</time>
      </trkpt>
      <trkpt lat="48.09601" lon="3.33143">
        <ele>96.75</ele>
        <time>2015-11-29T08:22:18Z</time>
      </trkpt>
      <trkpt lat="48.09604" lon="3.33171">
        <ele>96.75</ele>
        <time>2015-11-29T08:22:22Z</time>
      </trkpt>
      <trkpt lat="48.09607" lon="3.33199">
        <ele>96.75</ele>
        <time>2015-11-29T08:22:26Z</time>
      </trkpt>
      <trkpt lat="48.09611" lon="3.33229">
        <ele>96.27</ele>
        <time>2015-11-29T08:22:30Z</time>
      </trkpt>
      <trkpt lat="48.09615" lon="3.33258">
        <ele>96.75</ele>
        <time>2015-11-29T08:22:34Z</time>
      </trkpt>
      <trkpt lat="48.09618" lon="3.33288">
        <ele>97.23</ele>
        <time>2015-11-29T08:22:38Z</time>
      </trkpt>
      <trkpt lat="48.09622" lon="3.33317">
        <ele>97.71</ele>
        <time>2015-11-29T08:22:42Z</time>
      </trkpt>
      <trkpt lat="48.09625" lon="3.33347">
        <ele>97.71</ele>
        <time>2015-11-29T08:22:46Z</time>
      </trkpt>
      <trkpt lat="48.09628" lon="3.33377">
        <ele>98.19</ele>
        <time>2015-11-29T08:22:50Z</time>
      </trkpt>
      <trkpt lat="48.09631" lon="3.33408">
        <ele>98.19</ele>
        <time>2015-11-29T08:22:54Z</time>
      </trkpt>
      <trkpt lat="48.09634" lon="3.3344">
        <ele>98.19</ele>
        <time>2015-11-29T08:22:58Z</time>
      </trkpt>
      <trkpt lat="48.09636" lon="3.3347">
        <ele>98.67</ele>
        <time>2015-11-29T08:23:02Z</time>
      </trkpt>
      <trkpt lat="48.09637" lon="3.33501">
        <ele>99.15</ele>
        <time>2015-11-29T08:23:06Z</time>
      </trkpt>
      <trkpt lat="48.09639" lon="3.33532">
        <ele>99.63</ele>
        <time>2015-11-29T08:23:10Z</time>
      </trkpt>
      <trkpt lat="48.09642" lon="3.33562">
        <ele>100.6</ele>
        <time>2015-11-29T08:23:14Z</time>
      </trkpt>
      <trkpt lat="48.09646" lon="3.33592">
        <ele>101.08</ele>
        <time>2015-11-29T08:23:18Z</time>
      </trkpt>
      <trkpt lat="48.0965" lon="3.33621">
        <ele>101.56</ele>
        <time>2015-11-29T08:23:22Z</time>
      </trkpt>
      <trkpt lat="48.09655" lon="3.33648">
        <ele>102.04</ele>
        <time>2015-11-29T08:23:26Z</time>
      </trkpt>
      <trkpt lat="48.09663" lon="3.33677">
        <ele>103.96</ele>
        <time>2015-11-29T08:23:31Z</time>
      </trkpt>
      <trkpt lat="48.09667" lon="3.33706">
        <ele>103.48</ele>
        <time>2015-11-29T08:23:36Z</time>
      </trkpt>
      <trkpt lat="48.09674" lon="3.33737">
        <ele>103.96</ele>
        <time>2015-11-29T08:23:41Z</time>
      </trkpt>
      <trkpt lat="48.09682" lon="3.33766">
        <ele>103.96</ele>
        <time>2015-11-29T08:23:46Z</time>
      </trkpt>
      <trkpt lat="48.09693" lon="3.33794">
        <ele>104.92</ele>
        <time>2015-11-29T08:23:51Z</time>
      </trkpt>
      <trkpt lat="48.09705" lon="3.3382">
        <ele>105.88</ele>
        <time>2015-11-29T08:23:56Z</time>
      </trkpt>
      <trkpt lat="48.09716" lon="3.33847">
        <ele>106.36</ele>
        <time>2015-11-29T08:24:01Z</time>
      </trkpt>
      <trkpt lat="48.09724" lon="3.33874">
        <ele>105.88</ele>
        <time>2015-11-29T08:24:06Z</time>
      </trkpt>
      <trkpt lat="48.09728" lon="3.33907">
        <ele>105.88</ele>
        <time>2015-11-29T08:24:11Z</time>
      </trkpt>
      <trkpt lat="48.09731" lon="3.33939">
        <ele>105.88</ele>
        <time>2015-11-29T08:24:16Z</time>
      </trkpt>
      <trkpt lat="48.09735" lon="3.33967">
        <ele>105.88</ele>
        <time>2015-11-29T08:24:20Z</time>
      </trkpt>
      <trkpt lat="48.09739" lon="3.33996">
        <ele>105.88</ele>
        <time>2015-11-29T08:24:24Z</time>
      </trkpt>
      <trkpt lat="48.09743" lon="3.34026">
        <ele>105.4</ele>
        <time>2015-11-29T08:24:28Z</time>
      </trkpt>
      <trkpt lat="48.09747" lon="3.34057">
        <ele>104.92</ele>
        <time>2015-11-29T08:24:32Z</time>
      </trkpt>
      <trkpt lat="48.09751" lon="3.34088">
        <ele>104.44</ele>
        <time>2015-11-29T08:24:36Z</time>
      </trkpt>
      <trkpt lat="48.09755" lon="3.34118">
        <ele>104.44</ele>
        <time>2015-11-29T08:24:40Z</time>
      </trkpt>
      <trkpt lat="48.09759" lon="3.34149">
        <ele>104.44</ele>
        <time>2015-11-29T08:24:44Z</time>
      </trkpt>
      <trkpt lat="48.09763" lon="3.34179">
        <ele>103.96</ele>
        <time>2015-11-29T08:24:48Z</time>
      </trkpt>
      <trkpt lat="48.09768" lon="3.34208">
        <ele>103.96</ele>
        <time>2015-11-29T08:24:52Z</time>
      </trkpt>
      <trkpt lat="48.09773" lon="3.34238">
        <ele>103.96</ele>
        <time>2015-11-29T08:24:56Z</time>
      </trkpt>
      <trkpt lat="48.09776" lon="3.34268">
        <ele>103.96</ele>
        <time>2015-11-29T08:25:00Z</time>
      </trkpt>
      <trkpt lat="48.09779" lon="3.34299">
        <ele>103.96</ele>
        <time>2015-11-29T08:25:04Z</time>
      </trkpt>
      <trkpt lat="48.09781" lon="3.34329">
        <ele>103.96</ele>
        <time>2015-11-29T08:25:08Z</time>
      </trkpt>
      <trkpt lat="48.09784" lon="3.34358">
        <ele>103.96</ele>
        <time>2015-11-29T08:25:12Z</time>
      </trkpt>
      <trkpt lat="48.09787" lon="3.34388">
        <ele>103.48</ele>
        <time>2015-11-29T08:25:16Z</time>
      </trkpt>
      <trkpt lat="48.09789" lon="3.34417">
        <ele>103</ele>
        <time>2015-11-29T08:25:20Z</time>
      </trkpt>
      <trkpt lat="48.09791" lon="3.34443">
        <ele>103.48</ele>
        <time>2015-11-29T08:25:24Z</time>
      </trkpt>
      <trkpt lat="48.09791" lon="3.34474">
        <ele>103</ele>
        <time>2015-11-29T08:25:29Z</time>
      </trkpt>
      <trkpt lat="48.0979" lon="3.34506">
        <ele>103.48</ele>
        <time>2015-11-29T08:25:34Z</time>
      </trkpt>
      <trkpt lat="48.09789" lon="3.34538">
        <ele>103.96</ele>
        <time>2015-11-29T08:25:39Z</time>
      </trkpt>
      <trkpt lat="48.09789" lon="3.34572">
        <ele>103.96</ele>
        <time>2015-11-29T08:25:44Z</time>
      </trkpt>
      <trkpt lat="48.09788" lon="3.346">
        <ele>104.44</ele>
        <time>2015-11-29T08:25:48Z</time>
      </trkpt>
      <trkpt lat="48.09788" lon="3.34627">
        <ele>103.96</ele>
        <time>2015-11-29T08:25:52Z</time>
      </trkpt>
      <trkpt lat="48.09786" lon="3.34657">
        <ele>103.48</ele>
        <time>2015-11-29T08:25:57Z</time>
      </trkpt>
      <trkpt lat="48.09777" lon="3.34685">
        <ele>103</ele>
        <time>2015-11-29T08:26:02Z</time>
      </trkpt>
      <trkpt lat="48.09778" lon="3.34711">
        <ele>103.48</ele>
        <time>2015-11-29T08:26:08Z</time>
      </trkpt>
      <trkpt lat="48.09781" lon="3.34741">
        <ele>105.88</ele>
        <time>2015-11-29T08:26:17Z</time>
      </trkpt>
      <trkpt lat="48.09797" lon="3.34749">
        <ele>109.73</ele>
        <time>2015-11-29T08:26:28Z</time>
      </trkpt>
      <trkpt lat="48.09816" lon="3.3475">
        <ele>115.5</ele>
        <time>2015-11-29T08:26:41Z</time>
      </trkpt>
      <trkpt lat="48.09834" lon="3.34756">
        <ele>120.78</ele>
        <time>2015-11-29T08:26:56Z</time>
      </trkpt>
      <trkpt lat="48.09853" lon="3.34758">
        <ele>124.15</ele>
        <time>2015-11-29T08:27:12Z</time>
      </trkpt>
      <trkpt lat="48.09873" lon="3.34758">
        <ele>129.43</ele>
        <time>2015-11-29T08:27:28Z</time>
      </trkpt>
      <trkpt lat="48.09891" lon="3.3476">
        <ele>133.76</ele>
        <time>2015-11-29T08:27:45Z</time>
      </trkpt>
      <trkpt lat="48.0991" lon="3.34764">
        <ele>139.05</ele>
        <time>2015-11-29T08:28:02Z</time>
      </trkpt>
      <trkpt lat="48.0993" lon="3.34767">
        <ele>144.82</ele>
        <time>2015-11-29T08:28:19Z</time>
      </trkpt>
      <trkpt lat="48.09938" lon="3.34786">
        <ele>146.26</ele>
        <time>2015-11-29T08:28:35Z</time>
      </trkpt>
      <trkpt lat="48.09937" lon="3.34817">
        <ele>144.82</ele>
        <time>2015-11-29T08:28:47Z</time>
      </trkpt>
      <trkpt lat="48.09937" lon="3.34813">
        <ele>145.78</ele>
        <time>2015-11-29T08:29:06Z</time>
      </trkpt>
      <trkpt lat="48.09936" lon="3.34816">
        <ele>145.3</ele>
        <time>2015-11-29T08:29:22Z</time>
      </trkpt>
      <trkpt lat="48.09936" lon="3.34845">
        <ele>144.82</ele>
        <time>2015-11-29T08:29:33Z</time>
      </trkpt>
      <trkpt lat="48.09933" lon="3.34874">
        <ele>144.34</ele>
        <time>2015-11-29T08:31:25Z</time>
      </trkpt>
      <trkpt lat="48.09935" lon="3.34904">
        <ele>144.82</ele>
        <time>2015-11-29T08:31:33Z</time>
      </trkpt>
      <trkpt lat="48.09934" lon="3.34932">
        <ele>144.34</ele>
        <time>2015-11-29T08:31:40Z</time>
      </trkpt>
      <trkpt lat="48.09933" lon="3.34962">
        <ele>142.89</ele>
        <time>2015-11-29T08:31:47Z</time>
      </trkpt>
      <trkpt lat="48.09932" lon="3.34992">
        <ele>142.41</ele>
        <time>2015-11-29T08:31:53Z</time>
      </trkpt>
      <trkpt lat="48.0993" lon="3.35023">
        <ele>141.45</ele>
        <time>2015-11-29T08:31:58Z</time>
      </trkpt>
      <trkpt lat="48.09929" lon="3.3505">
        <ele>140.49</ele>
        <time>2015-11-29T08:32:02Z</time>
      </trkpt>
      <trkpt lat="48.09928" lon="3.35077">
        <ele>140.49</ele>
        <time>2015-11-29T08:32:07Z</time>
      </trkpt>
      <trkpt lat="48.09927" lon="3.35105">
        <ele>140.01</ele>
        <time>2015-11-29T08:32:12Z</time>
      </trkpt>
      <trkpt lat="48.09926" lon="3.35137">
        <ele>140.01</ele>
        <time>2015-11-29T08:32:17Z</time>
      </trkpt>
      <trkpt lat="48.09924" lon="3.35168">
        <ele>139.05</ele>
        <time>2015-11-29T08:32:22Z</time>
      </trkpt>
      <trkpt lat="48.09923" lon="3.35197">
        <ele>139.53</ele>
        <time>2015-11-29T08:32:27Z</time>
      </trkpt>
      <trkpt lat="48.09922" lon="3.35226">
        <ele>140.01</ele>
        <time>2015-11-29T08:32:32Z</time>
      </trkpt>
      <trkpt lat="48.09921" lon="3.35254">
        <ele>139.53</ele>
        <time>2015-11-29T08:32:37Z</time>
      </trkpt>
      <trkpt lat="48.0992" lon="3.35286">
        <ele>139.53</ele>
        <time>2015-11-29T08:32:43Z</time>
      </trkpt>
      <trkpt lat="48.09919" lon="3.35318">
        <ele>139.53</ele>
        <time>2015-11-29T08:32:49Z</time>
      </trkpt>
      <trkpt lat="48.09918" lon="3.35347">
        <ele>140.01</ele>
        <time>2015-11-29T08:32:55Z</time>
      </trkpt>
      <trkpt lat="48.09919" lon="3.35376">
        <ele>139.53</ele>
        <time>2015-11-29T08:33:01Z</time>
      </trkpt>
      <trkpt lat="48.09918" lon="3.35407">
        <ele>137.61</ele>
        <time>2015-11-29T08:33:07Z</time>
      </trkpt>
      <trkpt lat="48.09898" lon="3.35412">
        <ele>132.8</ele>
        <time>2015-11-29T08:33:11Z</time>
      </trkpt>
      <trkpt lat="48.09876" lon="3.3541">
        <ele>127.99</ele>
        <time>2015-11-29T08:33:14Z</time>
      </trkpt>
      <trkpt lat="48.0985" lon="3.35407">
        <ele>124.15</ele>
        <time>2015-11-29T08:33:17Z</time>
      </trkpt>
      <trkpt lat="48.09829" lon="3.35405">
        <ele>121.26</ele>
        <time>2015-11-29T08:33:20Z</time>
      </trkpt>
      <trkpt lat="48.09818" lon="3.35425">
        <ele>121.26</ele>
        <time>2015-11-29T08:33:24Z</time>
      </trkpt>
      <trkpt lat="48.09818" lon="3.35457">
        <ele>121.74</ele>
        <time>2015-11-29T08:33:29Z</time>
      </trkpt>
      <trkpt lat="48.09817" lon="3.35487">
        <ele>123.67</ele>
        <time>2015-11-29T08:33:36Z</time>
      </trkpt>
      <trkpt lat="48.09816" lon="3.35519">
        <ele>127.51</ele>
        <time>2015-11-29T08:33:43Z</time>
      </trkpt>
      <trkpt lat="48.09816" lon="3.3555">
        <ele>127.99</ele>
        <time>2015-11-29T08:33:50Z</time>
      </trkpt>
      <trkpt lat="48.09815" lon="3.35579">
        <ele>128.95</ele>
        <time>2015-11-29T08:33:57Z</time>
      </trkpt>
      <trkpt lat="48.09813" lon="3.35606">
        <ele>129.43</ele>
        <time>2015-11-29T08:34:04Z</time>
      </trkpt>
      <trkpt lat="48.09812" lon="3.35634">
        <ele>129.92</ele>
        <time>2015-11-29T08:34:11Z</time>
      </trkpt>
      <trkpt lat="48.09811" lon="3.35664">
        <ele>130.4</ele>
        <time>2015-11-29T08:34:18Z</time>
      </trkpt>
      <trkpt lat="48.09809" lon="3.35693">
        <ele>131.36</ele>
        <time>2015-11-29T08:34:25Z</time>
      </trkpt>
      <trkpt lat="48.09808" lon="3.35721">
        <ele>132.32</ele>
        <time>2015-11-29T08:34:32Z</time>
      </trkpt>
      <trkpt lat="48.09808" lon="3.35752">
        <ele>133.28</ele>
        <time>2015-11-29T08:34:40Z</time>
      </trkpt>
      <trkpt lat="48.09808" lon="3.35781">
        <ele>133.76</ele>
        <time>2015-11-29T08:34:48Z</time>
      </trkpt>
      <trkpt lat="48.09808" lon="3.35812">
        <ele>133.76</ele>
        <time>2015-11-29T08:34:55Z</time>
      </trkpt>
      <trkpt lat="48.09808" lon="3.35842">
        <ele>133.28</ele>
        <time>2015-11-29T08:35:02Z</time>
      </trkpt>
      <trkpt lat="48.09806" lon="3.35872">
        <ele>133.28</ele>
        <time>2015-11-29T08:35:08Z</time>
      </trkpt>
      <trkpt lat="48.09805" lon="3.359">
        <ele>132.8</ele>
        <time>2015-11-29T08:35:13Z</time>
      </trkpt>
      <trkpt lat="48.09804" lon="3.3593">
        <ele>133.28</ele>
        <time>2015-11-29T08:35:19Z</time>
      </trkpt>
      <trkpt lat="48.09803" lon="3.35961">
        <ele>133.28</ele>
        <time>2015-11-29T08:35:25Z</time>
      </trkpt>
      <trkpt lat="48.09801" lon="3.35988">
        <ele>132.8</ele>
        <time>2015-11-29T08:35:30Z</time>
      </trkpt>
      <trkpt lat="48.09799" lon="3.36019">
        <ele>133.76</ele>
        <time>2015-11-29T08:35:36Z</time>
      </trkpt>
      <trkpt lat="48.09797" lon="3.3605">
        <ele>133.28</ele>
        <time>2015-11-29T08:35:42Z</time>
      </trkpt>
      <trkpt lat="48.09796" lon="3.36079">
        <ele>133.28</ele>
        <time>2015-11-29T08:35:48Z</time>
      </trkpt>
      <trkpt lat="48.09794" lon="3.36107">
        <ele>132.8</ele>
        <time>2015-11-29T08:35:56Z</time>
      </trkpt>
      <trkpt lat="48.09804" lon="3.36122">
        <ele>134.72</ele>
        <time>2015-11-29T08:36:04Z</time>
      </trkpt>
      <trkpt lat="48.09823" lon="3.36123">
        <ele>138.57</ele>
        <time>2015-11-29T08:36:14Z</time>
      </trkpt>
      <trkpt lat="48.09825" lon="3.3615">
        <ele>139.53</ele>
        <time>2015-11-29T08:36:24Z</time>
      </trkpt>
      <trkpt lat="48.09824" lon="3.36178">
        <ele>140.01</ele>
        <time>2015-11-29T08:36:33Z</time>
      </trkpt>
      <trkpt lat="48.09822" lon="3.36209">
        <ele>140.01</ele>
        <time>2015-11-29T08:36:40Z</time>
      </trkpt>
      <trkpt lat="48.0982" lon="3.3624">
        <ele>139.53</ele>
        <time>2015-11-29T08:36:46Z</time>
      </trkpt>
      <trkpt lat="48.09819" lon="3.36269">
        <ele>138.57</ele>
        <time>2015-11-29T08:36:51Z</time>
      </trkpt>
      <trkpt lat="48.09819" lon="3.36297">
        <ele>137.61</ele>
        <time>2015-11-29T08:36:56Z</time>
      </trkpt>
      <trkpt lat="48.09818" lon="3.36327">
        <ele>137.13</ele>
        <time>2015-11-29T08:37:01Z</time>
      </trkpt>
      <trkpt lat="48.09816" lon="3.36352">
        <ele>134.72</ele>
        <time>2015-11-29T08:44:20Z</time>
      </trkpt>
      <trkpt lat="48.09815" lon="3.36383">
        <ele>135.2</ele>
        <time>2015-11-29T08:44:28Z</time>
      </trkpt>
      <trkpt lat="48.09827" lon="3.36397">
        <ele>136.64</ele>
        <time>2015-11-29T08:44:37Z</time>
      </trkpt>
      <trkpt lat="48.09846" lon="3.36394">
        <ele>138.09</ele>
        <time>2015-11-29T08:44:45Z</time>
      </trkpt>
      <trkpt lat="48.09864" lon="3.36392">
        <ele>140.49</ele>
        <time>2015-11-29T08:44:54Z</time>
      </trkpt>
      <trkpt lat="48.09884" lon="3.36391">
        <ele>142.41</ele>
        <time>2015-11-29T08:45:04Z</time>
      </trkpt>
      <trkpt lat="48.09909" lon="3.36388">
        <ele>145.3</ele>
        <time>2015-11-29T08:45:16Z</time>
      </trkpt>
      <trkpt lat="48.09933" lon="3.36384">
        <ele>146.74</ele>
        <time>2015-11-29T08:45:27Z</time>
      </trkpt>
      <trkpt lat="48.09949" lon="3.36365">
        <ele>147.7</ele>
        <time>2015-11-29T08:45:37Z</time>
      </trkpt>
      <trkpt lat="48.09959" lon="3.36337">
        <ele>149.62</ele>
        <time>2015-11-29T08:45:49Z</time>
      </trkpt>
      <trkpt lat="48.09965" lon="3.36306">
        <ele>152.51</ele>
        <time>2015-11-29T08:46:02Z</time>
      </trkpt>
      <trkpt lat="48.09968" lon="3.36276">
        <ele>155.87</ele>
        <time>2015-11-29T08:46:15Z</time>
      </trkpt>
      <trkpt lat="48.09968" lon="3.36242">
        <ele>157.79</ele>
        <time>2015-11-29T08:46:27Z</time>
      </trkpt>
      <trkpt lat="48.09973" lon="3.36211">
        <ele>161.64</ele>
        <time>2015-11-29T08:46:39Z</time>
      </trkpt>
      <trkpt lat="48.09987" lon="3.36192">
        <ele>164.52</ele>
        <time>2015-11-29T08:46:51Z</time>
      </trkpt>
      <trkpt lat="48.10005" lon="3.36182">
        <ele>166.93</ele>
        <time>2015-11-29T08:47:03Z</time>
      </trkpt>
      <trkpt lat="48.10024" lon="3.36178">
        <ele>168.37</ele>
        <time>2015-11-29T08:47:15Z</time>
      </trkpt>
      <trkpt lat="48.10037" lon="3.3617">
        <ele>163.08</ele>
        <time>2015-11-29T08:48:49Z</time>
      </trkpt>
      <trkpt lat="48.10037" lon="3.36171">
        <ele>169.33</ele>
        <time>2015-11-29T08:51:41Z</time>
      </trkpt>
      <trkpt lat="48.10058" lon="3.36182">
        <ele>170.29</ele>
        <time>2015-11-29T08:52:10Z</time>
      </trkpt>
      <trkpt lat="48.10078" lon="3.362">
        <ele>170.77</ele>
        <time>2015-11-29T08:52:20Z</time>
      </trkpt>
      <trkpt lat="48.10112" lon="3.36216">
        <ele>171.73</ele>
        <time>2015-11-29T08:52:41Z</time>
      </trkpt>
      <trkpt lat="48.10134" lon="3.36236">
        <ele>169.81</ele>
        <time>2015-11-29T08:52:57Z</time>
      </trkpt>
      <trkpt lat="48.10169" lon="3.36265">
        <ele>169.33</ele>
        <time>2015-11-29T08:53:19Z</time>
      </trkpt>
      <trkpt lat="48.10199" lon="3.36293">
        <ele>169.33</ele>
        <time>2015-11-29T08:53:29Z</time>
      </trkpt>
      <trkpt lat="48.10224" lon="3.36315">
        <ele>168.85</ele>
        <time>2015-11-29T08:53:39Z</time>
      </trkpt>
      <trkpt lat="48.10246" lon="3.36331">
        <ele>168.37</ele>
        <time>2015-11-29T08:53:49Z</time>
      </trkpt>
      <trkpt lat="48.10266" lon="3.36346">
        <ele>168.85</ele>
        <time>2015-11-29T08:54:00Z</time>
      </trkpt>
      <trkpt lat="48.10297" lon="3.36364">
        <ele>169.33</ele>
        <time>2015-11-29T08:54:12Z</time>
      </trkpt>
      <trkpt lat="48.10324" lon="3.3638">
        <ele>169.81</ele>
        <time>2015-11-29T08:54:25Z</time>
      </trkpt>
      <trkpt lat="48.10339" lon="3.36355">
        <ele>171.73</ele>
        <time>2015-11-29T08:54:42Z</time>
      </trkpt>
      <trkpt lat="48.10367" lon="3.36357">
        <ele>174.62</ele>
        <time>2015-11-29T08:55:02Z</time>
      </trkpt>
      <trkpt lat="48.10389" lon="3.36359">
        <ele>175.58</ele>
        <time>2015-11-29T08:55:14Z</time>
      </trkpt>
      <trkpt lat="48.10417" lon="3.36364">
        <ele>176.54</ele>
        <time>2015-11-29T08:55:26Z</time>
      </trkpt>
      <trkpt lat="48.10449" lon="3.36364">
        <ele>177.98</ele>
        <time>2015-11-29T08:55:38Z</time>
      </trkpt>
      <trkpt lat="48.10475" lon="3.36364">
        <ele>177.5</ele>
        <time>2015-11-29T08:55:47Z</time>
      </trkpt>
      <trkpt lat="48.10503" lon="3.36365">
        <ele>177.98</ele>
        <time>2015-11-29T08:55:57Z</time>
      </trkpt>
      <trkpt lat="48.10533" lon="3.36364">
        <ele>177.98</ele>
        <time>2015-11-29T08:56:10Z</time>
      </trkpt>
      <trkpt lat="48.10559" lon="3.36363">
        <ele>178.94</ele>
        <time>2015-11-29T08:56:23Z</time>
      </trkpt>
      <trkpt lat="48.10589" lon="3.36362">
        <ele>180.38</ele>
        <time>2015-11-29T08:56:35Z</time>
      </trkpt>
      <trkpt lat="48.10616" lon="3.36362">
        <ele>181.35</ele>
        <time>2015-11-29T08:56:46Z</time>
      </trkpt>
      <trkpt lat="48.10642" lon="3.3636">
        <ele>182.31</ele>
        <time>2015-11-29T08:56:57Z</time>
      </trkpt>
      <trkpt lat="48.1067" lon="3.36357">
        <ele>181.83</ele>
        <time>2015-11-29T08:57:10Z</time>
      </trkpt>
      <trkpt lat="48.10698" lon="3.36352">
        <ele>180.38</ele>
        <time>2015-11-29T08:57:30Z</time>
      </trkpt>
      <trkpt lat="48.10727" lon="3.36351">
        <ele>178.46</ele>
        <time>2015-11-29T08:57:40Z</time>
      </trkpt>
      <trkpt lat="48.10749" lon="3.36347">
        <ele>175.1</ele>
        <time>2015-11-29T08:57:47Z</time>
      </trkpt>
      <trkpt lat="48.10773" lon="3.36346">
        <ele>170.77</ele>
        <time>2015-11-29T08:57:56Z</time>
      </trkpt>
      <trkpt lat="48.10803" lon="3.3634">
        <ele>164.52</ele>
        <time>2015-11-29T08:58:25Z</time>
      </trkpt>
      <trkpt lat="48.10807" lon="3.363">
        <ele>166.93</ele>
        <time>2015-11-29T08:58:45Z</time>
      </trkpt>
      <trkpt lat="48.10824" lon="3.36278">
        <ele>170.29</ele>
        <time>2015-11-29T08:59:17Z</time>
      </trkpt>
      <trkpt lat="48.10828" lon="3.36242">
        <ele>172.69</ele>
        <time>2015-11-29T08:59:39Z</time>
      </trkpt>
      <trkpt lat="48.10829" lon="3.36198">
        <ele>177.98</ele>
        <time>2015-11-29T09:00:02Z</time>
      </trkpt>
      <trkpt lat="48.10829" lon="3.36151">
        <ele>184.71</ele>
        <time>2015-11-29T09:00:27Z</time>
      </trkpt>
      <trkpt lat="48.1083" lon="3.36108">
        <ele>189.52</ele>
        <time>2015-11-29T09:00:49Z</time>
      </trkpt>
      <trkpt lat="48.10832" lon="3.36062">
        <ele>191.44</ele>
        <time>2015-11-29T09:01:10Z</time>
      </trkpt>
      <trkpt lat="48.10832" lon="3.36023">
        <ele>192.88</ele>
        <time>2015-11-29T09:01:23Z</time>
      </trkpt>
      <trkpt lat="48.10833" lon="3.35984">
        <ele>194.32</ele>
        <time>2015-11-29T09:01:36Z</time>
      </trkpt>
      <trkpt lat="48.10835" lon="3.35943">
        <ele>195.77</ele>
        <time>2015-11-29T09:01:48Z</time>
      </trkpt>
      <trkpt lat="48.10835" lon="3.35906">
        <ele>196.73</ele>
        <time>2015-11-29T09:01:59Z</time>
      </trkpt>
      <trkpt lat="48.10836" lon="3.35868">
        <ele>197.21</ele>
        <time>2015-11-29T09:02:11Z</time>
      </trkpt>
      <trkpt lat="48.10839" lon="3.35827">
        <ele>198.17</ele>
        <time>2015-11-29T09:04:39Z</time>
      </trkpt>
      <trkpt lat="48.10838" lon="3.35792">
        <ele>196.73</ele>
        <time>2015-11-29T09:05:02Z</time>
      </trkpt>
      <trkpt lat="48.10857" lon="3.35788">
        <ele>198.65</ele>
        <time>2015-11-29T09:05:10Z</time>
      </trkpt>
      <trkpt lat="48.10878" lon="3.35787">
        <ele>198.65</ele>
        <time>2015-11-29T09:05:18Z</time>
      </trkpt>
      <trkpt lat="48.10892" lon="3.35805">
        <ele>198.65</ele>
        <time>2015-11-29T09:05:28Z</time>
      </trkpt>
      <trkpt lat="48.10906" lon="3.35826">
        <ele>198.65</ele>
        <time>2015-11-29T09:05:38Z</time>
      </trkpt>
      <trkpt lat="48.1092" lon="3.35844">
        <ele>199.61</ele>
        <time>2015-11-29T09:05:45Z</time>
      </trkpt>
      <trkpt lat="48.10935" lon="3.35864">
        <ele>198.65</ele>
        <time>2015-11-29T09:05:52Z</time>
      </trkpt>
      <trkpt lat="48.1095" lon="3.35882">
        <ele>198.65</ele>
        <time>2015-11-29T09:05:58Z</time>
      </trkpt>
      <trkpt lat="48.10967" lon="3.35895">
        <ele>198.65</ele>
        <time>2015-11-29T09:06:04Z</time>
      </trkpt>
      <trkpt lat="48.10987" lon="3.35896">
        <ele>199.13</ele>
        <time>2015-11-29T09:06:10Z</time>
      </trkpt>
      <trkpt lat="48.11007" lon="3.35892">
        <ele>200.09</ele>
        <time>2015-11-29T09:06:16Z</time>
      </trkpt>
      <trkpt lat="48.11026" lon="3.35889">
        <ele>200.09</ele>
        <time>2015-11-29T09:06:22Z</time>
      </trkpt>
      <trkpt lat="48.11043" lon="3.35902">
        <ele>200.09</ele>
        <time>2015-11-29T09:06:28Z</time>
      </trkpt>
      <trkpt lat="48.1105" lon="3.3593">
        <ele>200.09</ele>
        <time>2015-11-29T09:06:34Z</time>
      </trkpt>
      <trkpt lat="48.11069" lon="3.35926">
        <ele>200.09</ele>
        <time>2015-11-29T09:06:41Z</time>
      </trkpt>
      <trkpt lat="48.11084" lon="3.35907">
        <ele>201.05</ele>
        <time>2015-11-29T09:06:47Z</time>
      </trkpt>
      <trkpt lat="48.11099" lon="3.35887">
        <ele>201.53</ele>
        <time>2015-11-29T09:06:53Z</time>
      </trkpt>
      <trkpt lat="48.11114" lon="3.35867">
        <ele>202.49</ele>
        <time>2015-11-29T09:06:59Z</time>
      </trkpt>
      <trkpt lat="48.11128" lon="3.35848">
        <ele>203.46</ele>
        <time>2015-11-29T09:07:05Z</time>
      </trkpt>
      <trkpt lat="48.11143" lon="3.3583">
        <ele>204.42</ele>
        <time>2015-11-29T09:07:11Z</time>
      </trkpt>
      <trkpt lat="48.11158" lon="3.35811">
        <ele>206.34</ele>
        <time>2015-11-29T09:07:17Z</time>
      </trkpt>
      <trkpt lat="48.11172" lon="3.35793">
        <ele>205.86</ele>
        <time>2015-11-29T09:07:23Z</time>
      </trkpt>
      <trkpt lat="48.11188" lon="3.35799">
        <ele>205.86</ele>
        <time>2015-11-29T09:07:29Z</time>
      </trkpt>
      <trkpt lat="48.11207" lon="3.35804">
        <ele>205.86</ele>
        <time>2015-11-29T09:07:36Z</time>
      </trkpt>
      <trkpt lat="48.11226" lon="3.35801">
        <ele>206.34</ele>
        <time>2015-11-29T09:07:42Z</time>
      </trkpt>
      <trkpt lat="48.11245" lon="3.35797">
        <ele>207.3</ele>
        <time>2015-11-29T09:07:48Z</time>
      </trkpt>
      <trkpt lat="48.11265" lon="3.35794">
        <ele>207.78</ele>
        <time>2015-11-29T09:07:55Z</time>
      </trkpt>
      <trkpt lat="48.11284" lon="3.3579">
        <ele>208.26</ele>
        <time>2015-11-29T09:08:01Z</time>
      </trkpt>
      <trkpt lat="48.11304" lon="3.35787">
        <ele>207.3</ele>
        <time>2015-11-29T09:08:07Z</time>
      </trkpt>
      <trkpt lat="48.11325" lon="3.35784">
        <ele>207.3</ele>
        <time>2015-11-29T09:08:13Z</time>
      </trkpt>
      <trkpt lat="48.11344" lon="3.35781">
        <ele>206.82</ele>
        <time>2015-11-29T09:08:18Z</time>
      </trkpt>
      <trkpt lat="48.11365" lon="3.35778">
        <ele>205.86</ele>
        <time>2015-11-29T09:08:23Z</time>
      </trkpt>
      <trkpt lat="48.11385" lon="3.35775">
        <ele>204.9</ele>
        <time>2015-11-29T09:08:28Z</time>
      </trkpt>
      <trkpt lat="48.11407" lon="3.35771">
        <ele>203.46</ele>
        <time>2015-11-29T09:08:33Z</time>
      </trkpt>
      <trkpt lat="48.1143" lon="3.35765">
        <ele>202.01</ele>
        <time>2015-11-29T09:08:38Z</time>
      </trkpt>
      <trkpt lat="48.11449" lon="3.3576">
        <ele>201.05</ele>
        <time>2015-11-29T09:08:42Z</time>
      </trkpt>
      <trkpt lat="48.1147" lon="3.35757">
        <ele>199.61</ele>
        <time>2015-11-29T09:08:46Z</time>
      </trkpt>
      <trkpt lat="48.11492" lon="3.35753">
        <ele>198.17</ele>
        <time>2015-11-29T09:08:50Z</time>
      </trkpt>
      <trkpt lat="48.11516" lon="3.35749">
        <ele>196.73</ele>
        <time>2015-11-29T09:08:54Z</time>
      </trkpt>
      <trkpt lat="48.11539" lon="3.35745">
        <ele>195.77</ele>
        <time>2015-11-29T09:08:58Z</time>
      </trkpt>
      <trkpt lat="48.1156" lon="3.35741">
        <ele>195.77</ele>
        <time>2015-11-29T09:09:02Z</time>
      </trkpt>
      <trkpt lat="48.11583" lon="3.35738">
        <ele>195.28</ele>
        <time>2015-11-29T09:09:06Z</time>
      </trkpt>
      <trkpt lat="48.11605" lon="3.35734">
        <ele>195.77</ele>
        <time>2015-11-29T09:09:10Z</time>
      </trkpt>
      <trkpt lat="48.11625" lon="3.3573">
        <ele>195.77</ele>
        <time>2015-11-29T09:09:14Z</time>
      </trkpt>
      <trkpt lat="48.11643" lon="3.35727">
        <ele>197.21</ele>
        <time>2015-11-29T09:09:18Z</time>
      </trkpt>
      <trkpt lat="48.11664" lon="3.35722">
        <ele>197.69</ele>
        <time>2015-11-29T09:09:23Z</time>
      </trkpt>
      <trkpt lat="48.11682" lon="3.35719">
        <ele>197.69</ele>
        <time>2015-11-29T09:09:28Z</time>
      </trkpt>
      <trkpt lat="48.11699" lon="3.3573">
        <ele>199.13</ele>
        <time>2015-11-29T09:09:34Z</time>
      </trkpt>
      <trkpt lat="48.1172" lon="3.35736">
        <ele>198.17</ele>
        <time>2015-11-29T09:09:41Z</time>
      </trkpt>
      <trkpt lat="48.11737" lon="3.35733">
        <ele>199.13</ele>
        <time>2015-11-29T09:09:47Z</time>
      </trkpt>
      <trkpt lat="48.11755" lon="3.35725">
        <ele>198.65</ele>
        <time>2015-11-29T09:09:53Z</time>
      </trkpt>
      <trkpt lat="48.11775" lon="3.35718">
        <ele>198.65</ele>
        <time>2015-11-29T09:10:00Z</time>
      </trkpt>
      <trkpt lat="48.11793" lon="3.35713">
        <ele>198.65</ele>
        <time>2015-11-29T09:10:07Z</time>
      </trkpt>
      <trkpt lat="48.11814" lon="3.35716">
        <ele>197.69</ele>
        <time>2015-11-29T09:10:15Z</time>
      </trkpt>
      <trkpt lat="48.11832" lon="3.35723">
        <ele>197.69</ele>
        <time>2015-11-29T09:10:21Z</time>
      </trkpt>
      <trkpt lat="48.11851" lon="3.35726">
        <ele>196.25</ele>
        <time>2015-11-29T09:10:27Z</time>
      </trkpt>
      <trkpt lat="48.11869" lon="3.35728">
        <ele>195.28</ele>
        <time>2015-11-29T09:10:32Z</time>
      </trkpt>
      <trkpt lat="48.1189" lon="3.3573">
        <ele>194.32</ele>
        <time>2015-11-29T09:10:38Z</time>
      </trkpt>
      <trkpt lat="48.11909" lon="3.35732">
        <ele>193.36</ele>
        <time>2015-11-29T09:10:43Z</time>
      </trkpt>
      <trkpt lat="48.11924" lon="3.35745">
        <ele>191.92</ele>
        <time>2015-11-29T09:10:48Z</time>
      </trkpt>
      <trkpt lat="48.11921" lon="3.35775">
        <ele>191.44</ele>
        <time>2015-11-29T09:10:54Z</time>
      </trkpt>
      <trkpt lat="48.11918" lon="3.35806">
        <ele>192.88</ele>
        <time>2015-11-29T09:11:00Z</time>
      </trkpt>
      <trkpt lat="48.11922" lon="3.35836">
        <ele>192.88</ele>
        <time>2015-11-29T09:11:08Z</time>
      </trkpt>
      <trkpt lat="48.11945" lon="3.35838">
        <ele>189.04</ele>
        <time>2015-11-29T09:11:13Z</time>
      </trkpt>
      <trkpt lat="48.11968" lon="3.35836">
        <ele>188.08</ele>
        <time>2015-11-29T09:11:17Z</time>
      </trkpt>
      <trkpt lat="48.11991" lon="3.35833">
        <ele>185.67</ele>
        <time>2015-11-29T09:11:21Z</time>
      </trkpt>
      <trkpt lat="48.12011" lon="3.3583">
        <ele>183.75</ele>
        <time>2015-11-29T09:11:24Z</time>
      </trkpt>
      <trkpt lat="48.12032" lon="3.35828">
        <ele>182.31</ele>
        <time>2015-11-29T09:11:27Z</time>
      </trkpt>
      <trkpt lat="48.12054" lon="3.35824">
        <ele>180.38</ele>
        <time>2015-11-29T09:11:30Z</time>
      </trkpt>
      <trkpt lat="48.12077" lon="3.35821">
        <ele>178.94</ele>
        <time>2015-11-29T09:11:33Z</time>
      </trkpt>
      <trkpt lat="48.12097" lon="3.35818">
        <ele>177.5</ele>
        <time>2015-11-29T09:11:36Z</time>
      </trkpt>
      <trkpt lat="48.12108" lon="3.35836">
        <ele>177.5</ele>
        <time>2015-11-29T09:11:42Z</time>
      </trkpt>
      <trkpt lat="48.12111" lon="3.35868">
        <ele>177.98</ele>
        <time>2015-11-29T09:11:48Z</time>
      </trkpt>
      <trkpt lat="48.12117" lon="3.35907">
        <ele>178.94</ele>
        <time>2015-11-29T09:11:54Z</time>
      </trkpt>
      <trkpt lat="48.1212" lon="3.35941">
        <ele>177.02</ele>
        <time>2015-11-29T09:11:59Z</time>
      </trkpt>
      <trkpt lat="48.12122" lon="3.35974">
        <ele>175.58</ele>
        <time>2015-11-29T09:12:04Z</time>
      </trkpt>
      <trkpt lat="48.12125" lon="3.36008">
        <ele>173.66</ele>
        <time>2015-11-29T09:12:08Z</time>
      </trkpt>
      <trkpt lat="48.1213" lon="3.36043">
        <ele>171.25</ele>
        <time>2015-11-29T09:12:12Z</time>
      </trkpt>
      <trkpt lat="48.12134" lon="3.36075">
        <ele>168.37</ele>
        <time>2015-11-29T09:12:15Z</time>
      </trkpt>
      <trkpt lat="48.12135" lon="3.36111">
        <ele>166.93</ele>
        <time>2015-11-29T09:12:18Z</time>
      </trkpt>
      <trkpt lat="48.12133" lon="3.36147">
        <ele>165.96</ele>
        <time>2015-11-29T09:12:22Z</time>
      </trkpt>
      <trkpt lat="48.12126" lon="3.36186">
        <ele>167.41</ele>
        <time>2015-11-29T09:12:30Z</time>
      </trkpt>
      <trkpt lat="48.12125" lon="3.36223">
        <ele>165.48</ele>
        <time>2015-11-29T09:12:35Z</time>
      </trkpt>
      <trkpt lat="48.12124" lon="3.36259">
        <ele>163.56</ele>
        <time>2015-11-29T09:12:39Z</time>
      </trkpt>
      <trkpt lat="48.12122" lon="3.36299">
        <ele>162.12</ele>
        <time>2015-11-29T09:12:48Z</time>
      </trkpt>
      <trkpt lat="48.12124" lon="3.3634">
        <ele>165</ele>
        <time>2015-11-29T09:13:02Z</time>
      </trkpt>
      <trkpt lat="48.12124" lon="3.36376">
        <ele>170.29</ele>
        <time>2015-11-29T09:13:16Z</time>
      </trkpt>
      <trkpt lat="48.12127" lon="3.36417">
        <ele>174.14</ele>
        <time>2015-11-29T09:13:30Z</time>
      </trkpt>
      <trkpt lat="48.12128" lon="3.36463">
        <ele>177.98</ele>
        <time>2015-11-29T09:13:44Z</time>
      </trkpt>
      <trkpt lat="48.12128" lon="3.36512">
        <ele>181.35</ele>
        <time>2015-11-29T09:14:00Z</time>
      </trkpt>
      <trkpt lat="48.12123" lon="3.36563">
        <ele>182.31</ele>
        <time>2015-11-29T09:14:20Z</time>
      </trkpt>
      <trkpt lat="48.12125" lon="3.36618">
        <ele>183.27</ele>
        <time>2015-11-29T09:14:52Z</time>
      </trkpt>
      <trkpt lat="48.12127" lon="3.36659">
        <ele>181.83</ele>
        <time>2015-11-29T09:15:48Z</time>
      </trkpt>
      <trkpt lat="48.12127" lon="3.36693">
        <ele>180.38</ele>
        <time>2015-11-29T09:15:55Z</time>
      </trkpt>
      <trkpt lat="48.12127" lon="3.36728">
        <ele>177.98</ele>
        <time>2015-11-29T09:16:00Z</time>
      </trkpt>
      <trkpt lat="48.12125" lon="3.36759">
        <ele>176.06</ele>
        <time>2015-11-29T09:16:05Z</time>
      </trkpt>
      <trkpt lat="48.12115" lon="3.36782">
        <ele>175.1</ele>
        <time>2015-11-29T09:16:14Z</time>
      </trkpt>
      <trkpt lat="48.12095" lon="3.36796">
        <ele>177.02</ele>
        <time>2015-11-29T09:16:24Z</time>
      </trkpt>
      <trkpt lat="48.12075" lon="3.36816">
        <ele>178.94</ele>
        <time>2015-11-29T09:16:38Z</time>
      </trkpt>
      <trkpt lat="48.12051" lon="3.36829">
        <ele>180.38</ele>
        <time>2015-11-29T09:16:49Z</time>
      </trkpt>
      <trkpt lat="48.12029" lon="3.36838">
        <ele>182.79</ele>
        <time>2015-11-29T09:17:01Z</time>
      </trkpt>
      <trkpt lat="48.12017" lon="3.36857">
        <ele>183.27</ele>
        <time>2015-11-29T09:17:34Z</time>
      </trkpt>
      <trkpt lat="48.12024" lon="3.36885">
        <ele>181.35</ele>
        <time>2015-11-29T09:17:41Z</time>
      </trkpt>
      <trkpt lat="48.12032" lon="3.36914">
        <ele>179.9</ele>
        <time>2015-11-29T09:17:46Z</time>
      </trkpt>
      <trkpt lat="48.12038" lon="3.36945">
        <ele>177.98</ele>
        <time>2015-11-29T09:17:52Z</time>
      </trkpt>
      <trkpt lat="48.12046" lon="3.36976">
        <ele>177.5</ele>
        <time>2015-11-29T09:18:02Z</time>
      </trkpt>
      <trkpt lat="48.12053" lon="3.37015">
        <ele>174.62</ele>
        <time>2015-11-29T09:18:16Z</time>
      </trkpt>
      <trkpt lat="48.12065" lon="3.37061">
        <ele>176.54</ele>
        <time>2015-11-29T09:18:28Z</time>
      </trkpt>
      <trkpt lat="48.12071" lon="3.37103">
        <ele>178.94</ele>
        <time>2015-11-29T09:18:38Z</time>
      </trkpt>
      <trkpt lat="48.12079" lon="3.37138">
        <ele>178.94</ele>
        <time>2015-11-29T09:18:46Z</time>
      </trkpt>
      <trkpt lat="48.12086" lon="3.37171">
        <ele>178.94</ele>
        <time>2015-11-29T09:18:54Z</time>
      </trkpt>
      <trkpt lat="48.12094" lon="3.37202">
        <ele>180.38</ele>
        <time>2015-11-29T09:19:02Z</time>
      </trkpt>
      <trkpt lat="48.12101" lon="3.37236">
        <ele>182.31</ele>
        <time>2015-11-29T09:19:13Z</time>
      </trkpt>
      <trkpt lat="48.12115" lon="3.37259">
        <ele>182.79</ele>
        <time>2015-11-29T09:19:24Z</time>
      </trkpt>
      <trkpt lat="48.12138" lon="3.3725">
        <ele>187.59</ele>
        <time>2015-11-29T09:19:35Z</time>
      </trkpt>
      <trkpt lat="48.12164" lon="3.37237">
        <ele>189.52</ele>
        <time>2015-11-29T09:19:49Z</time>
      </trkpt>
      <trkpt lat="48.12187" lon="3.37224">
        <ele>190.96</ele>
        <time>2015-11-29T09:20:00Z</time>
      </trkpt>
      <trkpt lat="48.12212" lon="3.37214">
        <ele>194.32</ele>
        <time>2015-11-29T09:20:17Z</time>
      </trkpt>
      <trkpt lat="48.12241" lon="3.372">
        <ele>193.84</ele>
        <time>2015-11-29T09:20:45Z</time>
      </trkpt>
      <trkpt lat="48.12261" lon="3.37191">
        <ele>196.25</ele>
        <time>2015-11-29T09:20:54Z</time>
      </trkpt>
      <trkpt lat="48.12283" lon="3.37181">
        <ele>195.28</ele>
        <time>2015-11-29T09:21:05Z</time>
      </trkpt>
      <trkpt lat="48.12305" lon="3.37167">
        <ele>195.77</ele>
        <time>2015-11-29T09:21:16Z</time>
      </trkpt>
      <trkpt lat="48.12327" lon="3.37155">
        <ele>195.77</ele>
        <time>2015-11-29T09:21:26Z</time>
      </trkpt>
      <trkpt lat="48.12353" lon="3.37161">
        <ele>195.77</ele>
        <time>2015-11-29T09:21:57Z</time>
      </trkpt>
      <trkpt lat="48.1237" lon="3.37201">
        <ele>198.65</ele>
        <time>2015-11-29T09:26:27Z</time>
      </trkpt>
      <trkpt lat="48.12377" lon="3.37239">
        <ele>198.65</ele>
        <time>2015-11-29T09:26:40Z</time>
      </trkpt>
      <trkpt lat="48.12391" lon="3.37302">
        <ele>199.13</ele>
        <time>2015-11-29T09:26:57Z</time>
      </trkpt>
      <trkpt lat="48.12399" lon="3.37335">
        <ele>199.13</ele>
        <time>2015-11-29T09:27:04Z</time>
      </trkpt>
      <trkpt lat="48.12409" lon="3.37366">
        <ele>199.61</ele>
        <time>2015-11-29T09:27:11Z</time>
      </trkpt>
      <trkpt lat="48.12414" lon="3.37402">
        <ele>200.09</ele>
        <time>2015-11-29T09:27:19Z</time>
      </trkpt>
      <trkpt lat="48.1242" lon="3.37434">
        <ele>200.57</ele>
        <time>2015-11-29T09:27:26Z</time>
      </trkpt>
      <trkpt lat="48.12429" lon="3.37465">
        <ele>200.57</ele>
        <time>2015-11-29T09:27:33Z</time>
      </trkpt>
      <trkpt lat="48.12437" lon="3.375">
        <ele>201.53</ele>
        <time>2015-11-29T09:27:43Z</time>
      </trkpt>
      <trkpt lat="48.12448" lon="3.3754">
        <ele>202.01</ele>
        <time>2015-11-29T09:27:54Z</time>
      </trkpt>
      <trkpt lat="48.12447" lon="3.37577">
        <ele>202.49</ele>
        <time>2015-11-29T09:28:05Z</time>
      </trkpt>
      <trkpt lat="48.12435" lon="3.37608">
        <ele>204.42</ele>
        <time>2015-11-29T09:28:15Z</time>
      </trkpt>
      <trkpt lat="48.12441" lon="3.37644">
        <ele>205.38</ele>
        <time>2015-11-29T09:28:26Z</time>
      </trkpt>
      <trkpt lat="48.1245" lon="3.37688">
        <ele>204.9</ele>
        <time>2015-11-29T09:28:38Z</time>
      </trkpt>
      <trkpt lat="48.12456" lon="3.37732">
        <ele>204.9</ele>
        <time>2015-11-29T09:28:50Z</time>
      </trkpt>
      <trkpt lat="48.12469" lon="3.37781">
        <ele>205.86</ele>
        <time>2015-11-29T09:29:01Z</time>
      </trkpt>
      <trkpt lat="48.12482" lon="3.37826">
        <ele>205.86</ele>
        <time>2015-11-29T09:29:09Z</time>
      </trkpt>
      <trkpt lat="48.12491" lon="3.37865">
        <ele>205.86</ele>
        <time>2015-11-29T09:29:18Z</time>
      </trkpt>
      <trkpt lat="48.12498" lon="3.37906">
        <ele>205.86</ele>
        <time>2015-11-29T09:29:28Z</time>
      </trkpt>
      <trkpt lat="48.12504" lon="3.37943">
        <ele>206.82</ele>
        <time>2015-11-29T09:29:36Z</time>
      </trkpt>
      <trkpt lat="48.12509" lon="3.37977">
        <ele>207.3</ele>
        <time>2015-11-29T09:29:45Z</time>
      </trkpt>
      <trkpt lat="48.1252" lon="3.3802">
        <ele>206.82</ele>
        <time>2015-11-29T09:29:55Z</time>
      </trkpt>
      <trkpt lat="48.12545" lon="3.38022">
        <ele>205.38</ele>
        <time>2015-11-29T09:30:02Z</time>
      </trkpt>
      <trkpt lat="48.12566" lon="3.38013">
        <ele>204.42</ele>
        <time>2015-11-29T09:30:09Z</time>
      </trkpt>
      <trkpt lat="48.12587" lon="3.38003">
        <ele>202.98</ele>
        <time>2015-11-29T09:30:15Z</time>
      </trkpt>
      <trkpt lat="48.12612" lon="3.37983">
        <ele>201.05</ele>
        <time>2015-11-29T09:30:26Z</time>
      </trkpt>
      <trkpt lat="48.12633" lon="3.37973">
        <ele>201.05</ele>
        <time>2015-11-29T09:30:32Z</time>
      </trkpt>
      <trkpt lat="48.12631" lon="3.37981">
        <ele>201.05</ele>
        <time>2015-11-29T09:30:53Z</time>
      </trkpt>
      <trkpt lat="48.12632" lon="3.38016">
        <ele>201.53</ele>
        <time>2015-11-29T09:31:07Z</time>
      </trkpt>
      <trkpt lat="48.12638" lon="3.38052">
        <ele>201.05</ele>
        <time>2015-11-29T09:31:18Z</time>
      </trkpt>
      <trkpt lat="48.12651" lon="3.38088">
        <ele>200.57</ele>
        <time>2015-11-29T09:31:24Z</time>
      </trkpt>
      <trkpt lat="48.12662" lon="3.38123">
        <ele>199.61</ele>
        <time>2015-11-29T09:31:29Z</time>
      </trkpt>
      <trkpt lat="48.12671" lon="3.38157">
        <ele>198.17</ele>
        <time>2015-11-29T09:31:35Z</time>
      </trkpt>
      <trkpt lat="48.12681" lon="3.38187">
        <ele>196.25</ele>
        <time>2015-11-29T09:31:40Z</time>
      </trkpt>
      <trkpt lat="48.12689" lon="3.38218">
        <ele>193.84</ele>
        <time>2015-11-29T09:31:44Z</time>
      </trkpt>
      <trkpt lat="48.12699" lon="3.38249">
        <ele>190.48</ele>
        <time>2015-11-29T09:31:48Z</time>
      </trkpt>
      <trkpt lat="48.12709" lon="3.38284">
        <ele>187.59</ele>
        <time>2015-11-29T09:31:52Z</time>
      </trkpt>
      <trkpt lat="48.12717" lon="3.38311">
        <ele>185.19</ele>
        <time>2015-11-29T09:31:55Z</time>
      </trkpt>
      <trkpt lat="48.12732" lon="3.38334">
        <ele>183.27</ele>
        <time>2015-11-29T09:32:11Z</time>
      </trkpt>
      <trkpt lat="48.12756" lon="3.38329">
        <ele>180.87</ele>
        <time>2015-11-29T09:32:22Z</time>
      </trkpt>
      <trkpt lat="48.12776" lon="3.3832">
        <ele>180.87</ele>
        <time>2015-11-29T09:32:29Z</time>
      </trkpt>
      <trkpt lat="48.12805" lon="3.38302">
        <ele>180.38</ele>
        <time>2015-11-29T09:32:48Z</time>
      </trkpt>
      <trkpt lat="48.12846" lon="3.38274">
        <ele>177.02</ele>
        <time>2015-11-29T09:33:05Z</time>
      </trkpt>
      <trkpt lat="48.1289" lon="3.38263">
        <ele>176.06</ele>
        <time>2015-11-29T09:33:17Z</time>
      </trkpt>
      <trkpt lat="48.12914" lon="3.38235">
        <ele>176.06</ele>
        <time>2015-11-29T09:33:38Z</time>
      </trkpt>
      <trkpt lat="48.12931" lon="3.38214">
        <ele>174.14</ele>
        <time>2015-11-29T09:33:46Z</time>
      </trkpt>
      <trkpt lat="48.12948" lon="3.38193">
        <ele>173.17</ele>
        <time>2015-11-29T09:33:52Z</time>
      </trkpt>
      <trkpt lat="48.12965" lon="3.38173">
        <ele>171.73</ele>
        <time>2015-11-29T09:33:57Z</time>
      </trkpt>
      <trkpt lat="48.12983" lon="3.38148">
        <ele>169.81</ele>
        <time>2015-11-29T09:34:02Z</time>
      </trkpt>
      <trkpt lat="48.12998" lon="3.38125">
        <ele>169.81</ele>
        <time>2015-11-29T09:34:07Z</time>
      </trkpt>
      <trkpt lat="48.13014" lon="3.38104">
        <ele>169.33</ele>
        <time>2015-11-29T09:34:12Z</time>
      </trkpt>
      <trkpt lat="48.13031" lon="3.38083">
        <ele>167.89</ele>
        <time>2015-11-29T09:34:17Z</time>
      </trkpt>
      <trkpt lat="48.13047" lon="3.38064">
        <ele>167.41</ele>
        <time>2015-11-29T09:34:21Z</time>
      </trkpt>
      <trkpt lat="48.13063" lon="3.38046">
        <ele>166.93</ele>
        <time>2015-11-29T09:34:25Z</time>
      </trkpt>
      <trkpt lat="48.1308" lon="3.38022">
        <ele>165.96</ele>
        <time>2015-11-29T09:34:30Z</time>
      </trkpt>
      <trkpt lat="48.13097" lon="3.37998">
        <ele>165.96</ele>
        <time>2015-11-29T09:34:35Z</time>
      </trkpt>
      <trkpt lat="48.13114" lon="3.37974">
        <ele>165.96</ele>
        <time>2015-11-29T09:34:40Z</time>
      </trkpt>
      <trkpt lat="48.13133" lon="3.37967">
        <ele>164.04</ele>
        <time>2015-11-29T09:34:52Z</time>
      </trkpt>
      <trkpt lat="48.13148" lon="3.37995">
        <ele>162.6</ele>
        <time>2015-11-29T09:34:58Z</time>
      </trkpt>
      <trkpt lat="48.13159" lon="3.3802">
        <ele>162.12</ele>
        <time>2015-11-29T09:35:04Z</time>
      </trkpt>
      <trkpt lat="48.13175" lon="3.38055">
        <ele>164.04</ele>
        <time>2015-11-29T09:35:15Z</time>
      </trkpt>
      <trkpt lat="48.1318" lon="3.38092">
        <ele>164.04</ele>
        <time>2015-11-29T09:35:26Z</time>
      </trkpt>
      <trkpt lat="48.1319" lon="3.38145">
        <ele>164.52</ele>
        <time>2015-11-29T09:35:42Z</time>
      </trkpt>
      <trkpt lat="48.13207" lon="3.38202">
        <ele>165.48</ele>
        <time>2015-11-29T09:35:56Z</time>
      </trkpt>
      <trkpt lat="48.13224" lon="3.38249">
        <ele>166.45</ele>
        <time>2015-11-29T09:36:03Z</time>
      </trkpt>
      <trkpt lat="48.13238" lon="3.38291">
        <ele>165.96</ele>
        <time>2015-11-29T09:36:10Z</time>
      </trkpt>
      <trkpt lat="48.13247" lon="3.38324">
        <ele>166.45</ele>
        <time>2015-11-29T09:36:18Z</time>
      </trkpt>
      <trkpt lat="48.1326" lon="3.38352">
        <ele>167.41</ele>
        <time>2015-11-29T09:36:26Z</time>
      </trkpt>
      <trkpt lat="48.13282" lon="3.38352">
        <ele>168.37</ele>
        <time>2015-11-29T09:36:35Z</time>
      </trkpt>
      <trkpt lat="48.13303" lon="3.38341">
        <ele>169.81</ele>
        <time>2015-11-29T09:36:45Z</time>
      </trkpt>
      <trkpt lat="48.13326" lon="3.38327">
        <ele>171.73</ele>
        <time>2015-11-29T09:36:57Z</time>
      </trkpt>
      <trkpt lat="48.13353" lon="3.38324">
        <ele>176.54</ele>
        <time>2015-11-29T09:37:13Z</time>
      </trkpt>
      <trkpt lat="48.13383" lon="3.3833">
        <ele>180.38</ele>
        <time>2015-11-29T09:37:31Z</time>
      </trkpt>
      <trkpt lat="48.13411" lon="3.38327">
        <ele>185.67</ele>
        <time>2015-11-29T09:37:54Z</time>
      </trkpt>
      <trkpt lat="48.13419" lon="3.38285">
        <ele>190</ele>
        <time>2015-11-29T09:38:15Z</time>
      </trkpt>
      <trkpt lat="48.13433" lon="3.38239">
        <ele>192.4</ele>
        <time>2015-11-29T09:38:34Z</time>
      </trkpt>
      <trkpt lat="48.13453" lon="3.38202">
        <ele>196.73</ele>
        <time>2015-11-29T09:38:53Z</time>
      </trkpt>
      <trkpt lat="48.13477" lon="3.38169">
        <ele>200.57</ele>
        <time>2015-11-29T09:39:12Z</time>
      </trkpt>
      <trkpt lat="48.13507" lon="3.38176">
        <ele>202.98</ele>
        <time>2015-11-29T09:39:29Z</time>
      </trkpt>
      <trkpt lat="48.13533" lon="3.38183">
        <ele>204.9</ele>
        <time>2015-11-29T09:39:43Z</time>
      </trkpt>
      <trkpt lat="48.13565" lon="3.38192">
        <ele>206.34</ele>
        <time>2015-11-29T09:43:35Z</time>
      </trkpt>
      <trkpt lat="48.13566" lon="3.38158">
        <ele>207.3</ele>
        <time>2015-11-29T09:44:14Z</time>
      </trkpt>
      <trkpt lat="48.13566" lon="3.38127">
        <ele>207.3</ele>
        <time>2015-11-29T09:44:23Z</time>
      </trkpt>
      <trkpt lat="48.13565" lon="3.38096">
        <ele>207.3</ele>
        <time>2015-11-29T09:44:30Z</time>
      </trkpt>
      <trkpt lat="48.13563" lon="3.38068">
        <ele>206.82</ele>
        <time>2015-11-29T09:44:36Z</time>
      </trkpt>
      <trkpt lat="48.13562" lon="3.38038">
        <ele>207.78</ele>
        <time>2015-11-29T09:44:42Z</time>
      </trkpt>
      <trkpt lat="48.13561" lon="3.38009">
        <ele>207.78</ele>
        <time>2015-11-29T09:44:48Z</time>
      </trkpt>
      <trkpt lat="48.13563" lon="3.37979">
        <ele>208.26</ele>
        <time>2015-11-29T09:44:54Z</time>
      </trkpt>
      <trkpt lat="48.13568" lon="3.37949">
        <ele>209.22</ele>
        <time>2015-11-29T09:45:00Z</time>
      </trkpt>
      <trkpt lat="48.13577" lon="3.37921">
        <ele>209.7</ele>
        <time>2015-11-29T09:45:06Z</time>
      </trkpt>
      <trkpt lat="48.13593" lon="3.37905">
        <ele>210.19</ele>
        <time>2015-11-29T09:45:13Z</time>
      </trkpt>
      <trkpt lat="48.13613" lon="3.37904">
        <ele>210.67</ele>
        <time>2015-11-29T09:45:19Z</time>
      </trkpt>
      <trkpt lat="48.13631" lon="3.37901">
        <ele>211.63</ele>
        <time>2015-11-29T09:45:25Z</time>
      </trkpt>
      <trkpt lat="48.13651" lon="3.37893">
        <ele>213.55</ele>
        <time>2015-11-29T09:45:31Z</time>
      </trkpt>
      <trkpt lat="48.13666" lon="3.37872">
        <ele>212.11</ele>
        <time>2015-11-29T09:45:37Z</time>
      </trkpt>
      <trkpt lat="48.1368" lon="3.37847">
        <ele>213.55</ele>
        <time>2015-11-29T09:45:43Z</time>
      </trkpt>
      <trkpt lat="48.13694" lon="3.3783">
        <ele>213.55</ele>
        <time>2015-11-29T09:45:48Z</time>
      </trkpt>
      <trkpt lat="48.13715" lon="3.37821">
        <ele>214.51</ele>
        <time>2015-11-29T09:45:54Z</time>
      </trkpt>
      <trkpt lat="48.13734" lon="3.37811">
        <ele>214.51</ele>
        <time>2015-11-29T09:46:00Z</time>
      </trkpt>
      <trkpt lat="48.13751" lon="3.37806">
        <ele>214.99</ele>
        <time>2015-11-29T09:46:07Z</time>
      </trkpt>
      <trkpt lat="48.13754" lon="3.37836">
        <ele>214.51</ele>
        <time>2015-11-29T09:46:15Z</time>
      </trkpt>
      <trkpt lat="48.13752" lon="3.37867">
        <ele>214.03</ele>
        <time>2015-11-29T09:46:21Z</time>
      </trkpt>
      <trkpt lat="48.1375" lon="3.379">
        <ele>214.03</ele>
        <time>2015-11-29T09:46:27Z</time>
      </trkpt>
      <trkpt lat="48.13748" lon="3.37932">
        <ele>214.51</ele>
        <time>2015-11-29T09:46:33Z</time>
      </trkpt>
      <trkpt lat="48.13748" lon="3.37961">
        <ele>214.03</ele>
        <time>2015-11-29T09:46:40Z</time>
      </trkpt>
      <trkpt lat="48.13748" lon="3.37994">
        <ele>214.51</ele>
        <time>2015-11-29T09:46:48Z</time>
      </trkpt>
      <trkpt lat="48.13745" lon="3.38031">
        <ele>214.03</ele>
        <time>2015-11-29T09:46:54Z</time>
      </trkpt>
      <trkpt lat="48.13746" lon="3.3807">
        <ele>213.07</ele>
        <time>2015-11-29T09:46:59Z</time>
      </trkpt>
      <trkpt lat="48.13748" lon="3.38104">
        <ele>214.51</ele>
        <time>2015-11-29T09:47:04Z</time>
      </trkpt>
      <trkpt lat="48.13753" lon="3.38141">
        <ele>214.03</ele>
        <time>2015-11-29T09:47:12Z</time>
      </trkpt>
      <trkpt lat="48.13759" lon="3.38174">
        <ele>215.95</ele>
        <time>2015-11-29T09:47:19Z</time>
      </trkpt>
      <trkpt lat="48.13781" lon="3.38193">
        <ele>215.47</ele>
        <time>2015-11-29T09:47:26Z</time>
      </trkpt>
      <trkpt lat="48.13804" lon="3.38209">
        <ele>215.47</ele>
        <time>2015-11-29T09:47:34Z</time>
      </trkpt>
      <trkpt lat="48.13828" lon="3.3822">
        <ele>214.99</ele>
        <time>2015-11-29T09:47:40Z</time>
      </trkpt>
      <trkpt lat="48.1385" lon="3.38233">
        <ele>214.99</ele>
        <time>2015-11-29T09:47:45Z</time>
      </trkpt>
      <trkpt lat="48.13875" lon="3.38248">
        <ele>214.99</ele>
        <time>2015-11-29T09:47:51Z</time>
      </trkpt>
      <trkpt lat="48.13899" lon="3.38263">
        <ele>213.07</ele>
        <time>2015-11-29T09:47:57Z</time>
      </trkpt>
      <trkpt lat="48.13926" lon="3.38278">
        <ele>212.59</ele>
        <time>2015-11-29T09:48:03Z</time>
      </trkpt>
      <trkpt lat="48.13945" lon="3.38292">
        <ele>211.15</ele>
        <time>2015-11-29T09:48:08Z</time>
      </trkpt>
      <trkpt lat="48.13967" lon="3.38307">
        <ele>210.19</ele>
        <time>2015-11-29T09:48:12Z</time>
      </trkpt>
      <trkpt lat="48.13987" lon="3.3832">
        <ele>209.22</ele>
        <time>2015-11-29T09:48:16Z</time>
      </trkpt>
      <trkpt lat="48.14008" lon="3.38333">
        <ele>208.26</ele>
        <time>2015-11-29T09:48:20Z</time>
      </trkpt>
      <trkpt lat="48.14047" lon="3.38329">
        <ele>208.26</ele>
        <time>2015-11-29T09:50:37Z</time>
      </trkpt>
      <trkpt lat="48.14055" lon="3.383">
        <ele>206.34</ele>
        <time>2015-11-29T09:50:47Z</time>
      </trkpt>
      <trkpt lat="48.14064" lon="3.38273">
        <ele>204.42</ele>
        <time>2015-11-29T09:50:52Z</time>
      </trkpt>
      <trkpt lat="48.14072" lon="3.38245">
        <ele>203.94</ele>
        <time>2015-11-29T09:50:55Z</time>
      </trkpt>
      <trkpt lat="48.1408" lon="3.38216">
        <ele>202.49</ele>
        <time>2015-11-29T09:50:58Z</time>
      </trkpt>
      <trkpt lat="48.14091" lon="3.38187">
        <ele>200.09</ele>
        <time>2015-11-29T09:51:01Z</time>
      </trkpt>
      <trkpt lat="48.14102" lon="3.38155">
        <ele>198.17</ele>
        <time>2015-11-29T09:51:04Z</time>
      </trkpt>
      <trkpt lat="48.14111" lon="3.38118">
        <ele>196.25</ele>
        <time>2015-11-29T09:51:07Z</time>
      </trkpt>
      <trkpt lat="48.14119" lon="3.38078">
        <ele>194.32</ele>
        <time>2015-11-29T09:51:10Z</time>
      </trkpt>
      <trkpt lat="48.14129" lon="3.38034">
        <ele>190.96</ele>
        <time>2015-11-29T09:51:13Z</time>
      </trkpt>
      <trkpt lat="48.14136" lon="3.37994">
        <ele>190.96</ele>
        <time>2015-11-29T09:51:16Z</time>
      </trkpt>
      <trkpt lat="48.14144" lon="3.37963">
        <ele>191.92</ele>
        <time>2015-11-29T09:51:19Z</time>
      </trkpt>
      <trkpt lat="48.1415" lon="3.37929">
        <ele>195.28</ele>
        <time>2015-11-29T09:51:23Z</time>
      </trkpt>
      <trkpt lat="48.14157" lon="3.37891">
        <ele>197.69</ele>
        <time>2015-11-29T09:51:28Z</time>
      </trkpt>
      <trkpt lat="48.14164" lon="3.37851">
        <ele>200.57</ele>
        <time>2015-11-29T09:51:34Z</time>
      </trkpt>
      <trkpt lat="48.14172" lon="3.37814">
        <ele>203.46</ele>
        <time>2015-11-29T09:51:40Z</time>
      </trkpt>
      <trkpt lat="48.1418" lon="3.37778">
        <ele>204.42</ele>
        <time>2015-11-29T09:51:48Z</time>
      </trkpt>
      <trkpt lat="48.14189" lon="3.37743">
        <ele>205.86</ele>
        <time>2015-11-29T09:51:56Z</time>
      </trkpt>
      <trkpt lat="48.1419" lon="3.37711">
        <ele>207.3</ele>
        <time>2015-11-29T09:52:05Z</time>
      </trkpt>
      <trkpt lat="48.1417" lon="3.37688">
        <ele>208.74</ele>
        <time>2015-11-29T09:52:15Z</time>
      </trkpt>
      <trkpt lat="48.14157" lon="3.37658">
        <ele>210.19</ele>
        <time>2015-11-29T09:52:25Z</time>
      </trkpt>
      <trkpt lat="48.14158" lon="3.3762">
        <ele>210.19</ele>
        <time>2015-11-29T09:52:35Z</time>
      </trkpt>
      <trkpt lat="48.14146" lon="3.37581">
        <ele>212.59</ele>
        <time>2015-11-29T09:53:12Z</time>
      </trkpt>
      <trkpt lat="48.1414" lon="3.37577">
        <ele>214.03</ele>
        <time>2015-11-29T09:56:06Z</time>
      </trkpt>
      <trkpt lat="48.14147" lon="3.37552">
        <ele>212.59</ele>
        <time>2015-11-29T09:58:02Z</time>
      </trkpt>
      <trkpt lat="48.1416" lon="3.37527">
        <ele>213.55</ele>
        <time>2015-11-29T09:58:10Z</time>
      </trkpt>
      <trkpt lat="48.14173" lon="3.375">
        <ele>211.15</ele>
        <time>2015-11-29T09:58:16Z</time>
      </trkpt>
      <trkpt lat="48.14185" lon="3.37474">
        <ele>210.67</ele>
        <time>2015-11-29T09:58:21Z</time>
      </trkpt>
      <trkpt lat="48.14197" lon="3.37444">
        <ele>210.19</ele>
        <time>2015-11-29T09:58:25Z</time>
      </trkpt>
      <trkpt lat="48.1421" lon="3.37411">
        <ele>209.22</ele>
        <time>2015-11-29T09:58:30Z</time>
      </trkpt>
      <trkpt lat="48.14225" lon="3.37371">
        <ele>209.22</ele>
        <time>2015-11-29T09:58:36Z</time>
      </trkpt>
      <trkpt lat="48.14237" lon="3.37336">
        <ele>209.22</ele>
        <time>2015-11-29T09:58:41Z</time>
      </trkpt>
      <trkpt lat="48.14251" lon="3.37302">
        <ele>208.74</ele>
        <time>2015-11-29T09:58:46Z</time>
      </trkpt>
      <trkpt lat="48.14263" lon="3.3727">
        <ele>208.26</ele>
        <time>2015-11-29T09:58:51Z</time>
      </trkpt>
      <trkpt lat="48.14273" lon="3.37238">
        <ele>206.82</ele>
        <time>2015-11-29T09:58:55Z</time>
      </trkpt>
      <trkpt lat="48.14287" lon="3.37209">
        <ele>206.34</ele>
        <time>2015-11-29T09:58:59Z</time>
      </trkpt>
      <trkpt lat="48.143" lon="3.3718">
        <ele>204.9</ele>
        <time>2015-11-29T09:59:03Z</time>
      </trkpt>
      <trkpt lat="48.14312" lon="3.37154">
        <ele>203.46</ele>
        <time>2015-11-29T09:59:06Z</time>
      </trkpt>
      <trkpt lat="48.14325" lon="3.37125">
        <ele>201.53</ele>
        <time>2015-11-29T09:59:09Z</time>
      </trkpt>
      <trkpt lat="48.14337" lon="3.37092">
        <ele>198.65</ele>
        <time>2015-11-29T09:59:12Z</time>
      </trkpt>
      <trkpt lat="48.14351" lon="3.37056">
        <ele>196.25</ele>
        <time>2015-11-29T09:59:15Z</time>
      </trkpt>
      <trkpt lat="48.14364" lon="3.37021">
        <ele>194.8</ele>
        <time>2015-11-29T09:59:18Z</time>
      </trkpt>
      <trkpt lat="48.14376" lon="3.3699">
        <ele>193.84</ele>
        <time>2015-11-29T09:59:21Z</time>
      </trkpt>
      <trkpt lat="48.14388" lon="3.36965">
        <ele>195.28</ele>
        <time>2015-11-29T09:59:24Z</time>
      </trkpt>
      <trkpt lat="48.14398" lon="3.36939">
        <ele>195.28</ele>
        <time>2015-11-29T09:59:28Z</time>
      </trkpt>
      <trkpt lat="48.14408" lon="3.36911">
        <ele>195.28</ele>
        <time>2015-11-29T09:59:32Z</time>
      </trkpt>
      <trkpt lat="48.14423" lon="3.3689">
        <ele>195.77</ele>
        <time>2015-11-29T09:59:37Z</time>
      </trkpt>
      <trkpt lat="48.14444" lon="3.36881">
        <ele>197.21</ele>
        <time>2015-11-29T09:59:42Z</time>
      </trkpt>
      <trkpt lat="48.14467" lon="3.36871">
        <ele>200.09</ele>
        <time>2015-11-29T09:59:48Z</time>
      </trkpt>
      <trkpt lat="48.14488" lon="3.3686">
        <ele>200.57</ele>
        <time>2015-11-29T09:59:53Z</time>
      </trkpt>
      <trkpt lat="48.14511" lon="3.36848">
        <ele>202.01</ele>
        <time>2015-11-29T10:00:00Z</time>
      </trkpt>
      <trkpt lat="48.14533" lon="3.36836">
        <ele>202.01</ele>
        <time>2015-11-29T10:00:07Z</time>
      </trkpt>
      <trkpt lat="48.14556" lon="3.36827">
        <ele>202.01</ele>
        <time>2015-11-29T10:00:13Z</time>
      </trkpt>
      <trkpt lat="48.14581" lon="3.36823">
        <ele>202.49</ele>
        <time>2015-11-29T10:00:21Z</time>
      </trkpt>
      <trkpt lat="48.14607" lon="3.36812">
        <ele>202.49</ele>
        <time>2015-11-29T10:00:26Z</time>
      </trkpt>
      <trkpt lat="48.14629" lon="3.368">
        <ele>203.46</ele>
        <time>2015-11-29T10:00:31Z</time>
      </trkpt>
      <trkpt lat="48.14651" lon="3.36784">
        <ele>203.94</ele>
        <time>2015-11-29T10:00:40Z</time>
      </trkpt>
      <trkpt lat="48.1467" lon="3.36763">
        <ele>205.86</ele>
        <time>2015-11-29T10:00:49Z</time>
      </trkpt>
      <trkpt lat="48.14689" lon="3.36736">
        <ele>205.38</ele>
        <time>2015-11-29T10:00:58Z</time>
      </trkpt>
      <trkpt lat="48.14705" lon="3.36706">
        <ele>206.34</ele>
        <time>2015-11-29T10:01:07Z</time>
      </trkpt>
      <trkpt lat="48.14719" lon="3.36678">
        <ele>205.38</ele>
        <time>2015-11-29T10:01:15Z</time>
      </trkpt>
      <trkpt lat="48.14733" lon="3.36646">
        <ele>203.46</ele>
        <time>2015-11-29T10:01:22Z</time>
      </trkpt>
      <trkpt lat="48.14745" lon="3.36617">
        <ele>202.49</ele>
        <time>2015-11-29T10:01:30Z</time>
      </trkpt>
      <trkpt lat="48.14757" lon="3.36581">
        <ele>200.09</ele>
        <time>2015-11-29T10:01:39Z</time>
      </trkpt>
      <trkpt lat="48.14772" lon="3.36554">
        <ele>195.28</ele>
        <time>2015-11-29T10:01:44Z</time>
      </trkpt>
      <trkpt lat="48.14792" lon="3.36537">
        <ele>191.44</ele>
        <time>2015-11-29T10:01:47Z</time>
      </trkpt>
      <trkpt lat="48.14815" lon="3.36521">
        <ele>188.56</ele>
        <time>2015-11-29T10:01:50Z</time>
      </trkpt>
      <trkpt lat="48.14838" lon="3.36506">
        <ele>186.63</ele>
        <time>2015-11-29T10:01:53Z</time>
      </trkpt>
      <trkpt lat="48.1486" lon="3.36488">
        <ele>186.63</ele>
        <time>2015-11-29T10:01:56Z</time>
      </trkpt>
      <trkpt lat="48.14878" lon="3.36473">
        <ele>185.67</ele>
        <time>2015-11-29T10:01:59Z</time>
      </trkpt>
      <trkpt lat="48.14896" lon="3.36455">
        <ele>185.19</ele>
        <time>2015-11-29T10:02:02Z</time>
      </trkpt>
      <trkpt lat="48.14918" lon="3.36431">
        <ele>183.27</ele>
        <time>2015-11-29T10:02:06Z</time>
      </trkpt>
      <trkpt lat="48.14936" lon="3.36409">
        <ele>179.9</ele>
        <time>2015-11-29T10:02:09Z</time>
      </trkpt>
      <trkpt lat="48.1495" lon="3.36379">
        <ele>178.94</ele>
        <time>2015-11-29T10:02:14Z</time>
      </trkpt>
      <trkpt lat="48.14966" lon="3.36375">
        <ele>178.46</ele>
        <time>2015-11-29T10:02:20Z</time>
      </trkpt>
      <trkpt lat="48.14986" lon="3.36383">
        <ele>178.94</ele>
        <time>2015-11-29T10:02:26Z</time>
      </trkpt>
      <trkpt lat="48.15009" lon="3.36386">
        <ele>181.35</ele>
        <time>2015-11-29T10:02:32Z</time>
      </trkpt>
      <trkpt lat="48.15032" lon="3.36387">
        <ele>183.75</ele>
        <time>2015-11-29T10:02:38Z</time>
      </trkpt>
      <trkpt lat="48.15055" lon="3.36388">
        <ele>186.15</ele>
        <time>2015-11-29T10:02:44Z</time>
      </trkpt>
      <trkpt lat="48.15075" lon="3.36386">
        <ele>186.63</ele>
        <time>2015-11-29T10:02:50Z</time>
      </trkpt>
      <trkpt lat="48.15096" lon="3.36382">
        <ele>188.56</ele>
        <time>2015-11-29T10:02:56Z</time>
      </trkpt>
      <trkpt lat="48.15119" lon="3.36369">
        <ele>190</ele>
        <time>2015-11-29T10:03:03Z</time>
      </trkpt>
      <trkpt lat="48.15141" lon="3.36351">
        <ele>191.44</ele>
        <time>2015-11-29T10:03:10Z</time>
      </trkpt>
      <trkpt lat="48.15165" lon="3.36331">
        <ele>191.44</ele>
        <time>2015-11-29T10:03:16Z</time>
      </trkpt>
      <trkpt lat="48.15187" lon="3.36309">
        <ele>192.4</ele>
        <time>2015-11-29T10:03:23Z</time>
      </trkpt>
      <trkpt lat="48.15205" lon="3.36295">
        <ele>193.84</ele>
        <time>2015-11-29T10:03:31Z</time>
      </trkpt>
      <trkpt lat="48.1523" lon="3.36292">
        <ele>194.32</ele>
        <time>2015-11-29T10:03:42Z</time>
      </trkpt>
      <trkpt lat="48.15258" lon="3.36285">
        <ele>194.8</ele>
        <time>2015-11-29T10:05:53Z</time>
      </trkpt>
      <trkpt lat="48.15281" lon="3.36283">
        <ele>194.8</ele>
        <time>2015-11-29T10:06:52Z</time>
      </trkpt>
      <trkpt lat="48.15303" lon="3.36281">
        <ele>195.77</ele>
        <time>2015-11-29T10:07:04Z</time>
      </trkpt>
      <trkpt lat="48.15324" lon="3.36277">
        <ele>195.77</ele>
        <time>2015-11-29T10:07:15Z</time>
      </trkpt>
      <trkpt lat="48.15344" lon="3.3627">
        <ele>196.73</ele>
        <time>2015-11-29T10:07:24Z</time>
      </trkpt>
      <trkpt lat="48.15365" lon="3.36255">
        <ele>198.17</ele>
        <time>2015-11-29T10:07:32Z</time>
      </trkpt>
      <trkpt lat="48.15387" lon="3.36241">
        <ele>198.65</ele>
        <time>2015-11-29T10:07:41Z</time>
      </trkpt>
      <trkpt lat="48.1541" lon="3.36224">
        <ele>199.61</ele>
        <time>2015-11-29T10:07:50Z</time>
      </trkpt>
      <trkpt lat="48.15429" lon="3.36209">
        <ele>199.13</ele>
        <time>2015-11-29T10:07:57Z</time>
      </trkpt>
      <trkpt lat="48.15452" lon="3.36193">
        <ele>198.65</ele>
        <time>2015-11-29T10:08:05Z</time>
      </trkpt>
      <trkpt lat="48.15479" lon="3.3617">
        <ele>198.17</ele>
        <time>2015-11-29T10:08:12Z</time>
      </trkpt>
      <trkpt lat="48.155" lon="3.36159">
        <ele>197.69</ele>
        <time>2015-11-29T10:08:18Z</time>
      </trkpt>
      <trkpt lat="48.1552" lon="3.36145">
        <ele>197.21</ele>
        <time>2015-11-29T10:08:24Z</time>
      </trkpt>
      <trkpt lat="48.15538" lon="3.3613">
        <ele>195.77</ele>
        <time>2015-11-29T10:08:29Z</time>
      </trkpt>
      <trkpt lat="48.15557" lon="3.36116">
        <ele>195.28</ele>
        <time>2015-11-29T10:08:34Z</time>
      </trkpt>
      <trkpt lat="48.15575" lon="3.36101">
        <ele>194.32</ele>
        <time>2015-11-29T10:08:38Z</time>
      </trkpt>
      <trkpt lat="48.15595" lon="3.36082">
        <ele>193.36</ele>
        <time>2015-11-29T10:08:42Z</time>
      </trkpt>
      <trkpt lat="48.15612" lon="3.36068">
        <ele>193.36</ele>
        <time>2015-11-29T10:08:45Z</time>
      </trkpt>
      <trkpt lat="48.15631" lon="3.36054">
        <ele>192.88</ele>
        <time>2015-11-29T10:08:48Z</time>
      </trkpt>
      <trkpt lat="48.1565" lon="3.3604">
        <ele>192.4</ele>
        <time>2015-11-29T10:08:51Z</time>
      </trkpt>
      <trkpt lat="48.15668" lon="3.36024">
        <ele>192.88</ele>
        <time>2015-11-29T10:08:54Z</time>
      </trkpt>
      <trkpt lat="48.15688" lon="3.36007">
        <ele>192.4</ele>
        <time>2015-11-29T10:08:58Z</time>
      </trkpt>
      <trkpt lat="48.15707" lon="3.35992">
        <ele>192.88</ele>
        <time>2015-11-29T10:09:02Z</time>
      </trkpt>
      <trkpt lat="48.15725" lon="3.35976">
        <ele>192.88</ele>
        <time>2015-11-29T10:09:06Z</time>
      </trkpt>
      <trkpt lat="48.15741" lon="3.35962">
        <ele>192.88</ele>
        <time>2015-11-29T10:09:10Z</time>
      </trkpt>
      <trkpt lat="48.15758" lon="3.35947">
        <ele>190.96</ele>
        <time>2015-11-29T10:09:14Z</time>
      </trkpt>
      <trkpt lat="48.15774" lon="3.35926">
        <ele>190.48</ele>
        <time>2015-11-29T10:09:18Z</time>
      </trkpt>
      <trkpt lat="48.15787" lon="3.35899">
        <ele>189.52</ele>
        <time>2015-11-29T10:09:22Z</time>
      </trkpt>
      <trkpt lat="48.15802" lon="3.35867">
        <ele>188.08</ele>
        <time>2015-11-29T10:09:26Z</time>
      </trkpt>
      <trkpt lat="48.15815" lon="3.35843">
        <ele>186.63</ele>
        <time>2015-11-29T10:09:29Z</time>
      </trkpt>
      <trkpt lat="48.15831" lon="3.35823">
        <ele>186.15</ele>
        <time>2015-11-29T10:09:32Z</time>
      </trkpt>
      <trkpt lat="48.15847" lon="3.35808">
        <ele>186.15</ele>
        <time>2015-11-29T10:09:35Z</time>
      </trkpt>
      <trkpt lat="48.15869" lon="3.35792">
        <ele>185.19</ele>
        <time>2015-11-29T10:09:39Z</time>
      </trkpt>
      <trkpt lat="48.15891" lon="3.35779">
        <ele>185.19</ele>
        <time>2015-11-29T10:09:43Z</time>
      </trkpt>
      <trkpt lat="48.15909" lon="3.35765">
        <ele>183.75</ele>
        <time>2015-11-29T10:09:47Z</time>
      </trkpt>
      <trkpt lat="48.15926" lon="3.35743">
        <ele>183.75</ele>
        <time>2015-11-29T10:09:52Z</time>
      </trkpt>
      <trkpt lat="48.15933" lon="3.35713">
        <ele>182.79</ele>
        <time>2015-11-29T10:09:57Z</time>
      </trkpt>
      <trkpt lat="48.15919" lon="3.35684">
        <ele>179.9</ele>
        <time>2015-11-29T10:10:14Z</time>
      </trkpt>
      <trkpt lat="48.15899" lon="3.35679">
        <ele>176.54</ele>
        <time>2015-11-29T10:10:26Z</time>
      </trkpt>
      <trkpt lat="48.1589" lon="3.35655">
        <ele>169.33</ele>
        <time>2015-11-29T10:10:36Z</time>
      </trkpt>
      <trkpt lat="48.15872" lon="3.35618">
        <ele>165</ele>
        <time>2015-11-29T10:11:43Z</time>
      </trkpt>
      <trkpt lat="48.15858" lon="3.35592">
        <ele>158.75</ele>
        <time>2015-11-29T10:11:50Z</time>
      </trkpt>
      <trkpt lat="48.15836" lon="3.35573">
        <ele>151.06</ele>
        <time>2015-11-29T10:11:55Z</time>
      </trkpt>
      <trkpt lat="48.15818" lon="3.35555">
        <ele>146.26</ele>
        <time>2015-11-29T10:11:59Z</time>
      </trkpt>
      <trkpt lat="48.15807" lon="3.3553">
        <ele>141.93</ele>
        <time>2015-11-29T10:12:04Z</time>
      </trkpt>
      <trkpt lat="48.15801" lon="3.35496">
        <ele>142.41</ele>
        <time>2015-11-29T10:12:34Z</time>
      </trkpt>
      <trkpt lat="48.1579" lon="3.35475">
        <ele>135.68</ele>
        <time>2015-11-29T10:14:22Z</time>
      </trkpt>
      <trkpt lat="48.15796" lon="3.35447">
        <ele>133.28</ele>
        <time>2015-11-29T10:14:28Z</time>
      </trkpt>
      <trkpt lat="48.15796" lon="3.35418">
        <ele>132.32</ele>
        <time>2015-11-29T10:14:34Z</time>
      </trkpt>
      <trkpt lat="48.15774" lon="3.3541">
        <ele>135.2</ele>
        <time>2015-11-29T10:15:13Z</time>
      </trkpt>
      <trkpt lat="48.15755" lon="3.3539">
        <ele>132.8</ele>
        <time>2015-11-29T10:15:42Z</time>
      </trkpt>
      <trkpt lat="48.15722" lon="3.35385">
        <ele>133.76</ele>
        <time>2015-11-29T10:17:33Z</time>
      </trkpt>
      <trkpt lat="48.15703" lon="3.35391">
        <ele>134.72</ele>
        <time>2015-11-29T10:17:44Z</time>
      </trkpt>
      <trkpt lat="48.15684" lon="3.35402">
        <ele>137.13</ele>
        <time>2015-11-29T10:17:55Z</time>
      </trkpt>
      <trkpt lat="48.15666" lon="3.35428">
        <ele>140.01</ele>
        <time>2015-11-29T10:18:05Z</time>
      </trkpt>
      <trkpt lat="48.15648" lon="3.35444">
        <ele>140.49</ele>
        <time>2015-11-29T10:18:13Z</time>
      </trkpt>
      <trkpt lat="48.15625" lon="3.3545">
        <ele>140.97</ele>
        <time>2015-11-29T10:18:24Z</time>
      </trkpt>
      <trkpt lat="48.1561" lon="3.35419">
        <ele>134.24</ele>
        <time>2015-11-29T10:18:41Z</time>
      </trkpt>
      <trkpt lat="48.15579" lon="3.35398">
        <ele>136.64</ele>
        <time>2015-11-29T10:20:14Z</time>
      </trkpt>
      <trkpt lat="48.15567" lon="3.35377">
        <ele>139.53</ele>
        <time>2015-11-29T10:20:28Z</time>
      </trkpt>
      <trkpt lat="48.15552" lon="3.35355">
        <ele>141.45</ele>
        <time>2015-11-29T10:20:41Z</time>
      </trkpt>
      <trkpt lat="48.15534" lon="3.35339">
        <ele>142.89</ele>
        <time>2015-11-29T10:20:51Z</time>
      </trkpt>
      <trkpt lat="48.1551" lon="3.35318">
        <ele>143.85</ele>
        <time>2015-11-29T10:21:01Z</time>
      </trkpt>
      <trkpt lat="48.15483" lon="3.35308">
        <ele>147.7</ele>
        <time>2015-11-29T10:21:14Z</time>
      </trkpt>
      <trkpt lat="48.15456" lon="3.35305">
        <ele>150.1</ele>
        <time>2015-11-29T10:21:31Z</time>
      </trkpt>
      <trkpt lat="48.15427" lon="3.35306">
        <ele>152.99</ele>
        <time>2015-11-29T10:21:49Z</time>
      </trkpt>
      <trkpt lat="48.15392" lon="3.35302">
        <ele>155.39</ele>
        <time>2015-11-29T10:22:34Z</time>
      </trkpt>
      <trkpt lat="48.15371" lon="3.35302">
        <ele>158.75</ele>
        <time>2015-11-29T10:22:50Z</time>
      </trkpt>
      <trkpt lat="48.15346" lon="3.35301">
        <ele>163.08</ele>
        <time>2015-11-29T10:23:08Z</time>
      </trkpt>
      <trkpt lat="48.15314" lon="3.35301">
        <ele>167.41</ele>
        <time>2015-11-29T10:23:29Z</time>
      </trkpt>
      <trkpt lat="48.15278" lon="3.35296">
        <ele>171.73</ele>
        <time>2015-11-29T10:23:51Z</time>
      </trkpt>
      <trkpt lat="48.15248" lon="3.35283">
        <ele>174.62</ele>
        <time>2015-11-29T10:24:45Z</time>
      </trkpt>
      <trkpt lat="48.15248" lon="3.3525">
        <ele>179.9</ele>
        <time>2015-11-29T10:27:01Z</time>
      </trkpt>
      <trkpt lat="48.15251" lon="3.35205">
        <ele>185.19</ele>
        <time>2015-11-29T10:27:44Z</time>
      </trkpt>
      <trkpt lat="48.15248" lon="3.3517">
        <ele>186.15</ele>
        <time>2015-11-29T10:27:56Z</time>
      </trkpt>
      <trkpt lat="48.15245" lon="3.35136">
        <ele>186.63</ele>
        <time>2015-11-29T10:28:05Z</time>
      </trkpt>
      <trkpt lat="48.15241" lon="3.35097">
        <ele>187.59</ele>
        <time>2015-11-29T10:28:15Z</time>
      </trkpt>
      <trkpt lat="48.15219" lon="3.3508">
        <ele>189.04</ele>
        <time>2015-11-29T10:28:23Z</time>
      </trkpt>
      <trkpt lat="48.15195" lon="3.35071">
        <ele>190</ele>
        <time>2015-11-29T10:28:33Z</time>
      </trkpt>
      <trkpt lat="48.1517" lon="3.35055">
        <ele>191.44</ele>
        <time>2015-11-29T10:28:44Z</time>
      </trkpt>
      <trkpt lat="48.15146" lon="3.35055">
        <ele>192.88</ele>
        <time>2015-11-29T10:28:54Z</time>
      </trkpt>
      <trkpt lat="48.15123" lon="3.35063">
        <ele>192.88</ele>
        <time>2015-11-29T10:29:06Z</time>
      </trkpt>
      <trkpt lat="48.15112" lon="3.35052">
        <ele>193.36</ele>
        <time>2015-11-29T10:29:18Z</time>
      </trkpt>
      <trkpt lat="48.15125" lon="3.3503">
        <ele>192.4</ele>
        <time>2015-11-29T10:29:26Z</time>
      </trkpt>
      <trkpt lat="48.15141" lon="3.35013">
        <ele>192.4</ele>
        <time>2015-11-29T10:29:34Z</time>
      </trkpt>
      <trkpt lat="48.15159" lon="3.35002">
        <ele>191.44</ele>
        <time>2015-11-29T10:29:42Z</time>
      </trkpt>
      <trkpt lat="48.15162" lon="3.34971">
        <ele>192.4</ele>
        <time>2015-11-29T10:35:19Z</time>
      </trkpt>
      <trkpt lat="48.15151" lon="3.3495">
        <ele>191.92</ele>
        <time>2015-11-29T10:35:25Z</time>
      </trkpt>
      <trkpt lat="48.15141" lon="3.34916">
        <ele>190.96</ele>
        <time>2015-11-29T10:35:30Z</time>
      </trkpt>
      <trkpt lat="48.15133" lon="3.34887">
        <ele>191.44</ele>
        <time>2015-11-29T10:35:34Z</time>
      </trkpt>
      <trkpt lat="48.15124" lon="3.34861">
        <ele>190.96</ele>
        <time>2015-11-29T10:35:37Z</time>
      </trkpt>
      <trkpt lat="48.15113" lon="3.34834">
        <ele>188.56</ele>
        <time>2015-11-29T10:35:40Z</time>
      </trkpt>
      <trkpt lat="48.15103" lon="3.34807">
        <ele>188.56</ele>
        <time>2015-11-29T10:35:43Z</time>
      </trkpt>
      <trkpt lat="48.15091" lon="3.34782">
        <ele>188.56</ele>
        <time>2015-11-29T10:35:46Z</time>
      </trkpt>
      <trkpt lat="48.15097" lon="3.34758">
        <ele>188.08</ele>
        <time>2015-11-29T10:35:53Z</time>
      </trkpt>
      <trkpt lat="48.15109" lon="3.34726">
        <ele>188.08</ele>
        <time>2015-11-29T10:36:07Z</time>
      </trkpt>
      <trkpt lat="48.15119" lon="3.34691">
        <ele>186.63</ele>
        <time>2015-11-29T10:36:19Z</time>
      </trkpt>
      <trkpt lat="48.15132" lon="3.34668">
        <ele>185.19</ele>
        <time>2015-11-29T10:36:24Z</time>
      </trkpt>
      <trkpt lat="48.15149" lon="3.34655">
        <ele>185.19</ele>
        <time>2015-11-29T10:36:28Z</time>
      </trkpt>
      <trkpt lat="48.15153" lon="3.34627">
        <ele>184.23</ele>
        <time>2015-11-29T10:36:32Z</time>
      </trkpt>
      <trkpt lat="48.15152" lon="3.34598">
        <ele>183.75</ele>
        <time>2015-11-29T10:36:36Z</time>
      </trkpt>
      <trkpt lat="48.15156" lon="3.34563">
        <ele>182.79</ele>
        <time>2015-11-29T10:36:43Z</time>
      </trkpt>
      <trkpt lat="48.15162" lon="3.34531">
        <ele>181.35</ele>
        <time>2015-11-29T10:36:47Z</time>
      </trkpt>
      <trkpt lat="48.15149" lon="3.3451">
        <ele>181.35</ele>
        <time>2015-11-29T10:36:53Z</time>
      </trkpt>
      <trkpt lat="48.15152" lon="3.34481">
        <ele>178.94</ele>
        <time>2015-11-29T10:36:58Z</time>
      </trkpt>
      <trkpt lat="48.15169" lon="3.34469">
        <ele>179.42</ele>
        <time>2015-11-29T10:37:03Z</time>
      </trkpt>
      <trkpt lat="48.1519" lon="3.34465">
        <ele>179.9</ele>
        <time>2015-11-29T10:37:08Z</time>
      </trkpt>
      <trkpt lat="48.15205" lon="3.34446">
        <ele>178.94</ele>
        <time>2015-11-29T10:37:13Z</time>
      </trkpt>
      <trkpt lat="48.15217" lon="3.34421">
        <ele>177.5</ele>
        <time>2015-11-29T10:37:17Z</time>
      </trkpt>
      <trkpt lat="48.1523" lon="3.34393">
        <ele>176.54</ele>
        <time>2015-11-29T10:37:20Z</time>
      </trkpt>
      <trkpt lat="48.15237" lon="3.34363">
        <ele>174.62</ele>
        <time>2015-11-29T10:37:23Z</time>
      </trkpt>
      <trkpt lat="48.15232" lon="3.34335">
        <ele>173.17</ele>
        <time>2015-11-29T10:37:28Z</time>
      </trkpt>
      <trkpt lat="48.1524" lon="3.3431">
        <ele>170.77</ele>
        <time>2015-11-29T10:37:33Z</time>
      </trkpt>
      <trkpt lat="48.1525" lon="3.34284">
        <ele>167.89</ele>
        <time>2015-11-29T10:37:37Z</time>
      </trkpt>
      <trkpt lat="48.15259" lon="3.34249">
        <ele>164.52</ele>
        <time>2015-11-29T10:37:41Z</time>
      </trkpt>
      <trkpt lat="48.15265" lon="3.3422">
        <ele>162.12</ele>
        <time>2015-11-29T10:37:47Z</time>
      </trkpt>
      <trkpt lat="48.15246" lon="3.34212">
        <ele>160.68</ele>
        <time>2015-11-29T10:37:54Z</time>
      </trkpt>
      <trkpt lat="48.15224" lon="3.34201">
        <ele>157.79</ele>
        <time>2015-11-29T10:37:59Z</time>
      </trkpt>
      <trkpt lat="48.15205" lon="3.34189">
        <ele>154.91</ele>
        <time>2015-11-29T10:38:02Z</time>
      </trkpt>
      <trkpt lat="48.15187" lon="3.34176">
        <ele>152.51</ele>
        <time>2015-11-29T10:38:06Z</time>
      </trkpt>
      <trkpt lat="48.1519" lon="3.34149">
        <ele>152.03</ele>
        <time>2015-11-29T10:38:11Z</time>
      </trkpt>
      <trkpt lat="48.15202" lon="3.34127">
        <ele>150.58</ele>
        <time>2015-11-29T10:38:15Z</time>
      </trkpt>
      <trkpt lat="48.15214" lon="3.34105">
        <ele>150.1</ele>
        <time>2015-11-29T10:38:21Z</time>
      </trkpt>
      <trkpt lat="48.15208" lon="3.34073">
        <ele>151.06</ele>
        <time>2015-11-29T10:38:52Z</time>
      </trkpt>
      <trkpt lat="48.1519" lon="3.34056">
        <ele>152.99</ele>
        <time>2015-11-29T10:39:02Z</time>
      </trkpt>
      <trkpt lat="48.15169" lon="3.34051">
        <ele>156.83</ele>
        <time>2015-11-29T10:39:26Z</time>
      </trkpt>
      <trkpt lat="48.15144" lon="3.34026">
        <ele>158.75</ele>
        <time>2015-11-29T10:39:44Z</time>
      </trkpt>
      <trkpt lat="48.1512" lon="3.34008">
        <ele>160.2</ele>
        <time>2015-11-29T10:39:54Z</time>
      </trkpt>
      <trkpt lat="48.15092" lon="3.33999">
        <ele>163.56</ele>
        <time>2015-11-29T10:40:08Z</time>
      </trkpt>
      <trkpt lat="48.15081" lon="3.33968">
        <ele>161.16</ele>
        <time>2015-11-29T10:40:25Z</time>
      </trkpt>
      <trkpt lat="48.15064" lon="3.33979">
        <ele>163.56</ele>
        <time>2015-11-29T10:40:51Z</time>
      </trkpt>
      <trkpt lat="48.15048" lon="3.3401">
        <ele>167.41</ele>
        <time>2015-11-29T10:41:09Z</time>
      </trkpt>
      <trkpt lat="48.15029" lon="3.34039">
        <ele>171.73</ele>
        <time>2015-11-29T10:41:28Z</time>
      </trkpt>
      <trkpt lat="48.14995" lon="3.3403">
        <ele>171.73</ele>
        <time>2015-11-29T10:42:29Z</time>
      </trkpt>
      <trkpt lat="48.14983" lon="3.34013">
        <ele>171.73</ele>
        <time>2015-11-29T10:44:47Z</time>
      </trkpt>
      <trkpt lat="48.14968" lon="3.33981">
        <ele>171.73</ele>
        <time>2015-11-29T10:44:59Z</time>
      </trkpt>
      <trkpt lat="48.14959" lon="3.33952">
        <ele>169.81</ele>
        <time>2015-11-29T10:45:05Z</time>
      </trkpt>
      <trkpt lat="48.14952" lon="3.33926">
        <ele>169.81</ele>
        <time>2015-11-29T10:45:20Z</time>
      </trkpt>
      <trkpt lat="48.14941" lon="3.33896">
        <ele>170.77</ele>
        <time>2015-11-29T10:45:30Z</time>
      </trkpt>
      <trkpt lat="48.14924" lon="3.3386">
        <ele>172.69</ele>
        <time>2015-11-29T10:45:45Z</time>
      </trkpt>
      <trkpt lat="48.14907" lon="3.33831">
        <ele>174.14</ele>
        <time>2015-11-29T10:45:59Z</time>
      </trkpt>
      <trkpt lat="48.149" lon="3.33797">
        <ele>174.62</ele>
        <time>2015-11-29T10:46:08Z</time>
      </trkpt>
      <trkpt lat="48.1489" lon="3.33765">
        <ele>174.62</ele>
        <time>2015-11-29T10:46:17Z</time>
      </trkpt>
      <trkpt lat="48.14871" lon="3.33736">
        <ele>177.02</ele>
        <time>2015-11-29T10:46:26Z</time>
      </trkpt>
      <trkpt lat="48.14854" lon="3.33708">
        <ele>177.5</ele>
        <time>2015-11-29T10:46:34Z</time>
      </trkpt>
      <trkpt lat="48.14835" lon="3.33686">
        <ele>178.94</ele>
        <time>2015-11-29T10:46:43Z</time>
      </trkpt>
      <trkpt lat="48.14816" lon="3.33662">
        <ele>181.35</ele>
        <time>2015-11-29T10:46:54Z</time>
      </trkpt>
      <trkpt lat="48.1482" lon="3.3363">
        <ele>180.87</ele>
        <time>2015-11-29T10:47:04Z</time>
      </trkpt>
      <trkpt lat="48.14835" lon="3.33604">
        <ele>179.42</ele>
        <time>2015-11-29T10:47:18Z</time>
      </trkpt>
      <trkpt lat="48.14854" lon="3.33584">
        <ele>178.94</ele>
        <time>2015-11-29T10:47:33Z</time>
      </trkpt>
      <trkpt lat="48.14872" lon="3.3356">
        <ele>177.98</ele>
        <time>2015-11-29T10:47:42Z</time>
      </trkpt>
      <trkpt lat="48.1489" lon="3.33538">
        <ele>177.98</ele>
        <time>2015-11-29T10:47:49Z</time>
      </trkpt>
      <trkpt lat="48.14908" lon="3.33517">
        <ele>176.54</ele>
        <time>2015-11-29T10:47:58Z</time>
      </trkpt>
      <trkpt lat="48.14923" lon="3.33497">
        <ele>177.98</ele>
        <time>2015-11-29T10:48:04Z</time>
      </trkpt>
      <trkpt lat="48.14944" lon="3.33476">
        <ele>178.94</ele>
        <time>2015-11-29T10:48:12Z</time>
      </trkpt>
      <trkpt lat="48.14963" lon="3.33464">
        <ele>178.94</ele>
        <time>2015-11-29T10:48:22Z</time>
      </trkpt>
      <trkpt lat="48.14983" lon="3.33452">
        <ele>180.38</ele>
        <time>2015-11-29T10:48:34Z</time>
      </trkpt>
      <trkpt lat="48.15003" lon="3.33439">
        <ele>180.87</ele>
        <time>2015-11-29T10:48:45Z</time>
      </trkpt>
      <trkpt lat="48.15024" lon="3.33426">
        <ele>182.31</ele>
        <time>2015-11-29T10:48:56Z</time>
      </trkpt>
      <trkpt lat="48.15045" lon="3.33412">
        <ele>182.79</ele>
        <time>2015-11-29T10:49:06Z</time>
      </trkpt>
      <trkpt lat="48.15064" lon="3.33392">
        <ele>182.79</ele>
        <time>2015-11-29T10:49:18Z</time>
      </trkpt>
      <trkpt lat="48.15081" lon="3.33374">
        <ele>183.75</ele>
        <time>2015-11-29T10:49:29Z</time>
      </trkpt>
      <trkpt lat="48.15098" lon="3.33348">
        <ele>184.23</ele>
        <time>2015-11-29T10:49:45Z</time>
      </trkpt>
      <trkpt lat="48.1512" lon="3.33302">
        <ele>183.75</ele>
        <time>2015-11-29T10:51:26Z</time>
      </trkpt>
      <trkpt lat="48.1512" lon="3.33269">
        <ele>182.79</ele>
        <time>2015-11-29T10:51:32Z</time>
      </trkpt>
      <trkpt lat="48.15118" lon="3.33237">
        <ele>181.83</ele>
        <time>2015-11-29T10:51:36Z</time>
      </trkpt>
      <trkpt lat="48.15114" lon="3.33203">
        <ele>179.9</ele>
        <time>2015-11-29T10:51:40Z</time>
      </trkpt>
      <trkpt lat="48.15114" lon="3.33168">
        <ele>178.46</ele>
        <time>2015-11-29T10:51:44Z</time>
      </trkpt>
      <trkpt lat="48.15115" lon="3.33139">
        <ele>176.54</ele>
        <time>2015-11-29T10:51:47Z</time>
      </trkpt>
      <trkpt lat="48.15116" lon="3.33112">
        <ele>175.1</ele>
        <time>2015-11-29T10:51:52Z</time>
      </trkpt>
      <trkpt lat="48.15131" lon="3.33088">
        <ele>175.1</ele>
        <time>2015-11-29T10:51:59Z</time>
      </trkpt>
      <trkpt lat="48.15149" lon="3.33068">
        <ele>177.02</ele>
        <time>2015-11-29T10:52:05Z</time>
      </trkpt>
      <trkpt lat="48.15162" lon="3.33043">
        <ele>177.98</ele>
        <time>2015-11-29T10:52:30Z</time>
      </trkpt>
      <trkpt lat="48.15177" lon="3.33018">
        <ele>177.98</ele>
        <time>2015-11-29T10:52:37Z</time>
      </trkpt>
      <trkpt lat="48.15192" lon="3.33">
        <ele>177.98</ele>
        <time>2015-11-29T10:52:43Z</time>
      </trkpt>
      <trkpt lat="48.15207" lon="3.3298">
        <ele>178.94</ele>
        <time>2015-11-29T10:52:48Z</time>
      </trkpt>
      <trkpt lat="48.15216" lon="3.32951">
        <ele>179.9</ele>
        <time>2015-11-29T10:52:54Z</time>
      </trkpt>
      <trkpt lat="48.15228" lon="3.32914">
        <ele>181.83</ele>
        <time>2015-11-29T10:53:00Z</time>
      </trkpt>
      <trkpt lat="48.1524" lon="3.32883">
        <ele>182.31</ele>
        <time>2015-11-29T10:53:07Z</time>
      </trkpt>
      <trkpt lat="48.15251" lon="3.32853">
        <ele>183.75</ele>
        <time>2015-11-29T10:53:15Z</time>
      </trkpt>
      <trkpt lat="48.15258" lon="3.3282">
        <ele>184.23</ele>
        <time>2015-11-29T10:53:22Z</time>
      </trkpt>
      <trkpt lat="48.1526" lon="3.32782">
        <ele>184.23</ele>
        <time>2015-11-29T10:53:29Z</time>
      </trkpt>
      <trkpt lat="48.15259" lon="3.32749">
        <ele>183.75</ele>
        <time>2015-11-29T10:53:35Z</time>
      </trkpt>
      <trkpt lat="48.15258" lon="3.32718">
        <ele>183.75</ele>
        <time>2015-11-29T10:53:44Z</time>
      </trkpt>
      <trkpt lat="48.1524" lon="3.32731">
        <ele>180.38</ele>
        <time>2015-11-29T10:53:59Z</time>
      </trkpt>
      <trkpt lat="48.15228" lon="3.32757">
        <ele>177.02</ele>
        <time>2015-11-29T10:54:04Z</time>
      </trkpt>
      <trkpt lat="48.1522" lon="3.32743">
        <ele>174.62</ele>
        <time>2015-11-29T10:54:10Z</time>
      </trkpt>
      <trkpt lat="48.15223" lon="3.32715">
        <ele>175.1</ele>
        <time>2015-11-29T10:54:14Z</time>
      </trkpt>
      <trkpt lat="48.1521" lon="3.32688">
        <ele>173.17</ele>
        <time>2015-11-29T10:54:19Z</time>
      </trkpt>
      <trkpt lat="48.15198" lon="3.32709">
        <ele>169.81</ele>
        <time>2015-11-29T10:54:26Z</time>
      </trkpt>
      <trkpt lat="48.15192" lon="3.32744">
        <ele>169.33</ele>
        <time>2015-11-29T10:54:32Z</time>
      </trkpt>
      <trkpt lat="48.15197" lon="3.32786">
        <ele>173.66</ele>
        <time>2015-11-29T10:54:48Z</time>
      </trkpt>
      <trkpt lat="48.1519" lon="3.32819">
        <ele>173.66</ele>
        <time>2015-11-29T10:54:56Z</time>
      </trkpt>
      <trkpt lat="48.15185" lon="3.3285">
        <ele>174.14</ele>
        <time>2015-11-29T10:55:02Z</time>
      </trkpt>
      <trkpt lat="48.15175" lon="3.32881">
        <ele>173.66</ele>
        <time>2015-11-29T10:55:09Z</time>
      </trkpt>
      <trkpt lat="48.15161" lon="3.32908">
        <ele>169.81</ele>
        <time>2015-11-29T10:55:16Z</time>
      </trkpt>
      <trkpt lat="48.15151" lon="3.32946">
        <ele>170.77</ele>
        <time>2015-11-29T10:55:23Z</time>
      </trkpt>
      <trkpt lat="48.15141" lon="3.32979">
        <ele>169.81</ele>
        <time>2015-11-29T10:55:29Z</time>
      </trkpt>
      <trkpt lat="48.1513" lon="3.32959">
        <ele>163.56</ele>
        <time>2015-11-29T10:55:34Z</time>
      </trkpt>
      <trkpt lat="48.15138" lon="3.32938">
        <ele>165</ele>
        <time>2015-11-29T10:55:39Z</time>
      </trkpt>
      <trkpt lat="48.15148" lon="3.32911">
        <ele>165.96</ele>
        <time>2015-11-29T10:55:45Z</time>
      </trkpt>
      <trkpt lat="48.15148" lon="3.32882">
        <ele>165.48</ele>
        <time>2015-11-29T10:55:50Z</time>
      </trkpt>
      <trkpt lat="48.15159" lon="3.32854">
        <ele>166.45</ele>
        <time>2015-11-29T10:55:57Z</time>
      </trkpt>
      <trkpt lat="48.1517" lon="3.32825">
        <ele>169.81</ele>
        <time>2015-11-29T10:56:06Z</time>
      </trkpt>
      <trkpt lat="48.15167" lon="3.32791">
        <ele>165</ele>
        <time>2015-11-29T10:56:11Z</time>
      </trkpt>
      <trkpt lat="48.15166" lon="3.32758">
        <ele>162.12</ele>
        <time>2015-11-29T10:56:15Z</time>
      </trkpt>
      <trkpt lat="48.15172" lon="3.32727">
        <ele>165</ele>
        <time>2015-11-29T10:56:21Z</time>
      </trkpt>
      <trkpt lat="48.15172" lon="3.32694">
        <ele>164.52</ele>
        <time>2015-11-29T10:56:27Z</time>
      </trkpt>
      <trkpt lat="48.15184" lon="3.32667">
        <ele>169.33</ele>
        <time>2015-11-29T10:56:37Z</time>
      </trkpt>
      <trkpt lat="48.15212" lon="3.32664">
        <ele>176.06</ele>
        <time>2015-11-29T10:57:02Z</time>
      </trkpt>
      <trkpt lat="48.15235" lon="3.3266">
        <ele>179.9</ele>
        <time>2015-11-29T10:57:28Z</time>
      </trkpt>
      <trkpt lat="48.15245" lon="3.32631">
        <ele>180.38</ele>
        <time>2015-11-29T10:57:50Z</time>
      </trkpt>
      <trkpt lat="48.15247" lon="3.32602">
        <ele>179.42</ele>
        <time>2015-11-29T10:58:01Z</time>
      </trkpt>
      <trkpt lat="48.15253" lon="3.32567">
        <ele>178.46</ele>
        <time>2015-11-29T10:58:09Z</time>
      </trkpt>
      <trkpt lat="48.15258" lon="3.32539">
        <ele>176.54</ele>
        <time>2015-11-29T10:58:16Z</time>
      </trkpt>
      <trkpt lat="48.15263" lon="3.32507">
        <ele>173.17</ele>
        <time>2015-11-29T10:58:21Z</time>
      </trkpt>
      <trkpt lat="48.15267" lon="3.32476">
        <ele>170.29</ele>
        <time>2015-11-29T10:58:26Z</time>
      </trkpt>
      <trkpt lat="48.15279" lon="3.32448">
        <ele>170.77</ele>
        <time>2015-11-29T10:58:30Z</time>
      </trkpt>
      <trkpt lat="48.15286" lon="3.32417">
        <ele>168.37</ele>
        <time>2015-11-29T10:58:34Z</time>
      </trkpt>
      <trkpt lat="48.15281" lon="3.32394">
        <ele>166.93</ele>
        <time>2015-11-29T10:58:42Z</time>
      </trkpt>
      <trkpt lat="48.15271" lon="3.32368">
        <ele>163.08</ele>
        <time>2015-11-29T10:58:47Z</time>
      </trkpt>
      <trkpt lat="48.15281" lon="3.32342">
        <ele>161.64</ele>
        <time>2015-11-29T10:59:07Z</time>
      </trkpt>
      <trkpt lat="48.15287" lon="3.32313">
        <ele>161.64</ele>
        <time>2015-11-29T10:59:14Z</time>
      </trkpt>
      <trkpt lat="48.15287" lon="3.32288">
        <ele>161.16</ele>
        <time>2015-11-29T10:59:19Z</time>
      </trkpt>
      <trkpt lat="48.15298" lon="3.32262">
        <ele>161.16</ele>
        <time>2015-11-29T10:59:25Z</time>
      </trkpt>
      <trkpt lat="48.15282" lon="3.32242">
        <ele>160.68</ele>
        <time>2015-11-29T10:59:30Z</time>
      </trkpt>
      <trkpt lat="48.15265" lon="3.32231">
        <ele>160.2</ele>
        <time>2015-11-29T10:59:34Z</time>
      </trkpt>
      <trkpt lat="48.15247" lon="3.32227">
        <ele>158.75</ele>
        <time>2015-11-29T10:59:39Z</time>
      </trkpt>
      <trkpt lat="48.15234" lon="3.32198">
        <ele>158.75</ele>
        <time>2015-11-29T10:59:45Z</time>
      </trkpt>
      <trkpt lat="48.15223" lon="3.32193">
        <ele>157.31</ele>
        <time>2015-11-29T10:59:51Z</time>
      </trkpt>
      <trkpt lat="48.15226" lon="3.32227">
        <ele>156.83</ele>
        <time>2015-11-29T10:59:57Z</time>
      </trkpt>
      <trkpt lat="48.15224" lon="3.32261">
        <ele>154.91</ele>
        <time>2015-11-29T11:00:04Z</time>
      </trkpt>
      <trkpt lat="48.15214" lon="3.32292">
        <ele>152.51</ele>
        <time>2015-11-29T11:00:10Z</time>
      </trkpt>
      <trkpt lat="48.15208" lon="3.32329">
        <ele>152.03</ele>
        <time>2015-11-29T11:00:16Z</time>
      </trkpt>
      <trkpt lat="48.15197" lon="3.32354">
        <ele>151.06</ele>
        <time>2015-11-29T11:00:20Z</time>
      </trkpt>
      <trkpt lat="48.15187" lon="3.32379">
        <ele>148.66</ele>
        <time>2015-11-29T11:00:24Z</time>
      </trkpt>
      <trkpt lat="48.15174" lon="3.32406">
        <ele>146.26</ele>
        <time>2015-11-29T11:00:30Z</time>
      </trkpt>
      <trkpt lat="48.15157" lon="3.32419">
        <ele>144.82</ele>
        <time>2015-11-29T11:00:37Z</time>
      </trkpt>
      <trkpt lat="48.1515" lon="3.32442">
        <ele>141.93</ele>
        <time>2015-11-29T11:01:53Z</time>
      </trkpt>
      <trkpt lat="48.15134" lon="3.32435">
        <ele>138.57</ele>
        <time>2015-11-29T11:02:13Z</time>
      </trkpt>
      <trkpt lat="48.15121" lon="3.32433">
        <ele>136.64</ele>
        <time>2015-11-29T11:03:18Z</time>
      </trkpt>
      <trkpt lat="48.15101" lon="3.32462">
        <ele>134.24</ele>
        <time>2015-11-29T11:04:27Z</time>
      </trkpt>
      <trkpt lat="48.15091" lon="3.32499">
        <ele>134.72</ele>
        <time>2015-11-29T11:04:46Z</time>
      </trkpt>
      <trkpt lat="48.15077" lon="3.32523">
        <ele>129.92</ele>
        <time>2015-11-29T11:04:54Z</time>
      </trkpt>
      <trkpt lat="48.15057" lon="3.32531">
        <ele>125.59</ele>
        <time>2015-11-29T11:04:59Z</time>
      </trkpt>
      <trkpt lat="48.1504" lon="3.3255">
        <ele>121.26</ele>
        <time>2015-11-29T11:05:05Z</time>
      </trkpt>
      <trkpt lat="48.15029" lon="3.32528">
        <ele>117.42</ele>
        <time>2015-11-29T11:05:11Z</time>
      </trkpt>
      <trkpt lat="48.15012" lon="3.32533">
        <ele>114.05</ele>
        <time>2015-11-29T11:05:32Z</time>
      </trkpt>
      <trkpt lat="48.14995" lon="3.32555">
        <ele>111.65</ele>
        <time>2015-11-29T11:05:36Z</time>
      </trkpt>
      <trkpt lat="48.14999" lon="3.32585">
        <ele>114.53</ele>
        <time>2015-11-29T11:05:42Z</time>
      </trkpt>
      <trkpt lat="48.14999" lon="3.32614">
        <ele>116.46</ele>
        <time>2015-11-29T11:05:50Z</time>
      </trkpt>
      <trkpt lat="48.14995" lon="3.32604">
        <ele>116.94</ele>
        <time>2015-11-29T11:06:33Z</time>
      </trkpt>
      <trkpt lat="48.14998" lon="3.32571">
        <ele>112.61</ele>
        <time>2015-11-29T11:06:40Z</time>
      </trkpt>
      <trkpt lat="48.14999" lon="3.32543">
        <ele>111.65</ele>
        <time>2015-11-29T11:06:45Z</time>
      </trkpt>
      <trkpt lat="48.14996" lon="3.32537">
        <ele>111.65</ele>
        <time>2015-11-29T11:07:35Z</time>
      </trkpt>
      <trkpt lat="48.15002" lon="3.32562">
        <ele>113.09</ele>
        <time>2015-11-29T11:08:13Z</time>
      </trkpt>
      <trkpt lat="48.15004" lon="3.32592">
        <ele>114.53</ele>
        <time>2015-11-29T11:08:23Z</time>
      </trkpt>
      <trkpt lat="48.14999" lon="3.3262">
        <ele>116.94</ele>
        <time>2015-11-29T11:08:34Z</time>
      </trkpt>
      <trkpt lat="48.14996" lon="3.3261">
        <ele>117.42</ele>
        <time>2015-11-29T11:13:49Z</time>
      </trkpt>
      <trkpt lat="48.14998" lon="3.32579">
        <ele>113.57</ele>
        <time>2015-11-29T11:13:59Z</time>
      </trkpt>
      <trkpt lat="48.14999" lon="3.32549">
        <ele>112.13</ele>
        <time>2015-11-29T11:14:05Z</time>
      </trkpt>
      <trkpt lat="48.14996" lon="3.32532">
        <ele>111.65</ele>
        <time>2015-11-29T11:15:50Z</time>
      </trkpt>
      <trkpt lat="48.14999" lon="3.3256">
        <ele>112.61</ele>
        <time>2015-11-29T11:15:59Z</time>
      </trkpt>
      <trkpt lat="48.15001" lon="3.32588">
        <ele>114.05</ele>
        <time>2015-11-29T11:16:07Z</time>
      </trkpt>
      <trkpt lat="48.15" lon="3.32615">
        <ele>116.46</ele>
        <time>2015-11-29T11:16:16Z</time>
      </trkpt>
      <trkpt lat="48.15001" lon="3.32645">
        <ele>119.34</ele>
        <time>2015-11-29T11:16:25Z</time>
      </trkpt>
      <trkpt lat="48.1499" lon="3.32666">
        <ele>123.67</ele>
        <time>2015-11-29T11:16:36Z</time>
      </trkpt>
      <trkpt lat="48.1497" lon="3.32659">
        <ele>124.63</ele>
        <time>2015-11-29T11:16:48Z</time>
      </trkpt>
      <trkpt lat="48.14955" lon="3.32639">
        <ele>120.78</ele>
        <time>2015-11-29T11:16:56Z</time>
      </trkpt>
      <trkpt lat="48.14939" lon="3.32621">
        <ele>115.01</ele>
        <time>2015-11-29T11:17:06Z</time>
      </trkpt>
      <trkpt lat="48.14918" lon="3.32619">
        <ele>111.65</ele>
        <time>2015-11-29T11:17:16Z</time>
      </trkpt>
      <trkpt lat="48.14898" lon="3.32613">
        <ele>108.77</ele>
        <time>2015-11-29T11:17:22Z</time>
      </trkpt>
      <trkpt lat="48.14883" lon="3.32592">
        <ele>106.36</ele>
        <time>2015-11-29T11:17:27Z</time>
      </trkpt>
      <trkpt lat="48.14863" lon="3.32603">
        <ele>106.84</ele>
        <time>2015-11-29T11:17:34Z</time>
      </trkpt>
      <trkpt lat="48.14845" lon="3.32613">
        <ele>106.84</ele>
        <time>2015-11-29T11:17:40Z</time>
      </trkpt>
      <trkpt lat="48.14824" lon="3.32623">
        <ele>107.32</ele>
        <time>2015-11-29T11:17:47Z</time>
      </trkpt>
      <trkpt lat="48.14804" lon="3.3263">
        <ele>107.81</ele>
        <time>2015-11-29T11:17:55Z</time>
      </trkpt>
      <trkpt lat="48.14783" lon="3.32635">
        <ele>109.25</ele>
        <time>2015-11-29T11:18:03Z</time>
      </trkpt>
      <trkpt lat="48.14763" lon="3.32638">
        <ele>108.77</ele>
        <time>2015-11-29T11:18:10Z</time>
      </trkpt>
      <trkpt lat="48.1474" lon="3.32639">
        <ele>109.73</ele>
        <time>2015-11-29T11:18:18Z</time>
      </trkpt>
      <trkpt lat="48.14719" lon="3.32636">
        <ele>110.69</ele>
        <time>2015-11-29T11:18:25Z</time>
      </trkpt>
      <trkpt lat="48.14698" lon="3.32633">
        <ele>111.17</ele>
        <time>2015-11-29T11:18:32Z</time>
      </trkpt>
      <trkpt lat="48.14677" lon="3.3263">
        <ele>112.13</ele>
        <time>2015-11-29T11:18:39Z</time>
      </trkpt>
      <trkpt lat="48.14655" lon="3.32621">
        <ele>112.61</ele>
        <time>2015-11-29T11:18:47Z</time>
      </trkpt>
      <trkpt lat="48.14637" lon="3.32619">
        <ele>113.09</ele>
        <time>2015-11-29T11:18:59Z</time>
      </trkpt>
      <trkpt lat="48.14616" lon="3.32629">
        <ele>114.05</ele>
        <time>2015-11-29T11:19:08Z</time>
      </trkpt>
      <trkpt lat="48.14595" lon="3.32642">
        <ele>114.53</ele>
        <time>2015-11-29T11:19:16Z</time>
      </trkpt>
      <trkpt lat="48.14571" lon="3.32656">
        <ele>115.98</ele>
        <time>2015-11-29T11:19:23Z</time>
      </trkpt>
      <trkpt lat="48.14553" lon="3.32666">
        <ele>116.94</ele>
        <time>2015-11-29T11:19:29Z</time>
      </trkpt>
      <trkpt lat="48.14536" lon="3.32679">
        <ele>116.46</ele>
        <time>2015-11-29T11:19:35Z</time>
      </trkpt>
      <trkpt lat="48.14519" lon="3.32692">
        <ele>117.42</ele>
        <time>2015-11-29T11:19:41Z</time>
      </trkpt>
      <trkpt lat="48.14502" lon="3.32706">
        <ele>117.42</ele>
        <time>2015-11-29T11:19:47Z</time>
      </trkpt>
      <trkpt lat="48.14485" lon="3.3272">
        <ele>119.34</ele>
        <time>2015-11-29T11:19:53Z</time>
      </trkpt>
      <trkpt lat="48.14467" lon="3.32735">
        <ele>119.34</ele>
        <time>2015-11-29T11:19:59Z</time>
      </trkpt>
      <trkpt lat="48.14449" lon="3.32751">
        <ele>119.82</ele>
        <time>2015-11-29T11:20:05Z</time>
      </trkpt>
      <trkpt lat="48.1443" lon="3.32768">
        <ele>120.78</ele>
        <time>2015-11-29T11:20:11Z</time>
      </trkpt>
      <trkpt lat="48.14412" lon="3.32784">
        <ele>121.26</ele>
        <time>2015-11-29T11:20:17Z</time>
      </trkpt>
      <trkpt lat="48.14393" lon="3.32802">
        <ele>121.74</ele>
        <time>2015-11-29T11:20:23Z</time>
      </trkpt>
      <trkpt lat="48.14376" lon="3.3282">
        <ele>122.22</ele>
        <time>2015-11-29T11:20:29Z</time>
      </trkpt>
      <trkpt lat="48.14362" lon="3.32838">
        <ele>123.67</ele>
        <time>2015-11-29T11:20:34Z</time>
      </trkpt>
      <trkpt lat="48.14347" lon="3.32859">
        <ele>124.15</ele>
        <time>2015-11-29T11:20:39Z</time>
      </trkpt>
      <trkpt lat="48.14334" lon="3.3288">
        <ele>124.63</ele>
        <time>2015-11-29T11:20:44Z</time>
      </trkpt>
      <trkpt lat="48.1432" lon="3.32903">
        <ele>125.11</ele>
        <time>2015-11-29T11:20:49Z</time>
      </trkpt>
      <trkpt lat="48.14307" lon="3.32926">
        <ele>126.07</ele>
        <time>2015-11-29T11:20:54Z</time>
      </trkpt>
      <trkpt lat="48.14293" lon="3.3295">
        <ele>126.55</ele>
        <time>2015-11-29T11:20:59Z</time>
      </trkpt>
      <trkpt lat="48.14279" lon="3.32972">
        <ele>127.03</ele>
        <time>2015-11-29T11:21:04Z</time>
      </trkpt>
      <trkpt lat="48.14264" lon="3.32992">
        <ele>127.03</ele>
        <time>2015-11-29T11:21:09Z</time>
      </trkpt>
      <trkpt lat="48.14249" lon="3.3301">
        <ele>127.51</ele>
        <time>2015-11-29T11:21:14Z</time>
      </trkpt>
      <trkpt lat="48.14234" lon="3.33028">
        <ele>128.47</ele>
        <time>2015-11-29T11:21:19Z</time>
      </trkpt>
      <trkpt lat="48.14218" lon="3.33044">
        <ele>129.92</ele>
        <time>2015-11-29T11:21:25Z</time>
      </trkpt>
      <trkpt lat="48.142" lon="3.33056">
        <ele>130.4</ele>
        <time>2015-11-29T11:21:46Z</time>
      </trkpt>
      <trkpt lat="48.14182" lon="3.3307">
        <ele>130.4</ele>
        <time>2015-11-29T11:21:53Z</time>
      </trkpt>
      <trkpt lat="48.14161" lon="3.3308">
        <ele>129.43</ele>
        <time>2015-11-29T11:21:59Z</time>
      </trkpt>
      <trkpt lat="48.14144" lon="3.33085">
        <ele>129.43</ele>
        <time>2015-11-29T11:22:04Z</time>
      </trkpt>
      <trkpt lat="48.14124" lon="3.33078">
        <ele>129.92</ele>
        <time>2015-11-29T11:22:10Z</time>
      </trkpt>
      <trkpt lat="48.14104" lon="3.33067">
        <ele>131.36</ele>
        <time>2015-11-29T11:22:16Z</time>
      </trkpt>
      <trkpt lat="48.14083" lon="3.33057">
        <ele>131.36</ele>
        <time>2015-11-29T11:22:22Z</time>
      </trkpt>
      <trkpt lat="48.14064" lon="3.33045">
        <ele>133.28</ele>
        <time>2015-11-29T11:22:28Z</time>
      </trkpt>
      <trkpt lat="48.14048" lon="3.33028">
        <ele>134.72</ele>
        <time>2015-11-29T11:22:34Z</time>
      </trkpt>
      <trkpt lat="48.14034" lon="3.33009">
        <ele>135.68</ele>
        <time>2015-11-29T11:22:40Z</time>
      </trkpt>
      <trkpt lat="48.14021" lon="3.32988">
        <ele>137.13</ele>
        <time>2015-11-29T11:22:46Z</time>
      </trkpt>
      <trkpt lat="48.14003" lon="3.32978">
        <ele>139.05</ele>
        <time>2015-11-29T11:22:53Z</time>
      </trkpt>
      <trkpt lat="48.13986" lon="3.32969">
        <ele>140.49</ele>
        <time>2015-11-29T11:23:01Z</time>
      </trkpt>
      <trkpt lat="48.13971" lon="3.32948">
        <ele>140.49</ele>
        <time>2015-11-29T11:23:09Z</time>
      </trkpt>
      <trkpt lat="48.13956" lon="3.3293">
        <ele>142.41</ele>
        <time>2015-11-29T11:23:17Z</time>
      </trkpt>
      <trkpt lat="48.13939" lon="3.3291">
        <ele>143.85</ele>
        <time>2015-11-29T11:23:25Z</time>
      </trkpt>
      <trkpt lat="48.13923" lon="3.3289">
        <ele>145.78</ele>
        <time>2015-11-29T11:23:32Z</time>
      </trkpt>
      <trkpt lat="48.13908" lon="3.3287">
        <ele>145.78</ele>
        <time>2015-11-29T11:23:39Z</time>
      </trkpt>
      <trkpt lat="48.13891" lon="3.32851">
        <ele>147.7</ele>
        <time>2015-11-29T11:23:46Z</time>
      </trkpt>
      <trkpt lat="48.13877" lon="3.32835">
        <ele>148.18</ele>
        <time>2015-11-29T11:23:52Z</time>
      </trkpt>
      <trkpt lat="48.13863" lon="3.32819">
        <ele>148.66</ele>
        <time>2015-11-29T11:23:58Z</time>
      </trkpt>
      <trkpt lat="48.13847" lon="3.328">
        <ele>150.58</ele>
        <time>2015-11-29T11:24:05Z</time>
      </trkpt>
      <trkpt lat="48.13833" lon="3.32782">
        <ele>151.06</ele>
        <time>2015-11-29T11:24:11Z</time>
      </trkpt>
      <trkpt lat="48.13818" lon="3.32764">
        <ele>152.99</ele>
        <time>2015-11-29T11:24:17Z</time>
      </trkpt>
      <trkpt lat="48.13804" lon="3.32744">
        <ele>153.95</ele>
        <time>2015-11-29T11:24:23Z</time>
      </trkpt>
      <trkpt lat="48.1379" lon="3.32727">
        <ele>155.39</ele>
        <time>2015-11-29T11:24:29Z</time>
      </trkpt>
      <trkpt lat="48.13775" lon="3.32709">
        <ele>155.87</ele>
        <time>2015-11-29T11:24:35Z</time>
      </trkpt>
      <trkpt lat="48.13761" lon="3.32692">
        <ele>156.83</ele>
        <time>2015-11-29T11:24:41Z</time>
      </trkpt>
      <trkpt lat="48.13747" lon="3.32674">
        <ele>158.75</ele>
        <time>2015-11-29T11:24:47Z</time>
      </trkpt>
      <trkpt lat="48.13731" lon="3.32655">
        <ele>160.2</ele>
        <time>2015-11-29T11:24:54Z</time>
      </trkpt>
      <trkpt lat="48.13715" lon="3.32634">
        <ele>162.12</ele>
        <time>2015-11-29T11:25:01Z</time>
      </trkpt>
      <trkpt lat="48.137" lon="3.32616">
        <ele>164.04</ele>
        <time>2015-11-29T11:25:07Z</time>
      </trkpt>
      <trkpt lat="48.13685" lon="3.32597">
        <ele>165</ele>
        <time>2015-11-29T11:25:13Z</time>
      </trkpt>
      <trkpt lat="48.1367" lon="3.32579">
        <ele>166.45</ele>
        <time>2015-11-29T11:25:19Z</time>
      </trkpt>
      <trkpt lat="48.13653" lon="3.32559">
        <ele>168.37</ele>
        <time>2015-11-29T11:25:26Z</time>
      </trkpt>
      <trkpt lat="48.13638" lon="3.32542">
        <ele>170.29</ele>
        <time>2015-11-29T11:25:32Z</time>
      </trkpt>
      <trkpt lat="48.13623" lon="3.32523">
        <ele>170.29</ele>
        <time>2015-11-29T11:25:38Z</time>
      </trkpt>
      <trkpt lat="48.13609" lon="3.32505">
        <ele>172.21</ele>
        <time>2015-11-29T11:25:44Z</time>
      </trkpt>
      <trkpt lat="48.13594" lon="3.32487">
        <ele>173.66</ele>
        <time>2015-11-29T11:25:50Z</time>
      </trkpt>
      <trkpt lat="48.13579" lon="3.32471">
        <ele>175.1</ele>
        <time>2015-11-29T11:25:57Z</time>
      </trkpt>
      <trkpt lat="48.13579" lon="3.32474">
        <ele>174.62</ele>
        <time>2015-11-29T11:28:26Z</time>
      </trkpt>
      <trkpt lat="48.13566" lon="3.32486">
        <ele>174.62</ele>
        <time>2015-11-29T11:29:34Z</time>
      </trkpt>
      <trkpt lat="48.1355" lon="3.32508">
        <ele>175.58</ele>
        <time>2015-11-29T11:29:42Z</time>
      </trkpt>
      <trkpt lat="48.13533" lon="3.32533">
        <ele>175.58</ele>
        <time>2015-11-29T11:29:50Z</time>
      </trkpt>
      <trkpt lat="48.13518" lon="3.3256">
        <ele>177.02</ele>
        <time>2015-11-29T11:29:57Z</time>
      </trkpt>
      <trkpt lat="48.13508" lon="3.32586">
        <ele>177.5</ele>
        <time>2015-11-29T11:30:03Z</time>
      </trkpt>
      <trkpt lat="48.13501" lon="3.32613">
        <ele>177.02</ele>
        <time>2015-11-29T11:30:09Z</time>
      </trkpt>
      <trkpt lat="48.13493" lon="3.32642">
        <ele>178.46</ele>
        <time>2015-11-29T11:30:16Z</time>
      </trkpt>
      <trkpt lat="48.13484" lon="3.32668">
        <ele>178.46</ele>
        <time>2015-11-29T11:30:22Z</time>
      </trkpt>
      <trkpt lat="48.13474" lon="3.32696">
        <ele>177.98</ele>
        <time>2015-11-29T11:30:27Z</time>
      </trkpt>
      <trkpt lat="48.13464" lon="3.32723">
        <ele>177.98</ele>
        <time>2015-11-29T11:30:31Z</time>
      </trkpt>
      <trkpt lat="48.13455" lon="3.32756">
        <ele>177.5</ele>
        <time>2015-11-29T11:30:36Z</time>
      </trkpt>
      <trkpt lat="48.13447" lon="3.32784">
        <ele>177.98</ele>
        <time>2015-11-29T11:30:40Z</time>
      </trkpt>
      <trkpt lat="48.13439" lon="3.32811">
        <ele>177.98</ele>
        <time>2015-11-29T11:30:44Z</time>
      </trkpt>
      <trkpt lat="48.13433" lon="3.32838">
        <ele>177.98</ele>
        <time>2015-11-29T11:30:48Z</time>
      </trkpt>
      <trkpt lat="48.13428" lon="3.32866">
        <ele>177.98</ele>
        <time>2015-11-29T11:30:52Z</time>
      </trkpt>
      <trkpt lat="48.13419" lon="3.32897">
        <ele>178.94</ele>
        <time>2015-11-29T11:30:56Z</time>
      </trkpt>
      <trkpt lat="48.13411" lon="3.32929">
        <ele>179.9</ele>
        <time>2015-11-29T11:31:01Z</time>
      </trkpt>
      <trkpt lat="48.13404" lon="3.3296">
        <ele>180.38</ele>
        <time>2015-11-29T11:31:06Z</time>
      </trkpt>
      <trkpt lat="48.13392" lon="3.32973">
        <ele>181.35</ele>
        <time>2015-11-29T11:31:41Z</time>
      </trkpt>
      <trkpt lat="48.13382" lon="3.33001">
        <ele>181.83</ele>
        <time>2015-11-29T11:31:47Z</time>
      </trkpt>
      <trkpt lat="48.1337" lon="3.3303">
        <ele>181.83</ele>
        <time>2015-11-29T11:31:52Z</time>
      </trkpt>
      <trkpt lat="48.13358" lon="3.33053">
        <ele>181.83</ele>
        <time>2015-11-29T11:31:56Z</time>
      </trkpt>
      <trkpt lat="48.13346" lon="3.33075">
        <ele>181.83</ele>
        <time>2015-11-29T11:32:00Z</time>
      </trkpt>
      <trkpt lat="48.13334" lon="3.33098">
        <ele>181.35</ele>
        <time>2015-11-29T11:32:04Z</time>
      </trkpt>
      <trkpt lat="48.13315" lon="3.33103">
        <ele>180.38</ele>
        <time>2015-11-29T11:32:10Z</time>
      </trkpt>
      <trkpt lat="48.13298" lon="3.33088">
        <ele>177.5</ele>
        <time>2015-11-29T11:32:15Z</time>
      </trkpt>
      <trkpt lat="48.13282" lon="3.33069">
        <ele>175.58</ele>
        <time>2015-11-29T11:32:19Z</time>
      </trkpt>
      <trkpt lat="48.13263" lon="3.33051">
        <ele>175.1</ele>
        <time>2015-11-29T11:32:24Z</time>
      </trkpt>
      <trkpt lat="48.1325" lon="3.33029">
        <ele>173.66</ele>
        <time>2015-11-29T11:33:36Z</time>
      </trkpt>
      <trkpt lat="48.13273" lon="3.33024">
        <ele>176.06</ele>
        <time>2015-11-29T11:33:49Z</time>
      </trkpt>
      <trkpt lat="48.13289" lon="3.32995">
        <ele>176.54</ele>
        <time>2015-11-29T11:33:59Z</time>
      </trkpt>
      <trkpt lat="48.13305" lon="3.32968">
        <ele>176.06</ele>
        <time>2015-11-29T11:34:07Z</time>
      </trkpt>
      <trkpt lat="48.13328" lon="3.32951">
        <ele>176.54</ele>
        <time>2015-11-29T11:34:16Z</time>
      </trkpt>
      <trkpt lat="48.13347" lon="3.32929">
        <ele>177.02</ele>
        <time>2015-11-29T11:34:22Z</time>
      </trkpt>
      <trkpt lat="48.13346" lon="3.32896">
        <ele>177.98</ele>
        <time>2015-11-29T11:34:30Z</time>
      </trkpt>
      <trkpt lat="48.13336" lon="3.32868">
        <ele>177.02</ele>
        <time>2015-11-29T11:34:38Z</time>
      </trkpt>
      <trkpt lat="48.13324" lon="3.3284">
        <ele>175.1</ele>
        <time>2015-11-29T11:34:44Z</time>
      </trkpt>
      <trkpt lat="48.13312" lon="3.32817">
        <ele>175.1</ele>
        <time>2015-11-29T11:34:49Z</time>
      </trkpt>
      <trkpt lat="48.13299" lon="3.32794">
        <ele>174.62</ele>
        <time>2015-11-29T11:34:53Z</time>
      </trkpt>
      <trkpt lat="48.1328" lon="3.32774">
        <ele>173.66</ele>
        <time>2015-11-29T11:34:57Z</time>
      </trkpt>
      <trkpt lat="48.13261" lon="3.32752">
        <ele>173.66</ele>
        <time>2015-11-29T11:35:01Z</time>
      </trkpt>
      <trkpt lat="48.13248" lon="3.3273">
        <ele>173.17</ele>
        <time>2015-11-29T11:35:04Z</time>
      </trkpt>
      <trkpt lat="48.1324" lon="3.32705">
        <ele>173.66</ele>
        <time>2015-11-29T11:35:07Z</time>
      </trkpt>
      <trkpt lat="48.13229" lon="3.32677">
        <ele>175.1</ele>
        <time>2015-11-29T11:35:11Z</time>
      </trkpt>
      <trkpt lat="48.13218" lon="3.32655">
        <ele>176.06</ele>
        <time>2015-11-29T11:35:15Z</time>
      </trkpt>
      <trkpt lat="48.132" lon="3.32632">
        <ele>176.54</ele>
        <time>2015-11-29T11:35:20Z</time>
      </trkpt>
      <trkpt lat="48.13184" lon="3.32613">
        <ele>175.58</ele>
        <time>2015-11-29T11:35:24Z</time>
      </trkpt>
      <trkpt lat="48.13171" lon="3.32591">
        <ele>176.54</ele>
        <time>2015-11-29T11:35:28Z</time>
      </trkpt>
      <trkpt lat="48.13157" lon="3.32565">
        <ele>176.54</ele>
        <time>2015-11-29T11:35:32Z</time>
      </trkpt>
      <trkpt lat="48.13137" lon="3.3254">
        <ele>176.54</ele>
        <time>2015-11-29T11:35:36Z</time>
      </trkpt>
      <trkpt lat="48.13122" lon="3.32517">
        <ele>176.06</ele>
        <time>2015-11-29T11:35:39Z</time>
      </trkpt>
      <trkpt lat="48.13107" lon="3.32492">
        <ele>175.58</ele>
        <time>2015-11-29T11:35:42Z</time>
      </trkpt>
      <trkpt lat="48.13091" lon="3.3247">
        <ele>175.58</ele>
        <time>2015-11-29T11:35:45Z</time>
      </trkpt>
      <trkpt lat="48.13077" lon="3.32447">
        <ele>174.62</ele>
        <time>2015-11-29T11:35:48Z</time>
      </trkpt>
      <trkpt lat="48.13066" lon="3.3242">
        <ele>174.14</ele>
        <time>2015-11-29T11:35:51Z</time>
      </trkpt>
      <trkpt lat="48.13055" lon="3.32394">
        <ele>174.62</ele>
        <time>2015-11-29T11:35:54Z</time>
      </trkpt>
      <trkpt lat="48.13045" lon="3.32368">
        <ele>175.1</ele>
        <time>2015-11-29T11:35:57Z</time>
      </trkpt>
      <trkpt lat="48.13033" lon="3.32336">
        <ele>175.1</ele>
        <time>2015-11-29T11:36:01Z</time>
      </trkpt>
      <trkpt lat="48.13024" lon="3.32312">
        <ele>175.58</ele>
        <time>2015-11-29T11:36:04Z</time>
      </trkpt>
      <trkpt lat="48.13013" lon="3.32286">
        <ele>175.58</ele>
        <time>2015-11-29T11:36:07Z</time>
      </trkpt>
      <trkpt lat="48.13004" lon="3.3226">
        <ele>174.62</ele>
        <time>2015-11-29T11:36:10Z</time>
      </trkpt>
      <trkpt lat="48.12994" lon="3.32235">
        <ele>173.66</ele>
        <time>2015-11-29T11:36:13Z</time>
      </trkpt>
      <trkpt lat="48.12982" lon="3.32205">
        <ele>173.17</ele>
        <time>2015-11-29T11:36:17Z</time>
      </trkpt>
      <trkpt lat="48.1297" lon="3.32172">
        <ele>171.25</ele>
        <time>2015-11-29T11:36:21Z</time>
      </trkpt>
      <trkpt lat="48.12964" lon="3.32143">
        <ele>169.81</ele>
        <time>2015-11-29T11:36:24Z</time>
      </trkpt>
      <trkpt lat="48.12962" lon="3.3211">
        <ele>168.37</ele>
        <time>2015-11-29T11:36:27Z</time>
      </trkpt>
      <trkpt lat="48.12961" lon="3.32079">
        <ele>167.41</ele>
        <time>2015-11-29T11:36:30Z</time>
      </trkpt>
      <trkpt lat="48.12958" lon="3.32052">
        <ele>165.48</ele>
        <time>2015-11-29T11:36:33Z</time>
      </trkpt>
      <trkpt lat="48.12957" lon="3.32016">
        <ele>162.6</ele>
        <time>2015-11-29T11:36:37Z</time>
      </trkpt>
      <trkpt lat="48.1294" lon="3.32001">
        <ele>163.08</ele>
        <time>2015-11-29T11:36:44Z</time>
      </trkpt>
      <trkpt lat="48.12917" lon="3.31987">
        <ele>165</ele>
        <time>2015-11-29T11:36:50Z</time>
      </trkpt>
      <trkpt lat="48.12895" lon="3.3198">
        <ele>166.93</ele>
        <time>2015-11-29T11:36:55Z</time>
      </trkpt>
      <trkpt lat="48.12874" lon="3.31974">
        <ele>167.41</ele>
        <time>2015-11-29T11:37:00Z</time>
      </trkpt>
      <trkpt lat="48.1285" lon="3.31975">
        <ele>170.29</ele>
        <time>2015-11-29T11:37:07Z</time>
      </trkpt>
      <trkpt lat="48.12836" lon="3.31953">
        <ele>166.93</ele>
        <time>2015-11-29T11:37:13Z</time>
      </trkpt>
      <trkpt lat="48.12818" lon="3.31936">
        <ele>160.68</ele>
        <time>2015-11-29T11:37:20Z</time>
      </trkpt>
      <trkpt lat="48.12815" lon="3.31907">
        <ele>160.68</ele>
        <time>2015-11-29T11:37:25Z</time>
      </trkpt>
      <trkpt lat="48.12798" lon="3.31895">
        <ele>162.12</ele>
        <time>2015-11-29T11:37:34Z</time>
      </trkpt>
      <trkpt lat="48.12779" lon="3.31906">
        <ele>160.68</ele>
        <time>2015-11-29T11:37:39Z</time>
      </trkpt>
      <trkpt lat="48.12762" lon="3.31876">
        <ele>160.2</ele>
        <time>2015-11-29T11:37:48Z</time>
      </trkpt>
      <trkpt lat="48.12741" lon="3.31868">
        <ele>153.47</ele>
        <time>2015-11-29T11:37:54Z</time>
      </trkpt>
      <trkpt lat="48.12719" lon="3.31872">
        <ele>147.22</ele>
        <time>2015-11-29T11:38:00Z</time>
      </trkpt>
      <trkpt lat="48.12697" lon="3.31868">
        <ele>137.61</ele>
        <time>2015-11-29T11:38:10Z</time>
      </trkpt>
      <trkpt lat="48.1268" lon="3.31848">
        <ele>130.88</ele>
        <time>2015-11-29T11:38:17Z</time>
      </trkpt>
      <trkpt lat="48.12661" lon="3.31831">
        <ele>127.03</ele>
        <time>2015-11-29T11:38:22Z</time>
      </trkpt>
      <trkpt lat="48.12638" lon="3.31819">
        <ele>122.22</ele>
        <time>2015-11-29T11:38:30Z</time>
      </trkpt>
      <trkpt lat="48.12623" lon="3.31798">
        <ele>118.86</ele>
        <time>2015-11-29T11:38:35Z</time>
      </trkpt>
      <trkpt lat="48.12623" lon="3.3177">
        <ele>115.5</ele>
        <time>2015-11-29T11:38:39Z</time>
      </trkpt>
      <trkpt lat="48.12631" lon="3.31738">
        <ele>115.5</ele>
        <time>2015-11-29T11:38:43Z</time>
      </trkpt>
      <trkpt lat="48.12638" lon="3.3171">
        <ele>114.53</ele>
        <time>2015-11-29T11:38:46Z</time>
      </trkpt>
      <trkpt lat="48.12645" lon="3.31682">
        <ele>115.98</ele>
        <time>2015-11-29T11:38:49Z</time>
      </trkpt>
      <trkpt lat="48.12647" lon="3.31648">
        <ele>115.98</ele>
        <time>2015-11-29T11:38:53Z</time>
      </trkpt>
      <trkpt lat="48.12651" lon="3.31618">
        <ele>115.98</ele>
        <time>2015-11-29T11:38:58Z</time>
      </trkpt>
      <trkpt lat="48.12653" lon="3.31586">
        <ele>113.57</ele>
        <time>2015-11-29T11:39:03Z</time>
      </trkpt>
      <trkpt lat="48.12656" lon="3.31555">
        <ele>111.65</ele>
        <time>2015-11-29T11:39:07Z</time>
      </trkpt>
      <trkpt lat="48.12659" lon="3.31522">
        <ele>111.65</ele>
        <time>2015-11-29T11:39:11Z</time>
      </trkpt>
      <trkpt lat="48.12662" lon="3.3149">
        <ele>111.17</ele>
        <time>2015-11-29T11:39:15Z</time>
      </trkpt>
      <trkpt lat="48.12665" lon="3.31463">
        <ele>111.17</ele>
        <time>2015-11-29T11:39:19Z</time>
      </trkpt>
      <trkpt lat="48.12667" lon="3.31433">
        <ele>110.69</ele>
        <time>2015-11-29T11:39:24Z</time>
      </trkpt>
      <trkpt lat="48.1267" lon="3.31405">
        <ele>111.65</ele>
        <time>2015-11-29T11:39:29Z</time>
      </trkpt>
      <trkpt lat="48.12673" lon="3.31374">
        <ele>111.65</ele>
        <time>2015-11-29T11:39:35Z</time>
      </trkpt>
      <trkpt lat="48.12677" lon="3.31345">
        <ele>111.17</ele>
        <time>2015-11-29T11:39:41Z</time>
      </trkpt>
      <trkpt lat="48.12667" lon="3.31324">
        <ele>110.21</ele>
        <time>2015-11-29T11:39:47Z</time>
      </trkpt>
      <trkpt lat="48.12647" lon="3.31317">
        <ele>107.81</ele>
        <time>2015-11-29T11:39:52Z</time>
      </trkpt>
      <trkpt lat="48.12627" lon="3.31306">
        <ele>106.84</ele>
        <time>2015-11-29T11:39:56Z</time>
      </trkpt>
      <trkpt lat="48.12613" lon="3.31278">
        <ele>104.92</ele>
        <time>2015-11-29T11:40:00Z</time>
      </trkpt>
      <trkpt lat="48.1261" lon="3.31245">
        <ele>102.52</ele>
        <time>2015-11-29T11:40:03Z</time>
      </trkpt>
      <trkpt lat="48.12616" lon="3.31213">
        <ele>100.6</ele>
        <time>2015-11-29T11:40:06Z</time>
      </trkpt>
      <trkpt lat="48.12618" lon="3.31182">
        <ele>99.15</ele>
        <time>2015-11-29T11:40:09Z</time>
      </trkpt>
      <trkpt lat="48.12618" lon="3.31153">
        <ele>98.19</ele>
        <time>2015-11-29T11:40:12Z</time>
      </trkpt>
      <trkpt lat="48.12619" lon="3.31124">
        <ele>95.79</ele>
        <time>2015-11-29T11:40:15Z</time>
      </trkpt>
      <trkpt lat="48.12616" lon="3.31098">
        <ele>94.35</ele>
        <time>2015-11-29T11:40:20Z</time>
      </trkpt>
      <trkpt lat="48.12595" lon="3.31094">
        <ele>93.87</ele>
        <time>2015-11-29T11:40:31Z</time>
      </trkpt>
      <trkpt lat="48.12575" lon="3.31089">
        <ele>89.54</ele>
        <time>2015-11-29T11:40:35Z</time>
      </trkpt>
      <trkpt lat="48.12557" lon="3.31083">
        <ele>85.69</ele>
        <time>2015-11-29T11:40:39Z</time>
      </trkpt>
      <trkpt lat="48.12539" lon="3.31087">
        <ele>85.21</ele>
        <time>2015-11-29T11:40:50Z</time>
      </trkpt>
      <trkpt lat="48.1252" lon="3.31085">
        <ele>85.21</ele>
        <time>2015-11-29T11:40:57Z</time>
      </trkpt>
      <trkpt lat="48.12499" lon="3.3108">
        <ele>84.73</ele>
        <time>2015-11-29T11:41:03Z</time>
      </trkpt>
      <trkpt lat="48.12478" lon="3.31076">
        <ele>85.69</ele>
        <time>2015-11-29T11:41:09Z</time>
      </trkpt>
      <trkpt lat="48.12458" lon="3.31074">
        <ele>85.21</ele>
        <time>2015-11-29T11:41:15Z</time>
      </trkpt>
      <trkpt lat="48.1244" lon="3.31073">
        <ele>84.73</ele>
        <time>2015-11-29T11:41:20Z</time>
      </trkpt>
      <trkpt lat="48.12421" lon="3.3107">
        <ele>85.69</ele>
        <time>2015-11-29T11:41:26Z</time>
      </trkpt>
      <trkpt lat="48.12401" lon="3.31068">
        <ele>86.18</ele>
        <time>2015-11-29T11:41:32Z</time>
      </trkpt>
      <trkpt lat="48.12383" lon="3.31066">
        <ele>86.66</ele>
        <time>2015-11-29T11:41:38Z</time>
      </trkpt>
      <trkpt lat="48.12365" lon="3.31064">
        <ele>87.14</ele>
        <time>2015-11-29T11:41:44Z</time>
      </trkpt>
      <trkpt lat="48.12345" lon="3.3106">
        <ele>87.62</ele>
        <time>2015-11-29T11:41:50Z</time>
      </trkpt>
      <trkpt lat="48.12326" lon="3.31056">
        <ele>89.54</ele>
        <time>2015-11-29T11:41:59Z</time>
      </trkpt>
      <trkpt lat="48.12306" lon="3.31055">
        <ele>90.5</ele>
        <time>2015-11-29T11:42:06Z</time>
      </trkpt>
      <trkpt lat="48.12287" lon="3.31056">
        <ele>91.46</ele>
        <time>2015-11-29T11:42:13Z</time>
      </trkpt>
      <trkpt lat="48.12268" lon="3.31058">
        <ele>93.39</ele>
        <time>2015-11-29T11:42:20Z</time>
      </trkpt>
      <trkpt lat="48.1225" lon="3.31057">
        <ele>93.87</ele>
        <time>2015-11-29T11:42:27Z</time>
      </trkpt>
      <trkpt lat="48.12231" lon="3.31055">
        <ele>96.27</ele>
        <time>2015-11-29T11:42:34Z</time>
      </trkpt>
      <trkpt lat="48.12212" lon="3.31052">
        <ele>97.23</ele>
        <time>2015-11-29T11:42:41Z</time>
      </trkpt>
      <trkpt lat="48.12194" lon="3.3105">
        <ele>98.19</ele>
        <time>2015-11-29T11:42:48Z</time>
      </trkpt>
      <trkpt lat="48.12174" lon="3.31047">
        <ele>98.19</ele>
        <time>2015-11-29T11:42:55Z</time>
      </trkpt>
      <trkpt lat="48.12154" lon="3.31045">
        <ele>98.19</ele>
        <time>2015-11-29T11:43:02Z</time>
      </trkpt>
      <trkpt lat="48.12136" lon="3.31041">
        <ele>98.19</ele>
        <time>2015-11-29T11:43:08Z</time>
      </trkpt>
      <trkpt lat="48.12116" lon="3.31038">
        <ele>97.23</ele>
        <time>2015-11-29T11:43:14Z</time>
      </trkpt>
      <trkpt lat="48.12095" lon="3.31035">
        <ele>97.71</ele>
        <time>2015-11-29T11:43:20Z</time>
      </trkpt>
      <trkpt lat="48.12077" lon="3.31032">
        <ele>97.23</ele>
        <time>2015-11-29T11:43:25Z</time>
      </trkpt>
      <trkpt lat="48.12058" lon="3.31028">
        <ele>97.23</ele>
        <time>2015-11-29T11:43:30Z</time>
      </trkpt>
      <trkpt lat="48.12037" lon="3.31025">
        <ele>95.79</ele>
        <time>2015-11-29T11:43:35Z</time>
      </trkpt>
      <trkpt lat="48.12015" lon="3.31022">
        <ele>94.83</ele>
        <time>2015-11-29T11:43:40Z</time>
      </trkpt>
      <trkpt lat="48.11993" lon="3.31018">
        <ele>95.31</ele>
        <time>2015-11-29T11:43:45Z</time>
      </trkpt>
      <trkpt lat="48.11974" lon="3.31016">
        <ele>94.83</ele>
        <time>2015-11-29T11:43:49Z</time>
      </trkpt>
      <trkpt lat="48.11954" lon="3.31013">
        <ele>93.87</ele>
        <time>2015-11-29T11:43:53Z</time>
      </trkpt>
      <trkpt lat="48.11935" lon="3.31008">
        <ele>92.9</ele>
        <time>2015-11-29T11:43:57Z</time>
      </trkpt>
      <trkpt lat="48.11913" lon="3.31005">
        <ele>93.87</ele>
        <time>2015-11-29T11:44:02Z</time>
      </trkpt>
      <trkpt lat="48.11891" lon="3.31002">
        <ele>93.87</ele>
        <time>2015-11-29T11:44:07Z</time>
      </trkpt>
      <trkpt lat="48.1187" lon="3.30999">
        <ele>94.35</ele>
        <time>2015-11-29T11:44:12Z</time>
      </trkpt>
      <trkpt lat="48.11849" lon="3.30995">
        <ele>93.39</ele>
        <time>2015-11-29T11:44:17Z</time>
      </trkpt>
      <trkpt lat="48.1183" lon="3.30993">
        <ele>94.83</ele>
        <time>2015-11-29T11:44:22Z</time>
      </trkpt>
      <trkpt lat="48.1181" lon="3.3099">
        <ele>94.35</ele>
        <time>2015-11-29T11:44:27Z</time>
      </trkpt>
      <trkpt lat="48.11789" lon="3.30988">
        <ele>93.87</ele>
        <time>2015-11-29T11:44:32Z</time>
      </trkpt>
      <trkpt lat="48.11771" lon="3.30983">
        <ele>92.9</ele>
        <time>2015-11-29T11:44:38Z</time>
      </trkpt>
      <trkpt lat="48.11752" lon="3.30981">
        <ele>91.94</ele>
        <time>2015-11-29T11:44:43Z</time>
      </trkpt>
      <trkpt lat="48.11732" lon="3.30977">
        <ele>92.42</ele>
        <time>2015-11-29T11:44:48Z</time>
      </trkpt>
      <trkpt lat="48.11714" lon="3.30974">
        <ele>92.42</ele>
        <time>2015-11-29T11:44:53Z</time>
      </trkpt>
      <trkpt lat="48.11694" lon="3.3097">
        <ele>92.42</ele>
        <time>2015-11-29T11:44:59Z</time>
      </trkpt>
      <trkpt lat="48.11673" lon="3.30967">
        <ele>93.87</ele>
        <time>2015-11-29T11:45:05Z</time>
      </trkpt>
      <trkpt lat="48.11653" lon="3.30964">
        <ele>94.35</ele>
        <time>2015-11-29T11:45:11Z</time>
      </trkpt>
      <trkpt lat="48.11634" lon="3.30961">
        <ele>94.35</ele>
        <time>2015-11-29T11:45:17Z</time>
      </trkpt>
      <trkpt lat="48.11616" lon="3.30972">
        <ele>95.31</ele>
        <time>2015-11-29T11:45:23Z</time>
      </trkpt>
      <trkpt lat="48.11607" lon="3.30997">
        <ele>97.23</ele>
        <time>2015-11-29T11:45:29Z</time>
      </trkpt>
      <trkpt lat="48.11601" lon="3.31023">
        <ele>98.67</ele>
        <time>2015-11-29T11:45:37Z</time>
      </trkpt>
      <trkpt lat="48.11597" lon="3.31043">
        <ele>98.67</ele>
        <time>2015-11-29T11:46:59Z</time>
      </trkpt>
      <trkpt lat="48.11589" lon="3.3107">
        <ele>99.15</ele>
        <time>2015-11-29T11:47:06Z</time>
      </trkpt>
      <trkpt lat="48.11581" lon="3.31094">
        <ele>100.6</ele>
        <time>2015-11-29T11:47:13Z</time>
      </trkpt>
      <trkpt lat="48.11572" lon="3.31124">
        <ele>101.08</ele>
        <time>2015-11-29T11:47:20Z</time>
      </trkpt>
      <trkpt lat="48.11563" lon="3.31151">
        <ele>102.04</ele>
        <time>2015-11-29T11:47:26Z</time>
      </trkpt>
      <trkpt lat="48.11554" lon="3.31179">
        <ele>103.48</ele>
        <time>2015-11-29T11:47:33Z</time>
      </trkpt>
      <trkpt lat="48.11545" lon="3.31206">
        <ele>104.44</ele>
        <time>2015-11-29T11:47:40Z</time>
      </trkpt>
      <trkpt lat="48.11536" lon="3.31236">
        <ele>105.88</ele>
        <time>2015-11-29T11:47:48Z</time>
      </trkpt>
      <trkpt lat="48.11529" lon="3.31263">
        <ele>106.36</ele>
        <time>2015-11-29T11:47:55Z</time>
      </trkpt>
      <trkpt lat="48.1152" lon="3.31292">
        <ele>108.29</ele>
        <time>2015-11-29T11:48:04Z</time>
      </trkpt>
      <trkpt lat="48.11514" lon="3.31324">
        <ele>109.25</ele>
        <time>2015-11-29T11:48:15Z</time>
      </trkpt>
      <trkpt lat="48.11505" lon="3.31353">
        <ele>110.21</ele>
        <time>2015-11-29T11:48:23Z</time>
      </trkpt>
      <trkpt lat="48.11499" lon="3.31381">
        <ele>112.61</ele>
        <time>2015-11-29T11:48:33Z</time>
      </trkpt>
      <trkpt lat="48.1149" lon="3.31408">
        <ele>113.57</ele>
        <time>2015-11-29T11:48:42Z</time>
      </trkpt>
      <trkpt lat="48.11482" lon="3.31433">
        <ele>115.5</ele>
        <time>2015-11-29T11:48:51Z</time>
      </trkpt>
      <trkpt lat="48.11474" lon="3.31461">
        <ele>117.9</ele>
        <time>2015-11-29T11:49:02Z</time>
      </trkpt>
      <trkpt lat="48.11466" lon="3.31492">
        <ele>119.82</ele>
        <time>2015-11-29T11:49:13Z</time>
      </trkpt>
      <trkpt lat="48.11467" lon="3.31533">
        <ele>123.19</ele>
        <time>2015-11-29T11:50:13Z</time>
      </trkpt>
      <trkpt lat="48.11472" lon="3.31563">
        <ele>126.55</ele>
        <time>2015-11-29T11:50:26Z</time>
      </trkpt>
      <trkpt lat="48.11473" lon="3.31595">
        <ele>129.92</ele>
        <time>2015-11-29T11:50:37Z</time>
      </trkpt>
      <trkpt lat="48.11471" lon="3.31634">
        <ele>131.84</ele>
        <time>2015-11-29T11:50:49Z</time>
      </trkpt>
      <trkpt lat="48.1147" lon="3.31676">
        <ele>135.2</ele>
        <time>2015-11-29T11:51:03Z</time>
      </trkpt>
      <trkpt lat="48.11467" lon="3.31713">
        <ele>138.09</ele>
        <time>2015-11-29T11:51:16Z</time>
      </trkpt>
      <trkpt lat="48.11465" lon="3.31749">
        <ele>140.49</ele>
        <time>2015-11-29T11:51:27Z</time>
      </trkpt>
      <trkpt lat="48.11461" lon="3.31779">
        <ele>142.41</ele>
        <time>2015-11-29T11:51:38Z</time>
      </trkpt>
      <trkpt lat="48.11458" lon="3.31814">
        <ele>144.82</ele>
        <time>2015-11-29T11:51:51Z</time>
      </trkpt>
      <trkpt lat="48.11456" lon="3.3185">
        <ele>148.18</ele>
        <time>2015-11-29T11:52:04Z</time>
      </trkpt>
      <trkpt lat="48.11452" lon="3.3189">
        <ele>150.1</ele>
        <time>2015-11-29T11:52:15Z</time>
      </trkpt>
      <trkpt lat="48.11447" lon="3.31921">
        <ele>150.1</ele>
        <time>2015-11-29T11:52:24Z</time>
      </trkpt>
      <trkpt lat="48.11442" lon="3.31953">
        <ele>150.58</ele>
        <time>2015-11-29T11:52:33Z</time>
      </trkpt>
      <trkpt lat="48.11439" lon="3.31986">
        <ele>152.03</ele>
        <time>2015-11-29T11:52:42Z</time>
      </trkpt>
      <trkpt lat="48.11437" lon="3.32025">
        <ele>153.95</ele>
        <time>2015-11-29T11:52:55Z</time>
      </trkpt>
      <trkpt lat="48.11429" lon="3.32061">
        <ele>155.39</ele>
        <time>2015-11-29T11:53:06Z</time>
      </trkpt>
      <trkpt lat="48.11419" lon="3.32089">
        <ele>156.83</ele>
        <time>2015-11-29T11:53:18Z</time>
      </trkpt>
      <trkpt lat="48.11402" lon="3.32083">
        <ele>151.06</ele>
        <time>2015-11-29T11:53:40Z</time>
      </trkpt>
      <trkpt lat="48.11386" lon="3.32097">
        <ele>150.1</ele>
        <time>2015-11-29T11:53:51Z</time>
      </trkpt>
      <trkpt lat="48.11377" lon="3.32128">
        <ele>152.51</ele>
        <time>2015-11-29T11:54:08Z</time>
      </trkpt>
      <trkpt lat="48.1137" lon="3.32163">
        <ele>154.91</ele>
        <time>2015-11-29T11:54:21Z</time>
      </trkpt>
      <trkpt lat="48.11366" lon="3.32194">
        <ele>155.87</ele>
        <time>2015-11-29T11:54:31Z</time>
      </trkpt>
      <trkpt lat="48.11357" lon="3.32226">
        <ele>158.27</ele>
        <time>2015-11-29T11:54:43Z</time>
      </trkpt>
      <trkpt lat="48.11345" lon="3.32261">
        <ele>160.68</ele>
        <time>2015-11-29T11:54:58Z</time>
      </trkpt>
      <trkpt lat="48.11337" lon="3.32299">
        <ele>163.08</ele>
        <time>2015-11-29T11:55:08Z</time>
      </trkpt>
      <trkpt lat="48.11327" lon="3.32335">
        <ele>165.48</ele>
        <time>2015-11-29T11:55:22Z</time>
      </trkpt>
      <trkpt lat="48.11318" lon="3.32368">
        <ele>167.41</ele>
        <time>2015-11-29T11:55:33Z</time>
      </trkpt>
      <trkpt lat="48.11301" lon="3.32384">
        <ele>171.25</ele>
        <time>2015-11-29T11:55:46Z</time>
      </trkpt>
      <trkpt lat="48.11276" lon="3.32379">
        <ele>176.06</ele>
        <time>2015-11-29T11:56:04Z</time>
      </trkpt>
      <trkpt lat="48.11254" lon="3.32359">
        <ele>176.54</ele>
        <time>2015-11-29T11:56:18Z</time>
      </trkpt>
      <trkpt lat="48.11234" lon="3.32345">
        <ele>176.54</ele>
        <time>2015-11-29T11:56:30Z</time>
      </trkpt>
      <trkpt lat="48.11219" lon="3.32327">
        <ele>177.02</ele>
        <time>2015-11-29T11:56:40Z</time>
      </trkpt>
      <trkpt lat="48.11203" lon="3.32305">
        <ele>177.5</ele>
        <time>2015-11-29T11:56:49Z</time>
      </trkpt>
      <trkpt lat="48.11189" lon="3.32258">
        <ele>176.06</ele>
        <time>2015-11-29T11:58:04Z</time>
      </trkpt>
      <trkpt lat="48.11192" lon="3.32227">
        <ele>176.06</ele>
        <time>2015-11-29T11:58:11Z</time>
      </trkpt>
      <trkpt lat="48.11194" lon="3.32197">
        <ele>175.1</ele>
        <time>2015-11-29T11:58:19Z</time>
      </trkpt>
      <trkpt lat="48.11195" lon="3.32167">
        <ele>175.1</ele>
        <time>2015-11-29T11:58:26Z</time>
      </trkpt>
      <trkpt lat="48.11196" lon="3.32134">
        <ele>173.66</ele>
        <time>2015-11-29T11:58:32Z</time>
      </trkpt>
      <trkpt lat="48.11198" lon="3.32102">
        <ele>173.66</ele>
        <time>2015-11-29T11:58:37Z</time>
      </trkpt>
      <trkpt lat="48.11199" lon="3.32072">
        <ele>172.69</ele>
        <time>2015-11-29T11:58:42Z</time>
      </trkpt>
      <trkpt lat="48.11201" lon="3.32042">
        <ele>171.73</ele>
        <time>2015-11-29T11:58:47Z</time>
      </trkpt>
      <trkpt lat="48.11202" lon="3.32012">
        <ele>171.73</ele>
        <time>2015-11-29T11:58:52Z</time>
      </trkpt>
      <trkpt lat="48.11203" lon="3.31979">
        <ele>169.33</ele>
        <time>2015-11-29T11:58:57Z</time>
      </trkpt>
      <trkpt lat="48.11204" lon="3.31942">
        <ele>167.41</ele>
        <time>2015-11-29T11:59:01Z</time>
      </trkpt>
      <trkpt lat="48.11204" lon="3.31904">
        <ele>164.52</ele>
        <time>2015-11-29T11:59:05Z</time>
      </trkpt>
      <trkpt lat="48.11216" lon="3.31879">
        <ele>162.12</ele>
        <time>2015-11-29T11:59:14Z</time>
      </trkpt>
      <trkpt lat="48.11235" lon="3.31871">
        <ele>160.68</ele>
        <time>2015-11-29T11:59:24Z</time>
      </trkpt>
      <trkpt lat="48.11258" lon="3.31874">
        <ele>159.24</ele>
        <time>2015-11-29T11:59:32Z</time>
      </trkpt>
      <trkpt lat="48.11284" lon="3.31857">
        <ele>155.87</ele>
        <time>2015-11-29T11:59:46Z</time>
      </trkpt>
      <trkpt lat="48.11295" lon="3.31822">
        <ele>152.51</ele>
        <time>2015-11-29T11:59:54Z</time>
      </trkpt>
      <trkpt lat="48.11306" lon="3.31784">
        <ele>146.74</ele>
        <time>2015-11-29T12:00:01Z</time>
      </trkpt>
      <trkpt lat="48.11313" lon="3.31751">
        <ele>143.85</ele>
        <time>2015-11-29T12:00:06Z</time>
      </trkpt>
      <trkpt lat="48.11317" lon="3.31717">
        <ele>140.97</ele>
        <time>2015-11-29T12:00:12Z</time>
      </trkpt>
      <trkpt lat="48.1132" lon="3.31681">
        <ele>137.13</ele>
        <time>2015-11-29T12:00:21Z</time>
      </trkpt>
      <trkpt lat="48.11321" lon="3.31644">
        <ele>133.76</ele>
        <time>2015-11-29T12:00:28Z</time>
      </trkpt>
      <trkpt lat="48.11322" lon="3.31604">
        <ele>128.95</ele>
        <time>2015-11-29T12:00:38Z</time>
      </trkpt>
      <trkpt lat="48.11323" lon="3.31561">
        <ele>126.07</ele>
        <time>2015-11-29T12:00:47Z</time>
      </trkpt>
      <trkpt lat="48.11327" lon="3.31519">
        <ele>123.67</ele>
        <time>2015-11-29T12:00:56Z</time>
      </trkpt>
      <trkpt lat="48.11325" lon="3.31474">
        <ele>120.3</ele>
        <time>2015-11-29T12:01:10Z</time>
      </trkpt>
      <trkpt lat="48.11317" lon="3.31424">
        <ele>118.86</ele>
        <time>2015-11-29T12:01:20Z</time>
      </trkpt>
      <trkpt lat="48.11307" lon="3.31368">
        <ele>115.5</ele>
        <time>2015-11-29T12:01:32Z</time>
      </trkpt>
      <trkpt lat="48.1129" lon="3.31342">
        <ele>114.53</ele>
        <time>2015-11-29T12:01:38Z</time>
      </trkpt>
      <trkpt lat="48.11272" lon="3.31311">
        <ele>114.53</ele>
        <time>2015-11-29T12:01:44Z</time>
      </trkpt>
      <trkpt lat="48.11253" lon="3.31276">
        <ele>114.05</ele>
        <time>2015-11-29T12:01:54Z</time>
      </trkpt>
      <trkpt lat="48.11238" lon="3.31249">
        <ele>114.05</ele>
        <time>2015-11-29T12:02:03Z</time>
      </trkpt>
      <trkpt lat="48.11212" lon="3.31241">
        <ele>116.46</ele>
        <time>2015-11-29T12:02:10Z</time>
      </trkpt>
      <trkpt lat="48.11186" lon="3.31249">
        <ele>120.3</ele>
        <time>2015-11-29T12:02:18Z</time>
      </trkpt>
      <trkpt lat="48.11158" lon="3.31251">
        <ele>124.63</ele>
        <time>2015-11-29T12:02:31Z</time>
      </trkpt>
      <trkpt lat="48.11131" lon="3.31258">
        <ele>130.88</ele>
        <time>2015-11-29T12:02:52Z</time>
      </trkpt>
      <trkpt lat="48.11109" lon="3.31268">
        <ele>135.2</ele>
        <time>2015-11-29T12:03:10Z</time>
      </trkpt>
      <trkpt lat="48.11087" lon="3.31278">
        <ele>138.57</ele>
        <time>2015-11-29T12:03:25Z</time>
      </trkpt>
      <trkpt lat="48.11063" lon="3.31284">
        <ele>138.57</ele>
        <time>2015-11-29T12:03:36Z</time>
      </trkpt>
      <trkpt lat="48.11042" lon="3.31292">
        <ele>139.05</ele>
        <time>2015-11-29T12:03:47Z</time>
      </trkpt>
      <trkpt lat="48.11023" lon="3.31299">
        <ele>143.85</ele>
        <time>2015-11-29T12:03:59Z</time>
      </trkpt>
      <trkpt lat="48.11009" lon="3.31278">
        <ele>140.49</ele>
        <time>2015-11-29T12:04:13Z</time>
      </trkpt>
      <trkpt lat="48.11013" lon="3.31249">
        <ele>137.13</ele>
        <time>2015-11-29T12:04:17Z</time>
      </trkpt>
      <trkpt lat="48.1102" lon="3.31222">
        <ele>134.24</ele>
        <time>2015-11-29T12:04:20Z</time>
      </trkpt>
      <trkpt lat="48.11021" lon="3.31189">
        <ele>130.4</ele>
        <time>2015-11-29T12:04:25Z</time>
      </trkpt>
      <trkpt lat="48.11012" lon="3.31153">
        <ele>126.55</ele>
        <time>2015-11-29T12:04:29Z</time>
      </trkpt>
      <trkpt lat="48.11002" lon="3.31119">
        <ele>124.15</ele>
        <time>2015-11-29T12:04:33Z</time>
      </trkpt>
      <trkpt lat="48.10985" lon="3.31094">
        <ele>127.99</ele>
        <time>2015-11-29T12:04:40Z</time>
      </trkpt>
      <trkpt lat="48.1097" lon="3.31071">
        <ele>130.88</ele>
        <time>2015-11-29T12:04:48Z</time>
      </trkpt>
      <trkpt lat="48.10955" lon="3.31046">
        <ele>131.84</ele>
        <time>2015-11-29T12:04:57Z</time>
      </trkpt>
      <trkpt lat="48.1094" lon="3.31018">
        <ele>134.24</ele>
        <time>2015-11-29T12:05:05Z</time>
      </trkpt>
      <trkpt lat="48.10925" lon="3.30994">
        <ele>137.61</ele>
        <time>2015-11-29T12:05:13Z</time>
      </trkpt>
      <trkpt lat="48.1091" lon="3.30968">
        <ele>138.09</ele>
        <time>2015-11-29T12:05:21Z</time>
      </trkpt>
      <trkpt lat="48.10898" lon="3.3094">
        <ele>138.57</ele>
        <time>2015-11-29T12:05:29Z</time>
      </trkpt>
      <trkpt lat="48.10887" lon="3.30914">
        <ele>138.57</ele>
        <time>2015-11-29T12:05:36Z</time>
      </trkpt>
      <trkpt lat="48.10876" lon="3.30891">
        <ele>139.05</ele>
        <time>2015-11-29T12:07:21Z</time>
      </trkpt>
      <trkpt lat="48.10866" lon="3.30864">
        <ele>137.61</ele>
        <time>2015-11-29T12:07:27Z</time>
      </trkpt>
      <trkpt lat="48.10857" lon="3.3084">
        <ele>136.64</ele>
        <time>2015-11-29T12:07:31Z</time>
      </trkpt>
      <trkpt lat="48.10847" lon="3.3081">
        <ele>134.72</ele>
        <time>2015-11-29T12:07:35Z</time>
      </trkpt>
      <trkpt lat="48.10838" lon="3.30782">
        <ele>133.28</ele>
        <time>2015-11-29T12:07:38Z</time>
      </trkpt>
      <trkpt lat="48.1083" lon="3.30754">
        <ele>131.36</ele>
        <time>2015-11-29T12:07:41Z</time>
      </trkpt>
      <trkpt lat="48.10823" lon="3.30725">
        <ele>129.92</ele>
        <time>2015-11-29T12:07:44Z</time>
      </trkpt>
      <trkpt lat="48.10818" lon="3.30698">
        <ele>127.51</ele>
        <time>2015-11-29T12:07:47Z</time>
      </trkpt>
      <trkpt lat="48.10824" lon="3.30672">
        <ele>124.63</ele>
        <time>2015-11-29T12:07:50Z</time>
      </trkpt>
      <trkpt lat="48.10834" lon="3.30648">
        <ele>122.71</ele>
        <time>2015-11-29T12:07:53Z</time>
      </trkpt>
      <trkpt lat="48.10835" lon="3.30621">
        <ele>120.78</ele>
        <time>2015-11-29T12:07:56Z</time>
      </trkpt>
      <trkpt lat="48.10833" lon="3.30592">
        <ele>119.82</ele>
        <time>2015-11-29T12:07:59Z</time>
      </trkpt>
      <trkpt lat="48.10831" lon="3.30561">
        <ele>117.9</ele>
        <time>2015-11-29T12:08:02Z</time>
      </trkpt>
      <trkpt lat="48.1083" lon="3.3053">
        <ele>116.94</ele>
        <time>2015-11-29T12:08:05Z</time>
      </trkpt>
      <trkpt lat="48.10825" lon="3.30502">
        <ele>116.46</ele>
        <time>2015-11-29T12:08:08Z</time>
      </trkpt>
      <trkpt lat="48.10817" lon="3.30477">
        <ele>116.94</ele>
        <time>2015-11-29T12:08:11Z</time>
      </trkpt>
      <trkpt lat="48.10807" lon="3.30452">
        <ele>116.46</ele>
        <time>2015-11-29T12:08:14Z</time>
      </trkpt>
      <trkpt lat="48.10797" lon="3.30421">
        <ele>115.98</ele>
        <time>2015-11-29T12:08:18Z</time>
      </trkpt>
      <trkpt lat="48.10787" lon="3.3039">
        <ele>115.5</ele>
        <time>2015-11-29T12:08:22Z</time>
      </trkpt>
      <trkpt lat="48.10776" lon="3.3036">
        <ele>115.98</ele>
        <time>2015-11-29T12:08:26Z</time>
      </trkpt>
      <trkpt lat="48.10762" lon="3.30332">
        <ele>115.5</ele>
        <time>2015-11-29T12:08:30Z</time>
      </trkpt>
      <trkpt lat="48.10747" lon="3.30308">
        <ele>116.94</ele>
        <time>2015-11-29T12:08:34Z</time>
      </trkpt>
      <trkpt lat="48.10735" lon="3.30278">
        <ele>117.42</ele>
        <time>2015-11-29T12:08:38Z</time>
      </trkpt>
      <trkpt lat="48.10728" lon="3.30243">
        <ele>117.42</ele>
        <time>2015-11-29T12:08:42Z</time>
      </trkpt>
      <trkpt lat="48.10721" lon="3.30208">
        <ele>116.94</ele>
        <time>2015-11-29T12:08:46Z</time>
      </trkpt>
      <trkpt lat="48.10715" lon="3.30173">
        <ele>115.98</ele>
        <time>2015-11-29T12:08:50Z</time>
      </trkpt>
      <trkpt lat="48.10709" lon="3.3014">
        <ele>116.46</ele>
        <time>2015-11-29T12:08:54Z</time>
      </trkpt>
      <trkpt lat="48.10704" lon="3.30107">
        <ele>115.98</ele>
        <time>2015-11-29T12:08:58Z</time>
      </trkpt>
      <trkpt lat="48.10697" lon="3.30072">
        <ele>114.05</ele>
        <time>2015-11-29T12:09:02Z</time>
      </trkpt>
      <trkpt lat="48.10692" lon="3.3004">
        <ele>114.53</ele>
        <time>2015-11-29T12:09:06Z</time>
      </trkpt>
      <trkpt lat="48.10687" lon="3.30013">
        <ele>113.09</ele>
        <time>2015-11-29T12:09:10Z</time>
      </trkpt>
      <trkpt lat="48.10669" lon="3.30007">
        <ele>114.53</ele>
        <time>2015-11-29T12:09:19Z</time>
      </trkpt>
      <trkpt lat="48.10649" lon="3.30014">
        <ele>117.42</ele>
        <time>2015-11-29T12:09:29Z</time>
      </trkpt>
      <trkpt lat="48.10628" lon="3.30019">
        <ele>121.26</ele>
        <time>2015-11-29T12:09:42Z</time>
      </trkpt>
      <trkpt lat="48.10614" lon="3.29995">
        <ele>125.11</ele>
        <time>2015-11-29T12:09:56Z</time>
      </trkpt>
      <trkpt lat="48.10601" lon="3.29971">
        <ele>128.95</ele>
        <time>2015-11-29T12:10:12Z</time>
      </trkpt>
      <trkpt lat="48.10588" lon="3.29942">
        <ele>132.32</ele>
        <time>2015-11-29T12:10:30Z</time>
      </trkpt>
      <trkpt lat="48.10565" lon="3.29917">
        <ele>135.68</ele>
        <time>2015-11-29T12:10:48Z</time>
      </trkpt>
      <trkpt lat="48.10542" lon="3.29898">
        <ele>139.53</ele>
        <time>2015-11-29T12:11:03Z</time>
      </trkpt>
      <trkpt lat="48.10517" lon="3.29894">
        <ele>142.89</ele>
        <time>2015-11-29T12:11:18Z</time>
      </trkpt>
      <trkpt lat="48.10495" lon="3.29898">
        <ele>145.78</ele>
        <time>2015-11-29T12:11:32Z</time>
      </trkpt>
      <trkpt lat="48.10486" lon="3.29867">
        <ele>148.18</ele>
        <time>2015-11-29T12:11:44Z</time>
      </trkpt>
      <trkpt lat="48.10478" lon="3.29838">
        <ele>147.22</ele>
        <time>2015-11-29T12:11:52Z</time>
      </trkpt>
      <trkpt lat="48.10472" lon="3.29811">
        <ele>147.7</ele>
        <time>2015-11-29T12:11:58Z</time>
      </trkpt>
      <trkpt lat="48.10467" lon="3.29781">
        <ele>147.22</ele>
        <time>2015-11-29T12:12:04Z</time>
      </trkpt>
      <trkpt lat="48.10462" lon="3.29754">
        <ele>146.74</ele>
        <time>2015-11-29T12:12:10Z</time>
      </trkpt>
      <trkpt lat="48.10456" lon="3.29725">
        <ele>147.22</ele>
        <time>2015-11-29T12:12:16Z</time>
      </trkpt>
      <trkpt lat="48.10452" lon="3.29695">
        <ele>147.7</ele>
        <time>2015-11-29T12:12:22Z</time>
      </trkpt>
      <trkpt lat="48.10449" lon="3.29666">
        <ele>147.7</ele>
        <time>2015-11-29T12:12:28Z</time>
      </trkpt>
      <trkpt lat="48.10443" lon="3.29635">
        <ele>147.22</ele>
        <time>2015-11-29T12:12:34Z</time>
      </trkpt>
      <trkpt lat="48.10435" lon="3.29603">
        <ele>146.74</ele>
        <time>2015-11-29T12:12:40Z</time>
      </trkpt>
      <trkpt lat="48.10423" lon="3.29573">
        <ele>148.18</ele>
        <time>2015-11-29T12:12:47Z</time>
      </trkpt>
      <trkpt lat="48.10405" lon="3.2955">
        <ele>150.58</ele>
        <time>2015-11-29T12:12:55Z</time>
      </trkpt>
      <trkpt lat="48.10388" lon="3.29531">
        <ele>153.95</ele>
        <time>2015-11-29T12:13:02Z</time>
      </trkpt>
      <trkpt lat="48.10375" lon="3.29508">
        <ele>154.43</ele>
        <time>2015-11-29T12:13:10Z</time>
      </trkpt>
      <trkpt lat="48.10367" lon="3.29476">
        <ele>154.91</ele>
        <time>2015-11-29T12:13:17Z</time>
      </trkpt>
      <trkpt lat="48.10359" lon="3.29433">
        <ele>153.95</ele>
        <time>2015-11-29T12:14:36Z</time>
      </trkpt>
      <trkpt lat="48.10361" lon="3.29399">
        <ele>151.54</ele>
        <time>2015-11-29T12:14:42Z</time>
      </trkpt>
      <trkpt lat="48.10361" lon="3.29367">
        <ele>150.58</ele>
        <time>2015-11-29T12:14:46Z</time>
      </trkpt>
      <trkpt lat="48.10359" lon="3.29338">
        <ele>149.14</ele>
        <time>2015-11-29T12:14:49Z</time>
      </trkpt>
      <trkpt lat="48.10355" lon="3.2931">
        <ele>149.14</ele>
        <time>2015-11-29T12:14:52Z</time>
      </trkpt>
      <trkpt lat="48.1035" lon="3.29283">
        <ele>147.22</ele>
        <time>2015-11-29T12:14:55Z</time>
      </trkpt>
      <trkpt lat="48.10345" lon="3.29255">
        <ele>147.22</ele>
        <time>2015-11-29T12:14:58Z</time>
      </trkpt>
      <trkpt lat="48.10339" lon="3.29222">
        <ele>147.22</ele>
        <time>2015-11-29T12:15:02Z</time>
      </trkpt>
      <trkpt lat="48.10333" lon="3.29193">
        <ele>148.18</ele>
        <time>2015-11-29T12:15:06Z</time>
      </trkpt>
      <trkpt lat="48.10327" lon="3.2916">
        <ele>149.62</ele>
        <time>2015-11-29T12:15:11Z</time>
      </trkpt>
      <trkpt lat="48.1032" lon="3.29131">
        <ele>150.1</ele>
        <time>2015-11-29T12:15:15Z</time>
      </trkpt>
      <trkpt lat="48.10314" lon="3.29104">
        <ele>150.58</ele>
        <time>2015-11-29T12:15:19Z</time>
      </trkpt>
      <trkpt lat="48.10305" lon="3.29076">
        <ele>151.06</ele>
        <time>2015-11-29T12:15:23Z</time>
      </trkpt>
      <trkpt lat="48.10292" lon="3.29046">
        <ele>152.03</ele>
        <time>2015-11-29T12:15:28Z</time>
      </trkpt>
      <trkpt lat="48.1028" lon="3.29015">
        <ele>152.03</ele>
        <time>2015-11-29T12:15:33Z</time>
      </trkpt>
      <trkpt lat="48.10273" lon="3.28988">
        <ele>151.06</ele>
        <time>2015-11-29T12:15:37Z</time>
      </trkpt>
      <trkpt lat="48.10264" lon="3.28958">
        <ele>148.66</ele>
        <time>2015-11-29T12:15:41Z</time>
      </trkpt>
      <trkpt lat="48.10245" lon="3.28952">
        <ele>148.18</ele>
        <time>2015-11-29T12:15:48Z</time>
      </trkpt>
      <trkpt lat="48.1023" lon="3.28973">
        <ele>152.03</ele>
        <time>2015-11-29T12:15:59Z</time>
      </trkpt>
      <trkpt lat="48.10219" lon="3.28995">
        <ele>154.91</ele>
        <time>2015-11-29T12:16:07Z</time>
      </trkpt>
      <trkpt lat="48.1021" lon="3.2902">
        <ele>157.79</ele>
        <time>2015-11-29T12:16:18Z</time>
      </trkpt>
      <trkpt lat="48.10211" lon="3.2901">
        <ele>156.83</ele>
        <time>2015-11-29T12:17:53Z</time>
      </trkpt>
      <trkpt lat="48.10206" lon="3.29031">
        <ele>157.31</ele>
        <time>2015-11-29T12:19:28Z</time>
      </trkpt>
      <trkpt lat="48.10193" lon="3.29054">
        <ele>159.24</ele>
        <time>2015-11-29T12:19:43Z</time>
      </trkpt>
      <trkpt lat="48.10183" lon="3.29088">
        <ele>161.64</ele>
        <time>2015-11-29T12:19:59Z</time>
      </trkpt>
      <trkpt lat="48.10179" lon="3.29132">
        <ele>164.52</ele>
        <time>2015-11-29T12:20:22Z</time>
      </trkpt>
      <trkpt lat="48.10182" lon="3.29165">
        <ele>165</ele>
        <time>2015-11-29T12:20:36Z</time>
      </trkpt>
      <trkpt lat="48.10187" lon="3.29195">
        <ele>165.48</ele>
        <time>2015-11-29T12:20:46Z</time>
      </trkpt>
      <trkpt lat="48.10188" lon="3.29227">
        <ele>166.93</ele>
        <time>2015-11-29T12:20:54Z</time>
      </trkpt>
      <trkpt lat="48.10186" lon="3.29261">
        <ele>167.89</ele>
        <time>2015-11-29T12:21:02Z</time>
      </trkpt>
      <trkpt lat="48.10189" lon="3.29298">
        <ele>167.41</ele>
        <time>2015-11-29T12:21:10Z</time>
      </trkpt>
      <trkpt lat="48.10173" lon="3.29317">
        <ele>169.33</ele>
        <time>2015-11-29T12:21:19Z</time>
      </trkpt>
      <trkpt lat="48.10152" lon="3.29326">
        <ele>169.33</ele>
        <time>2015-11-29T12:21:26Z</time>
      </trkpt>
      <trkpt lat="48.10133" lon="3.29339">
        <ele>169.33</ele>
        <time>2015-11-29T12:21:33Z</time>
      </trkpt>
      <trkpt lat="48.10116" lon="3.29363">
        <ele>168.85</ele>
        <time>2015-11-29T12:21:41Z</time>
      </trkpt>
      <trkpt lat="48.10109" lon="3.29394">
        <ele>169.81</ele>
        <time>2015-11-29T12:21:49Z</time>
      </trkpt>
      <trkpt lat="48.10104" lon="3.29427">
        <ele>170.29</ele>
        <time>2015-11-29T12:21:57Z</time>
      </trkpt>
      <trkpt lat="48.10097" lon="3.2946">
        <ele>169.33</ele>
        <time>2015-11-29T12:22:06Z</time>
      </trkpt>
      <trkpt lat="48.10075" lon="3.29461">
        <ele>169.33</ele>
        <time>2015-11-29T12:22:13Z</time>
      </trkpt>
      <trkpt lat="48.10059" lon="3.29485">
        <ele>168.37</ele>
        <time>2015-11-29T12:22:22Z</time>
      </trkpt>
      <trkpt lat="48.10046" lon="3.29516">
        <ele>167.89</ele>
        <time>2015-11-29T12:22:30Z</time>
      </trkpt>
      <trkpt lat="48.10034" lon="3.29551">
        <ele>166.93</ele>
        <time>2015-11-29T12:22:37Z</time>
      </trkpt>
      <trkpt lat="48.10043" lon="3.29592">
        <ele>161.64</ele>
        <time>2015-11-29T12:23:22Z</time>
      </trkpt>
      <trkpt lat="48.10041" lon="3.29585">
        <ele>169.33</ele>
        <time>2015-11-29T12:24:16Z</time>
      </trkpt>
      <trkpt lat="48.10055" lon="3.29617">
        <ele>169.81</ele>
        <time>2015-11-29T12:24:54Z</time>
      </trkpt>
      <trkpt lat="48.10071" lon="3.2964">
        <ele>169.81</ele>
        <time>2015-11-29T12:25:01Z</time>
      </trkpt>
      <trkpt lat="48.10086" lon="3.29662">
        <ele>170.29</ele>
        <time>2015-11-29T12:25:06Z</time>
      </trkpt>
      <trkpt lat="48.10095" lon="3.29693">
        <ele>170.77</ele>
        <time>2015-11-29T12:25:12Z</time>
      </trkpt>
      <trkpt lat="48.10092" lon="3.29726">
        <ele>170.29</ele>
        <time>2015-11-29T12:25:17Z</time>
      </trkpt>
      <trkpt lat="48.10091" lon="3.29759">
        <ele>169.81</ele>
        <time>2015-11-29T12:25:22Z</time>
      </trkpt>
      <trkpt lat="48.1009" lon="3.29798">
        <ele>170.29</ele>
        <time>2015-11-29T12:25:27Z</time>
      </trkpt>
      <trkpt lat="48.10091" lon="3.2983">
        <ele>170.29</ele>
        <time>2015-11-29T12:25:31Z</time>
      </trkpt>
      <trkpt lat="48.10092" lon="3.2986">
        <ele>170.77</ele>
        <time>2015-11-29T12:25:35Z</time>
      </trkpt>
      <trkpt lat="48.10098" lon="3.29894">
        <ele>170.29</ele>
        <time>2015-11-29T12:25:40Z</time>
      </trkpt>
      <trkpt lat="48.10082" lon="3.29907">
        <ele>169.33</ele>
        <time>2015-11-29T12:25:45Z</time>
      </trkpt>
      <trkpt lat="48.10062" lon="3.29905">
        <ele>167.89</ele>
        <time>2015-11-29T12:25:49Z</time>
      </trkpt>
      <trkpt lat="48.10044" lon="3.29903">
        <ele>166.93</ele>
        <time>2015-11-29T12:25:52Z</time>
      </trkpt>
      <trkpt lat="48.10023" lon="3.29907">
        <ele>164.52</ele>
        <time>2015-11-29T12:25:55Z</time>
      </trkpt>
      <trkpt lat="48.10001" lon="3.29914">
        <ele>163.08</ele>
        <time>2015-11-29T12:25:58Z</time>
      </trkpt>
      <trkpt lat="48.09976" lon="3.29911">
        <ele>160.68</ele>
        <time>2015-11-29T12:26:01Z</time>
      </trkpt>
      <trkpt lat="48.09953" lon="3.29899">
        <ele>156.83</ele>
        <time>2015-11-29T12:26:04Z</time>
      </trkpt>
      <trkpt lat="48.09934" lon="3.2988">
        <ele>155.39</ele>
        <time>2015-11-29T12:26:07Z</time>
      </trkpt>
      <trkpt lat="48.09915" lon="3.29859">
        <ele>153.47</ele>
        <time>2015-11-29T12:26:10Z</time>
      </trkpt>
      <trkpt lat="48.09892" lon="3.29841">
        <ele>151.54</ele>
        <time>2015-11-29T12:26:13Z</time>
      </trkpt>
      <trkpt lat="48.09869" lon="3.29823">
        <ele>146.74</ele>
        <time>2015-11-29T12:26:16Z</time>
      </trkpt>
      <trkpt lat="48.09853" lon="3.2981">
        <ele>143.85</ele>
        <time>2015-11-29T12:26:18Z</time>
      </trkpt>
      <trkpt lat="48.09832" lon="3.2979">
        <ele>140.01</ele>
        <time>2015-11-29T12:26:21Z</time>
      </trkpt>
      <trkpt lat="48.09812" lon="3.29772">
        <ele>137.61</ele>
        <time>2015-11-29T12:26:24Z</time>
      </trkpt>
      <trkpt lat="48.09794" lon="3.29754">
        <ele>133.76</ele>
        <time>2015-11-29T12:26:27Z</time>
      </trkpt>
      <trkpt lat="48.09776" lon="3.29733">
        <ele>130.4</ele>
        <time>2015-11-29T12:26:30Z</time>
      </trkpt>
      <trkpt lat="48.09759" lon="3.29714">
        <ele>126.55</ele>
        <time>2015-11-29T12:26:33Z</time>
      </trkpt>
      <trkpt lat="48.0974" lon="3.29701">
        <ele>123.19</ele>
        <time>2015-11-29T12:26:37Z</time>
      </trkpt>
      <trkpt lat="48.09722" lon="3.29714">
        <ele>119.34</ele>
        <time>2015-11-29T12:26:40Z</time>
      </trkpt>
      <trkpt lat="48.09703" lon="3.29727">
        <ele>115.5</ele>
        <time>2015-11-29T12:26:43Z</time>
      </trkpt>
      <trkpt lat="48.09681" lon="3.29731">
        <ele>111.65</ele>
        <time>2015-11-29T12:26:46Z</time>
      </trkpt>
      <trkpt lat="48.09658" lon="3.29732">
        <ele>108.29</ele>
        <time>2015-11-29T12:26:49Z</time>
      </trkpt>
      <trkpt lat="48.09636" lon="3.29734">
        <ele>104.92</ele>
        <time>2015-11-29T12:26:52Z</time>
      </trkpt>
      <trkpt lat="48.09615" lon="3.29737">
        <ele>101.56</ele>
        <time>2015-11-29T12:26:55Z</time>
      </trkpt>
      <trkpt lat="48.09594" lon="3.29735">
        <ele>98.67</ele>
        <time>2015-11-29T12:26:59Z</time>
      </trkpt>
      <trkpt lat="48.09576" lon="3.2971">
        <ele>94.35</ele>
        <time>2015-11-29T12:27:03Z</time>
      </trkpt>
      <trkpt lat="48.09555" lon="3.29691">
        <ele>91.94</ele>
        <time>2015-11-29T12:27:06Z</time>
      </trkpt>
      <trkpt lat="48.09529" lon="3.29686">
        <ele>89.06</ele>
        <time>2015-11-29T12:27:09Z</time>
      </trkpt>
      <trkpt lat="48.09503" lon="3.29686">
        <ele>87.62</ele>
        <time>2015-11-29T12:27:12Z</time>
      </trkpt>
      <trkpt lat="48.09478" lon="3.29686">
        <ele>84.73</ele>
        <time>2015-11-29T12:27:15Z</time>
      </trkpt>
      <trkpt lat="48.09454" lon="3.29689">
        <ele>84.25</ele>
        <time>2015-11-29T12:27:18Z</time>
      </trkpt>
      <trkpt lat="48.09428" lon="3.29694">
        <ele>83.77</ele>
        <time>2015-11-29T12:27:21Z</time>
      </trkpt>
      <trkpt lat="48.09409" lon="3.29697">
        <ele>81.85</ele>
        <time>2015-11-29T12:27:23Z</time>
      </trkpt>
      <trkpt lat="48.0939" lon="3.297">
        <ele>80.41</ele>
        <time>2015-11-29T12:27:25Z</time>
      </trkpt>
      <trkpt lat="48.09371" lon="3.29704">
        <ele>80.41</ele>
        <time>2015-11-29T12:27:27Z</time>
      </trkpt>
      <trkpt lat="48.09353" lon="3.29708">
        <ele>78.97</ele>
        <time>2015-11-29T12:27:29Z</time>
      </trkpt>
      <trkpt lat="48.0933" lon="3.29712">
        <ele>78</ele>
        <time>2015-11-29T12:27:32Z</time>
      </trkpt>
      <trkpt lat="48.09313" lon="3.29719">
        <ele>79.93</ele>
        <time>2015-11-29T12:27:36Z</time>
      </trkpt>
      <trkpt lat="48.09295" lon="3.29718">
        <ele>79.45</ele>
        <time>2015-11-29T12:28:07Z</time>
      </trkpt>
      <trkpt lat="48.09275" lon="3.29721">
        <ele>78.48</ele>
        <time>2015-11-29T12:28:14Z</time>
      </trkpt>
      <trkpt lat="48.09254" lon="3.29725">
        <ele>78</ele>
        <time>2015-11-29T12:28:19Z</time>
      </trkpt>
      <trkpt lat="48.09235" lon="3.29729">
        <ele>78.48</ele>
        <time>2015-11-29T12:28:23Z</time>
      </trkpt>
      <trkpt lat="48.09215" lon="3.2973">
        <ele>78.48</ele>
        <time>2015-11-29T12:28:27Z</time>
      </trkpt>
      <trkpt lat="48.09205" lon="3.29708">
        <ele>78</ele>
        <time>2015-11-29T12:28:31Z</time>
      </trkpt>
      <trkpt lat="48.09196" lon="3.2968">
        <ele>77.04</ele>
        <time>2015-11-29T12:28:35Z</time>
      </trkpt>
      <trkpt lat="48.09188" lon="3.29649">
        <ele>77.52</ele>
        <time>2015-11-29T12:28:39Z</time>
      </trkpt>
      <trkpt lat="48.09179" lon="3.29618">
        <ele>78</ele>
        <time>2015-11-29T12:28:43Z</time>
      </trkpt>
      <trkpt lat="48.09171" lon="3.29592">
        <ele>78.48</ele>
        <time>2015-11-29T12:28:47Z</time>
      </trkpt>
      <trkpt lat="48.09168" lon="3.29566">
        <ele>78.97</ele>
        <time>2015-11-29T12:28:52Z</time>
      </trkpt>
      <trkpt lat="48.09163" lon="3.29539">
        <ele>77.52</ele>
        <time>2015-11-29T12:28:56Z</time>
      </trkpt>
      <trkpt lat="48.09157" lon="3.29508">
        <ele>77.04</ele>
        <time>2015-11-29T12:29:00Z</time>
      </trkpt>
      <trkpt lat="48.09152" lon="3.29481">
        <ele>77.52</ele>
        <time>2015-11-29T12:29:04Z</time>
      </trkpt>
      <trkpt lat="48.09147" lon="3.29453">
        <ele>76.56</ele>
        <time>2015-11-29T12:29:09Z</time>
      </trkpt>
      <trkpt lat="48.09141" lon="3.29426">
        <ele>77.04</ele>
        <time>2015-11-29T12:29:23Z</time>
      </trkpt>
      <trkpt lat="48.09135" lon="3.29397">
        <ele>76.56</ele>
        <time>2015-11-29T12:29:28Z</time>
      </trkpt>
      <trkpt lat="48.0913" lon="3.29368">
        <ele>76.56</ele>
        <time>2015-11-29T12:29:32Z</time>
      </trkpt>
      <trkpt lat="48.09125" lon="3.29339">
        <ele>76.56</ele>
        <time>2015-11-29T12:29:36Z</time>
      </trkpt>
      <trkpt lat="48.0912" lon="3.29308">
        <ele>76.08</ele>
        <time>2015-11-29T12:29:40Z</time>
      </trkpt>
      <trkpt lat="48.09115" lon="3.29277">
        <ele>75.12</ele>
        <time>2015-11-29T12:29:44Z</time>
      </trkpt>
      <trkpt lat="48.09111" lon="3.29246">
        <ele>75.6</ele>
        <time>2015-11-29T12:29:48Z</time>
      </trkpt>
      <trkpt lat="48.09106" lon="3.29218">
        <ele>75.6</ele>
        <time>2015-11-29T12:29:52Z</time>
      </trkpt>
      <trkpt lat="48.09101" lon="3.29187">
        <ele>75.12</ele>
        <time>2015-11-29T12:29:56Z</time>
      </trkpt>
      <trkpt lat="48.09097" lon="3.29157">
        <ele>74.64</ele>
        <time>2015-11-29T12:30:00Z</time>
      </trkpt>
      <trkpt lat="48.09091" lon="3.29126">
        <ele>75.12</ele>
        <time>2015-11-29T12:30:04Z</time>
      </trkpt>
      <trkpt lat="48.09087" lon="3.29097">
        <ele>74.64</ele>
        <time>2015-11-29T12:30:08Z</time>
      </trkpt>
      <trkpt lat="48.09083" lon="3.29069">
        <ele>74.64</ele>
        <time>2015-11-29T12:30:12Z</time>
      </trkpt>
      <trkpt lat="48.09079" lon="3.29041">
        <ele>74.64</ele>
        <time>2015-11-29T12:30:16Z</time>
      </trkpt>
      <trkpt lat="48.09075" lon="3.29014">
        <ele>75.12</ele>
        <time>2015-11-29T12:30:21Z</time>
      </trkpt>
      <trkpt lat="48.09058" lon="3.29009">
        <ele>75.12</ele>
        <time>2015-11-29T12:30:26Z</time>
      </trkpt>
      <trkpt lat="48.09036" lon="3.29018">
        <ele>75.12</ele>
        <time>2015-11-29T12:30:31Z</time>
      </trkpt>
      <trkpt lat="48.09015" lon="3.29027">
        <ele>74.64</ele>
        <time>2015-11-29T12:30:36Z</time>
      </trkpt>
      <trkpt lat="48.08996" lon="3.29036">
        <ele>73.68</ele>
        <time>2015-11-29T12:30:41Z</time>
      </trkpt>
      <trkpt lat="48.08978" lon="3.29045">
        <ele>73.68</ele>
        <time>2015-11-29T12:30:46Z</time>
      </trkpt>
      <trkpt lat="48.08959" lon="3.29058">
        <ele>74.16</ele>
        <time>2015-11-29T12:30:52Z</time>
      </trkpt>
      <trkpt lat="48.08939" lon="3.2907">
        <ele>74.16</ele>
        <time>2015-11-29T12:30:57Z</time>
      </trkpt>
      <trkpt lat="48.08918" lon="3.29081">
        <ele>74.16</ele>
        <time>2015-11-29T12:31:02Z</time>
      </trkpt>
      <trkpt lat="48.08898" lon="3.29095">
        <ele>74.64</ele>
        <time>2015-11-29T12:31:07Z</time>
      </trkpt>
      <trkpt lat="48.0888" lon="3.29107">
        <ele>75.12</ele>
        <time>2015-11-29T12:31:11Z</time>
      </trkpt>
      <trkpt lat="48.08859" lon="3.29121">
        <ele>74.64</ele>
        <time>2015-11-29T12:31:16Z</time>
      </trkpt>
      <trkpt lat="48.08841" lon="3.29132">
        <ele>73.68</ele>
        <time>2015-11-29T12:31:20Z</time>
      </trkpt>
      <trkpt lat="48.08821" lon="3.29144">
        <ele>74.16</ele>
        <time>2015-11-29T12:31:25Z</time>
      </trkpt>
      <trkpt lat="48.08801" lon="3.29155">
        <ele>73.68</ele>
        <time>2015-11-29T12:31:30Z</time>
      </trkpt>
      <trkpt lat="48.08779" lon="3.29166">
        <ele>74.16</ele>
        <time>2015-11-29T12:31:35Z</time>
      </trkpt>
      <trkpt lat="48.08759" lon="3.29176">
        <ele>75.6</ele>
        <time>2015-11-29T12:31:40Z</time>
      </trkpt>
      <trkpt lat="48.08738" lon="3.29185">
        <ele>75.6</ele>
        <time>2015-11-29T12:31:45Z</time>
      </trkpt>
      <trkpt lat="48.08717" lon="3.29196">
        <ele>75.12</ele>
        <time>2015-11-29T12:31:50Z</time>
      </trkpt>
      <trkpt lat="48.08696" lon="3.29205">
        <ele>75.12</ele>
        <time>2015-11-29T12:31:55Z</time>
      </trkpt>
      <trkpt lat="48.08679" lon="3.29214">
        <ele>74.64</ele>
        <time>2015-11-29T12:31:59Z</time>
      </trkpt>
      <trkpt lat="48.08659" lon="3.29224">
        <ele>75.12</ele>
        <time>2015-11-29T12:32:04Z</time>
      </trkpt>
      <trkpt lat="48.08638" lon="3.29235">
        <ele>74.16</ele>
        <time>2015-11-29T12:32:09Z</time>
      </trkpt>
      <trkpt lat="48.08619" lon="3.29245">
        <ele>74.64</ele>
        <time>2015-11-29T12:32:14Z</time>
      </trkpt>
      <trkpt lat="48.086" lon="3.29258">
        <ele>74.16</ele>
        <time>2015-11-29T12:32:19Z</time>
      </trkpt>
      <trkpt lat="48.08589" lon="3.29283">
        <ele>75.6</ele>
        <time>2015-11-29T12:32:26Z</time>
      </trkpt>
      <trkpt lat="48.08577" lon="3.29282">
        <ele>76.08</ele>
        <time>2015-11-29T12:32:49Z</time>
      </trkpt>
      <trkpt lat="48.08572" lon="3.29287">
        <ele>76.08</ele>
        <time>2015-11-29T12:33:35Z</time>
      </trkpt>
      <trkpt lat="48.08583" lon="3.29295">
        <ele>76.08</ele>
        <time>2015-11-29T12:34:16Z</time>
      </trkpt>
      <trkpt lat="48.08575" lon="3.29321">
        <ele>76.08</ele>
        <time>2015-11-29T12:34:23Z</time>
      </trkpt>
      <trkpt lat="48.08572" lon="3.29352">
        <ele>76.56</ele>
        <time>2015-11-29T12:34:29Z</time>
      </trkpt>
      <trkpt lat="48.0857" lon="3.29384">
        <ele>76.56</ele>
        <time>2015-11-29T12:34:34Z</time>
      </trkpt>
      <trkpt lat="48.08568" lon="3.29412">
        <ele>76.56</ele>
        <time>2015-11-29T12:34:38Z</time>
      </trkpt>
      <trkpt lat="48.08565" lon="3.29441">
        <ele>77.04</ele>
        <time>2015-11-29T12:34:42Z</time>
      </trkpt>
      <trkpt lat="48.08562" lon="3.29471">
        <ele>78</ele>
        <time>2015-11-29T12:34:46Z</time>
      </trkpt>
      <trkpt lat="48.0856" lon="3.29501">
        <ele>78.48</ele>
        <time>2015-11-29T12:34:50Z</time>
      </trkpt>
      <trkpt lat="48.08547" lon="3.29515">
        <ele>78.48</ele>
        <time>2015-11-29T12:34:55Z</time>
      </trkpt>
      <trkpt lat="48.08525" lon="3.29513">
        <ele>78</ele>
        <time>2015-11-29T12:35:00Z</time>
      </trkpt>
      <trkpt lat="48.08506" lon="3.29509">
        <ele>78</ele>
        <time>2015-11-29T12:35:04Z</time>
      </trkpt>
      <trkpt lat="48.08486" lon="3.29505">
        <ele>78</ele>
        <time>2015-11-29T12:35:08Z</time>
      </trkpt>
      <trkpt lat="48.08467" lon="3.295">
        <ele>77.04</ele>
        <time>2015-11-29T12:35:12Z</time>
      </trkpt>
      <trkpt lat="48.08449" lon="3.29495">
        <ele>78</ele>
        <time>2015-11-29T12:35:16Z</time>
      </trkpt>
      <trkpt lat="48.08426" lon="3.2949">
        <ele>77.52</ele>
        <time>2015-11-29T12:35:21Z</time>
      </trkpt>
      <trkpt lat="48.08404" lon="3.29484">
        <ele>78</ele>
        <time>2015-11-29T12:35:26Z</time>
      </trkpt>
      <trkpt lat="48.08382" lon="3.2948">
        <ele>78.48</ele>
        <time>2015-11-29T12:35:31Z</time>
      </trkpt>
      <trkpt lat="48.08361" lon="3.29474">
        <ele>78.97</ele>
        <time>2015-11-29T12:35:36Z</time>
      </trkpt>
      <trkpt lat="48.08343" lon="3.29468">
        <ele>78.97</ele>
        <time>2015-11-29T12:35:41Z</time>
      </trkpt>
      <trkpt lat="48.08324" lon="3.29463">
        <ele>78.97</ele>
        <time>2015-11-29T12:35:47Z</time>
      </trkpt>
      <trkpt lat="48.08303" lon="3.29458">
        <ele>78.97</ele>
        <time>2015-11-29T12:35:52Z</time>
      </trkpt>
      <trkpt lat="48.08283" lon="3.29453">
        <ele>79.45</ele>
        <time>2015-11-29T12:35:57Z</time>
      </trkpt>
      <trkpt lat="48.08264" lon="3.29449">
        <ele>79.45</ele>
        <time>2015-11-29T12:36:02Z</time>
      </trkpt>
      <trkpt lat="48.08245" lon="3.29442">
        <ele>79.93</ele>
        <time>2015-11-29T12:36:07Z</time>
      </trkpt>
      <trkpt lat="48.08226" lon="3.29437">
        <ele>79.45</ele>
        <time>2015-11-29T12:36:12Z</time>
      </trkpt>
      <trkpt lat="48.08205" lon="3.29436">
        <ele>80.41</ele>
        <time>2015-11-29T12:36:18Z</time>
      </trkpt>
      <trkpt lat="48.08198" lon="3.29415">
        <ele>79.93</ele>
        <time>2015-11-29T12:36:23Z</time>
      </trkpt>
      <trkpt lat="48.08204" lon="3.29383">
        <ele>78.97</ele>
        <time>2015-11-29T12:36:27Z</time>
      </trkpt>
      <trkpt lat="48.08211" lon="3.2935">
        <ele>78.48</ele>
        <time>2015-11-29T12:36:31Z</time>
      </trkpt>
      <trkpt lat="48.08218" lon="3.2932">
        <ele>77.52</ele>
        <time>2015-11-29T12:36:35Z</time>
      </trkpt>
      <trkpt lat="48.08226" lon="3.29291">
        <ele>78.48</ele>
        <time>2015-11-29T12:36:40Z</time>
      </trkpt>
      <trkpt lat="48.08233" lon="3.29262">
        <ele>81.37</ele>
        <time>2015-11-29T12:36:45Z</time>
      </trkpt>
      <trkpt lat="48.08239" lon="3.29234">
        <ele>82.81</ele>
        <time>2015-11-29T12:36:50Z</time>
      </trkpt>
      <trkpt lat="48.08247" lon="3.29204">
        <ele>82.33</ele>
        <time>2015-11-29T12:36:55Z</time>
      </trkpt>
      <trkpt lat="48.08255" lon="3.29179">
        <ele>81.37</ele>
        <time>2015-11-29T12:36:59Z</time>
      </trkpt>
      <trkpt lat="48.08263" lon="3.29151">
        <ele>80.89</ele>
        <time>2015-11-29T12:37:03Z</time>
      </trkpt>
      <trkpt lat="48.08271" lon="3.2912">
        <ele>79.93</ele>
        <time>2015-11-29T12:37:07Z</time>
      </trkpt>
      <trkpt lat="48.0828" lon="3.29089">
        <ele>78.97</ele>
        <time>2015-11-29T12:37:11Z</time>
      </trkpt>
      <trkpt lat="48.08289" lon="3.29057">
        <ele>78.48</ele>
        <time>2015-11-29T12:37:15Z</time>
      </trkpt>
      <trkpt lat="48.08297" lon="3.29032">
        <ele>77.52</ele>
        <time>2015-11-29T12:37:18Z</time>
      </trkpt>
      <trkpt lat="48.08305" lon="3.29006">
        <ele>77.04</ele>
        <time>2015-11-29T12:37:21Z</time>
      </trkpt>
      <trkpt lat="48.08314" lon="3.28974">
        <ele>76.56</ele>
        <time>2015-11-29T12:37:25Z</time>
      </trkpt>
      <trkpt lat="48.08321" lon="3.28942">
        <ele>76.08</ele>
        <time>2015-11-29T12:37:29Z</time>
      </trkpt>
      <trkpt lat="48.08325" lon="3.28909">
        <ele>77.04</ele>
        <time>2015-11-29T12:37:33Z</time>
      </trkpt>
      <trkpt lat="48.08325" lon="3.28877">
        <ele>76.56</ele>
        <time>2015-11-29T12:37:37Z</time>
      </trkpt>
      <trkpt lat="48.08323" lon="3.28845">
        <ele>77.04</ele>
        <time>2015-11-29T12:37:41Z</time>
      </trkpt>
      <trkpt lat="48.08321" lon="3.28816">
        <ele>76.08</ele>
        <time>2015-11-29T12:37:45Z</time>
      </trkpt>
      <trkpt lat="48.08318" lon="3.28785">
        <ele>77.04</ele>
        <time>2015-11-29T12:37:50Z</time>
      </trkpt>
      <trkpt lat="48.08308" lon="3.28763">
        <ele>77.04</ele>
        <time>2015-11-29T12:37:55Z</time>
      </trkpt>
      <trkpt lat="48.08289" lon="3.28758">
        <ele>77.04</ele>
        <time>2015-11-29T12:37:59Z</time>
      </trkpt>
      <trkpt lat="48.0827" lon="3.28752">
        <ele>77.04</ele>
        <time>2015-11-29T12:38:03Z</time>
      </trkpt>
      <trkpt lat="48.08253" lon="3.28746">
        <ele>78</ele>
        <time>2015-11-29T12:38:07Z</time>
      </trkpt>
      <trkpt lat="48.08234" lon="3.28739">
        <ele>78.97</ele>
        <time>2015-11-29T12:38:12Z</time>
      </trkpt>
      <trkpt lat="48.08213" lon="3.28729">
        <ele>79.93</ele>
        <time>2015-11-29T12:38:17Z</time>
      </trkpt>
      <trkpt lat="48.08193" lon="3.2872">
        <ele>81.37</ele>
        <time>2015-11-29T12:38:22Z</time>
      </trkpt>
      <trkpt lat="48.08174" lon="3.28713">
        <ele>82.33</ele>
        <time>2015-11-29T12:38:27Z</time>
      </trkpt>
      <trkpt lat="48.08157" lon="3.287">
        <ele>83.29</ele>
        <time>2015-11-29T12:38:32Z</time>
      </trkpt>
      <trkpt lat="48.08144" lon="3.28677">
        <ele>83.77</ele>
        <time>2015-11-29T12:38:37Z</time>
      </trkpt>
      <trkpt lat="48.08138" lon="3.2865">
        <ele>83.77</ele>
        <time>2015-11-29T12:38:42Z</time>
      </trkpt>
      <trkpt lat="48.0813" lon="3.2862">
        <ele>83.29</ele>
        <time>2015-11-29T12:38:47Z</time>
      </trkpt>
      <trkpt lat="48.08117" lon="3.28595">
        <ele>82.81</ele>
        <time>2015-11-29T12:38:52Z</time>
      </trkpt>
      <trkpt lat="48.08098" lon="3.28581">
        <ele>81.37</ele>
        <time>2015-11-29T12:38:56Z</time>
      </trkpt>
      <trkpt lat="48.08076" lon="3.28567">
        <ele>80.89</ele>
        <time>2015-11-29T12:39:00Z</time>
      </trkpt>
      <trkpt lat="48.08059" lon="3.28553">
        <ele>79.93</ele>
        <time>2015-11-29T12:39:03Z</time>
      </trkpt>
      <trkpt lat="48.08043" lon="3.28537">
        <ele>79.93</ele>
        <time>2015-11-29T12:39:06Z</time>
      </trkpt>
      <trkpt lat="48.08023" lon="3.28522">
        <ele>79.93</ele>
        <time>2015-11-29T12:39:10Z</time>
      </trkpt>
      <trkpt lat="48.08004" lon="3.28507">
        <ele>81.37</ele>
        <time>2015-11-29T12:39:15Z</time>
      </trkpt>
      <trkpt lat="48.07984" lon="3.28493">
        <ele>81.85</ele>
        <time>2015-11-29T12:39:20Z</time>
      </trkpt>
      <trkpt lat="48.07969" lon="3.28477">
        <ele>81.85</ele>
        <time>2015-11-29T12:39:24Z</time>
      </trkpt>
      <trkpt lat="48.07951" lon="3.28457">
        <ele>81.37</ele>
        <time>2015-11-29T12:39:29Z</time>
      </trkpt>
      <trkpt lat="48.07937" lon="3.28432">
        <ele>81.37</ele>
        <time>2015-11-29T12:39:34Z</time>
      </trkpt>
      <trkpt lat="48.07928" lon="3.28403">
        <ele>81.85</ele>
        <time>2015-11-29T12:39:39Z</time>
      </trkpt>
      <trkpt lat="48.07928" lon="3.28375">
        <ele>82.33</ele>
        <time>2015-11-29T12:39:44Z</time>
      </trkpt>
      <trkpt lat="48.07929" lon="3.28348">
        <ele>83.77</ele>
        <time>2015-11-29T12:39:50Z</time>
      </trkpt>
      <trkpt lat="48.0793" lon="3.28316">
        <ele>85.21</ele>
        <time>2015-11-29T12:39:57Z</time>
      </trkpt>
      <trkpt lat="48.07932" lon="3.28285">
        <ele>86.66</ele>
        <time>2015-11-29T12:40:04Z</time>
      </trkpt>
      <trkpt lat="48.07935" lon="3.28254">
        <ele>86.66</ele>
        <time>2015-11-29T12:40:11Z</time>
      </trkpt>
      <trkpt lat="48.07936" lon="3.28227">
        <ele>88.1</ele>
        <time>2015-11-29T12:40:17Z</time>
      </trkpt>
      <trkpt lat="48.07938" lon="3.282">
        <ele>89.54</ele>
        <time>2015-11-29T12:40:23Z</time>
      </trkpt>
      <trkpt lat="48.07939" lon="3.28173">
        <ele>90.98</ele>
        <time>2015-11-29T12:40:29Z</time>
      </trkpt>
      <trkpt lat="48.07939" lon="3.28145">
        <ele>91.94</ele>
        <time>2015-11-29T12:40:35Z</time>
      </trkpt>
      <trkpt lat="48.07938" lon="3.28118">
        <ele>92.42</ele>
        <time>2015-11-29T12:40:41Z</time>
      </trkpt>
      <trkpt lat="48.07938" lon="3.28091">
        <ele>95.31</ele>
        <time>2015-11-29T12:40:47Z</time>
      </trkpt>
      <trkpt lat="48.07937" lon="3.28062">
        <ele>96.75</ele>
        <time>2015-11-29T12:40:53Z</time>
      </trkpt>
      <trkpt lat="48.07936" lon="3.28035">
        <ele>96.27</ele>
        <time>2015-11-29T12:40:59Z</time>
      </trkpt>
      <trkpt lat="48.07935" lon="3.28009">
        <ele>97.71</ele>
        <time>2015-11-29T12:41:05Z</time>
      </trkpt>
      <trkpt lat="48.07932" lon="3.27978">
        <ele>100.11</ele>
        <time>2015-11-29T12:41:12Z</time>
      </trkpt>
      <trkpt lat="48.07925" lon="3.27949">
        <ele>100.6</ele>
        <time>2015-11-29T12:41:19Z</time>
      </trkpt>
      <trkpt lat="48.07919" lon="3.27924">
        <ele>103</ele>
        <time>2015-11-29T12:41:25Z</time>
      </trkpt>
      <trkpt lat="48.07912" lon="3.27894">
        <ele>103.96</ele>
        <time>2015-11-29T12:41:32Z</time>
      </trkpt>
      <trkpt lat="48.07907" lon="3.27864">
        <ele>104.92</ele>
        <time>2015-11-29T12:41:39Z</time>
      </trkpt>
      <trkpt lat="48.07903" lon="3.27833">
        <ele>106.84</ele>
        <time>2015-11-29T12:41:46Z</time>
      </trkpt>
      <trkpt lat="48.07898" lon="3.27806">
        <ele>107.81</ele>
        <time>2015-11-29T12:41:52Z</time>
      </trkpt>
      <trkpt lat="48.07892" lon="3.2778">
        <ele>109.25</ele>
        <time>2015-11-29T12:41:58Z</time>
      </trkpt>
      <trkpt lat="48.07883" lon="3.27756">
        <ele>110.69</ele>
        <time>2015-11-29T12:42:04Z</time>
      </trkpt>
      <trkpt lat="48.07874" lon="3.27732">
        <ele>112.13</ele>
        <time>2015-11-29T12:42:10Z</time>
      </trkpt>
      <trkpt lat="48.07865" lon="3.27707">
        <ele>112.13</ele>
        <time>2015-11-29T12:42:16Z</time>
      </trkpt>
      <trkpt lat="48.07855" lon="3.27682">
        <ele>114.05</ele>
        <time>2015-11-29T12:42:22Z</time>
      </trkpt>
      <trkpt lat="48.07847" lon="3.27656">
        <ele>114.05</ele>
        <time>2015-11-29T12:42:28Z</time>
      </trkpt>
      <trkpt lat="48.0784" lon="3.2763">
        <ele>115.98</ele>
        <time>2015-11-29T12:42:34Z</time>
      </trkpt>
      <trkpt lat="48.07833" lon="3.27601">
        <ele>117.42</ele>
        <time>2015-11-29T12:42:41Z</time>
      </trkpt>
      <trkpt lat="48.07829" lon="3.27571">
        <ele>117.42</ele>
        <time>2015-11-29T12:42:48Z</time>
      </trkpt>
      <trkpt lat="48.07826" lon="3.27545">
        <ele>119.82</ele>
        <time>2015-11-29T12:42:54Z</time>
      </trkpt>
      <trkpt lat="48.07824" lon="3.27517">
        <ele>121.74</ele>
        <time>2015-11-29T12:43:00Z</time>
      </trkpt>
      <trkpt lat="48.07824" lon="3.27489">
        <ele>123.19</ele>
        <time>2015-11-29T12:43:06Z</time>
      </trkpt>
      <trkpt lat="48.07824" lon="3.27459">
        <ele>123.67</ele>
        <time>2015-11-29T12:43:13Z</time>
      </trkpt>
      <trkpt lat="48.07824" lon="3.27432">
        <ele>125.11</ele>
        <time>2015-11-29T12:43:19Z</time>
      </trkpt>
      <trkpt lat="48.07822" lon="3.27404">
        <ele>125.59</ele>
        <time>2015-11-29T12:43:25Z</time>
      </trkpt>
      <trkpt lat="48.0782" lon="3.27372">
        <ele>127.03</ele>
        <time>2015-11-29T12:43:32Z</time>
      </trkpt>
      <trkpt lat="48.07816" lon="3.27343">
        <ele>128.47</ele>
        <time>2015-11-29T12:43:39Z</time>
      </trkpt>
      <trkpt lat="48.07813" lon="3.27312">
        <ele>129.92</ele>
        <time>2015-11-29T12:43:46Z</time>
      </trkpt>
      <trkpt lat="48.0781" lon="3.27281">
        <ele>131.36</ele>
        <time>2015-11-29T12:43:53Z</time>
      </trkpt>
      <trkpt lat="48.07811" lon="3.27252">
        <ele>131.36</ele>
        <time>2015-11-29T12:43:59Z</time>
      </trkpt>
      <trkpt lat="48.07814" lon="3.27224">
        <ele>133.28</ele>
        <time>2015-11-29T12:44:05Z</time>
      </trkpt>
      <trkpt lat="48.07818" lon="3.27197">
        <ele>135.2</ele>
        <time>2015-11-29T12:44:11Z</time>
      </trkpt>
      <trkpt lat="48.07823" lon="3.27169">
        <ele>135.68</ele>
        <time>2015-11-29T12:44:17Z</time>
      </trkpt>
      <trkpt lat="48.07827" lon="3.27141">
        <ele>136.16</ele>
        <time>2015-11-29T12:44:23Z</time>
      </trkpt>
      <trkpt lat="48.07833" lon="3.27114">
        <ele>137.13</ele>
        <time>2015-11-29T12:44:29Z</time>
      </trkpt>
      <trkpt lat="48.07841" lon="3.27086">
        <ele>140.01</ele>
        <time>2015-11-29T12:44:36Z</time>
      </trkpt>
      <trkpt lat="48.07852" lon="3.27058">
        <ele>142.41</ele>
        <time>2015-11-29T12:44:43Z</time>
      </trkpt>
      <trkpt lat="48.07861" lon="3.27029">
        <ele>143.37</ele>
        <time>2015-11-29T12:44:50Z</time>
      </trkpt>
      <trkpt lat="48.07868" lon="3.27003">
        <ele>143.85</ele>
        <time>2015-11-29T12:44:56Z</time>
      </trkpt>
      <trkpt lat="48.0787" lon="3.26974">
        <ele>145.3</ele>
        <time>2015-11-29T12:45:02Z</time>
      </trkpt>
      <trkpt lat="48.0787" lon="3.26946">
        <ele>146.26</ele>
        <time>2015-11-29T12:45:08Z</time>
      </trkpt>
      <trkpt lat="48.07868" lon="3.26917">
        <ele>147.7</ele>
        <time>2015-11-29T12:45:14Z</time>
      </trkpt>
      <trkpt lat="48.07865" lon="3.26886">
        <ele>149.14</ele>
        <time>2015-11-29T12:45:21Z</time>
      </trkpt>
      <trkpt lat="48.07863" lon="3.26859">
        <ele>151.06</ele>
        <time>2015-11-29T12:45:27Z</time>
      </trkpt>
      <trkpt lat="48.07861" lon="3.26827">
        <ele>151.54</ele>
        <time>2015-11-29T12:45:34Z</time>
      </trkpt>
      <trkpt lat="48.07856" lon="3.26798">
        <ele>152.03</ele>
        <time>2015-11-29T12:45:41Z</time>
      </trkpt>
      <trkpt lat="48.07851" lon="3.26767">
        <ele>153.95</ele>
        <time>2015-11-29T12:45:48Z</time>
      </trkpt>
      <trkpt lat="48.07851" lon="3.26736">
        <ele>155.39</ele>
        <time>2015-11-29T12:45:55Z</time>
      </trkpt>
      <trkpt lat="48.07855" lon="3.26705">
        <ele>157.31</ele>
        <time>2015-11-29T12:46:02Z</time>
      </trkpt>
      <trkpt lat="48.0786" lon="3.26678">
        <ele>158.27</ele>
        <time>2015-11-29T12:46:08Z</time>
      </trkpt>
      <trkpt lat="48.07866" lon="3.26653">
        <ele>158.75</ele>
        <time>2015-11-29T12:46:14Z</time>
      </trkpt>
      <trkpt lat="48.0787" lon="3.26624">
        <ele>159.72</ele>
        <time>2015-11-29T12:46:21Z</time>
      </trkpt>
      <trkpt lat="48.07877" lon="3.26594">
        <ele>162.12</ele>
        <time>2015-11-29T12:46:28Z</time>
      </trkpt>
      <trkpt lat="48.07882" lon="3.26566">
        <ele>164.52</ele>
        <time>2015-11-29T12:46:34Z</time>
      </trkpt>
      <trkpt lat="48.07888" lon="3.26537">
        <ele>164.52</ele>
        <time>2015-11-29T12:46:41Z</time>
      </trkpt>
      <trkpt lat="48.07895" lon="3.26511">
        <ele>165</ele>
        <time>2015-11-29T12:46:47Z</time>
      </trkpt>
      <trkpt lat="48.07904" lon="3.26485">
        <ele>165.96</ele>
        <time>2015-11-29T12:46:53Z</time>
      </trkpt>
      <trkpt lat="48.07914" lon="3.2646">
        <ele>166.93</ele>
        <time>2015-11-29T12:46:59Z</time>
      </trkpt>
      <trkpt lat="48.07925" lon="3.26432">
        <ele>167.89</ele>
        <time>2015-11-29T12:47:05Z</time>
      </trkpt>
      <trkpt lat="48.07935" lon="3.26408">
        <ele>168.85</ele>
        <time>2015-11-29T12:47:10Z</time>
      </trkpt>
      <trkpt lat="48.07941" lon="3.2638">
        <ele>168.37</ele>
        <time>2015-11-29T12:47:15Z</time>
      </trkpt>
      <trkpt lat="48.07943" lon="3.26349">
        <ele>167.41</ele>
        <time>2015-11-29T12:47:20Z</time>
      </trkpt>
      <trkpt lat="48.07944" lon="3.26316">
        <ele>167.41</ele>
        <time>2015-11-29T12:47:25Z</time>
      </trkpt>
      <trkpt lat="48.07944" lon="3.26287">
        <ele>165.96</ele>
        <time>2015-11-29T12:47:29Z</time>
      </trkpt>
      <trkpt lat="48.07943" lon="3.26259">
        <ele>165.48</ele>
        <time>2015-11-29T12:47:33Z</time>
      </trkpt>
      <trkpt lat="48.07943" lon="3.26229">
        <ele>165.96</ele>
        <time>2015-11-29T12:47:37Z</time>
      </trkpt>
      <trkpt lat="48.07943" lon="3.262">
        <ele>166.45</ele>
        <time>2015-11-29T12:47:41Z</time>
      </trkpt>
      <trkpt lat="48.07942" lon="3.26169">
        <ele>165.96</ele>
        <time>2015-11-29T12:47:45Z</time>
      </trkpt>
      <trkpt lat="48.07942" lon="3.26139">
        <ele>165.48</ele>
        <time>2015-11-29T12:47:49Z</time>
      </trkpt>
      <trkpt lat="48.07942" lon="3.26108">
        <ele>165.48</ele>
        <time>2015-11-29T12:47:53Z</time>
      </trkpt>
      <trkpt lat="48.07942" lon="3.26078">
        <ele>165.48</ele>
        <time>2015-11-29T12:47:57Z</time>
      </trkpt>
      <trkpt lat="48.07941" lon="3.26051">
        <ele>165.96</ele>
        <time>2015-11-29T12:48:02Z</time>
      </trkpt>
      <trkpt lat="48.07934" lon="3.26048">
        <ele>166.93</ele>
        <time>2015-11-29T12:48:26Z</time>
      </trkpt>
    </trkseg>
  </trk>
</gpx>